[[{"header":{"parameterUnit":"m.s-1","parameterCategory":1,"la1":31.0,"la2":29.5877,"lo1":-88.7671,"lo2":-86.6584,"dy":0.0162,"dx":0.0185,"nx":115,"ny":88,"refTime":"2025-07-07T12:00:00:Z","depth":0,"parameterNumber":2,"parameterNumberName":"U-component_of_WINDS"},"data":[0.0,0.0,0.0,0.0,0.0,0.0,0.0,0.0,0.0,0.0,0.0,0.0,0.0,0.0,0.0,0.0,0.0,0.0,0.0,0.0,0.0,0.0,0.0,0.0,0.0,0.0,0.0,0.0,0.0,0.0,0.0,0.0,0.0,0.0,0.0,0.0,0.0,0.0,0.0,0.0,0.0,0.0,0.0,0.0,0.0,0.0,0.0,0.0,0.0,0.0,0.0,0.0,0.0,0.0,0.0,0.0,0.0,0.0,0.0,0.0,0.0,0.0,0.0,0.0,0.0,0.0,0.0,0.0,0.0,0.0,0.0,0.0,0.0,0.0,0.0,0.0,0.0,0.0,0.0,0.0,0.0,0.0,0.0,0.0,0.0,0.0,0.0,0.0,0.0,0.0,0.0,0.0,0.0,0.0,0.0,0.0,0.0,0.0,0.0,0.0,0.0,0.0,0.0,0.0,0.0,0.0,0.0,0.0,0.0,0.0,0.0,0.0,0.0,0.0,0.0,0.0,0.0,0.0,0.0,0.0,0.0,0.0,0.0,0.0,0.0,0.0,0.0,0.0,0.0,0.0,0.0,0.0,0.0,0.0,0.0,0.0,0.0,0.0,0.0,0.0,0.0,0.0,0.0,0.0,0.0,0.0,0.0,0.0,0.0,0.0,0.0,0.0,0.0,0.0,0.0,0.0,0.0,0.0,0.0,0.0,0.0,0.0,0.0,0.0,0.0,0.0,0.0,0.0,0.0,0.0,0.0,0.0,0.0,0.0,0.0,0.0,0.0,0.0,0.0,0.0,0.0,0.0,0.0,0.0,0.0,0.0,0.0,0.0,0.0,0.0,0.0,0.0,0.0,0.0,0.0,0.0,0.0,0.0,0.0,0.0,0.0,0.0,0.0,0.0,0.0,0.0,0.0,0.0,0.0,0.0,0.0,0.0,0.0,0.0,0.0,0.0,0.0,0.0,0.0,0.0,0.0,0.0,0.0,0.0,0.0,0.0,0.0,0.0,0.0,0.0,0.0,0.0,0.0,0.0,0.0,0.0,0.0,0.0,0.0,0.0,0.0,0.0,0.0,0.0,0.0,0.0,0.0,0.0,0.0,0.0,0.0,0.0,0.0,0.0,0.0,0.0,0.0,0.0,0.0,0.0,0.0,0.0,0.0,0.0,0.0,0.0,0.0,0.0,0.0,0.0,0.0,0.0,0.0,0.0,0.0,0.0,0.0,0.0,0.0,0.0,0.0,0.0,0.0,0.0,0.0,0.0,0.0,0.0,0.0,0.0,0.0,0.0,0.0,0.0,0.0,0.0,0.0,0.0,0.0,0.0,0.0,0.0,0.0,0.0,0.0,0.0,0.0,0.0,0.0,0.0,0.0,0.0,0.0,0.0,0.0,0.0,0.0,0.0,0.0,0.0,0.0,0.0,0.0,0.0,0.0,0.0,0.0,0.0,0.0,0.0,0.0,0.0,0.0,0.0,0.0,0.0,0.0,0.0,0.0,0.0,0.0,0.0,0.0,0.0,0.0,0.0,0.0,0.0,0.0,0.0,0.0,0.0,0.0,0.0,0.0,0.0,0.0,0.0,0.0,0.0,0.0,0.0,0.0,0.0,0.0,0.0,0.0,0.0,0.0,0.0,0.0,0.0,0.0,0.0,0.0,0.0,0.0,0.0,0.0,0.0,0.0,0.0,0.0,0.0,0.0,0.0,0.0,0.0,0.0,0.0,0.0,0.0,0.0,0.0,0.0,0.0,0.0,0.0,0.0,0.0,0.0,0.0,0.0,0.0,0.0,0.0,0.0,0.0,0.0,0.0,0.0,0.0,0.0,0.0,0.0,0.0,0.0,0.0,0.0,0.0,0.0,0.0,0.0,0.0,0.0,0.0,0.0,0.0,0.0,0.0,0.0,0.0,0.0,0.0,0.0,0.0,0.0,0.0,0.0,0.0,0.0,0.0,0.0,0.0,0.0,0.0,0.0,0.0,0.0,0.0,0.0,0.0,0.0,0.0,0.0,0.0,0.0,0.0,0.0,0.0,0.0,0.0,0.0,0.0,0.0,0.0,0.0,0.0,0.0,0.0,0.0,0.0,0.0,0.0,0.0,0.0,0.0,0.0,0.0,0.0,0.0,0.0,0.0,0.0,0.0,0.0,0.0,0.0,0.0,0.0,0.0,0.0,0.0,0.0,0.0,0.0,0.0,0.0,0.0,0.0,0.0,0.0,0.0,0.0,0.0,0.0,0.0,0.0,0.0,0.0,0.0,0.0,0.0,0.0,0.0,0.0,0.0,0.0,0.0,0.0,0.0,0.0,0.0,0.0,0.0,0.0,0.0,0.0,0.0,0.0,0.0,0.0,0.0,0.0,0.0,0.0,0.0,0.0,0.0,0.0,0.0,0.0,0.0,0.0,0.0,0.0,0.0,0.0,0.0,0.0,0.0,0.0,0.0,0.0,0.0,0.0,0.0,0.0,0.0,0.0,0.0,0.0,0.0,0.0,0.0,0.0,0.0,0.0,0.0,0.0,0.0,0.0,0.0,0.0,0.0,0.0,0.0,0.0,0.0,0.0,0.0,0.0,0.0,0.0,0.0,0.0,0.0,0.0,0.0,0.0,0.0,0.0,0.0,0.0,0.0,0.0,0.0,0.0,0.0,0.0,0.0,0.0,0.0,0.0,0.0,0.0,0.0,0.0,0.0,0.0,0.0,0.0,0.0,0.0,0.0,0.0,0.0,0.0,0.0,0.0,0.0,0.0,0.0,0.0,0.0,0.0,0.0,0.0,0.0,0.0,0.0,0.0,0.0,0.0,0.0,0.0,0.0,0.0,0.0,0.0,0.0,0.0,0.0,0.0,0.0,0.0,0.0,0.0,0.0,0.0,0.0,0.0,0.0,0.0,0.0,0.0,0.0,0.0,0.0,0.0,0.0,0.0,0.0,0.0,0.0,0.0,0.0,0.0,0.0,0.0,0.0,0.0,0.0,0.0,0.0,0.0,0.0,0.0,0.0,0.0,0.0,0.0,0.0,0.0,0.0,0.0,0.0,0.0,0.0,0.0,0.0,0.0,0.0,0.0,0.0,0.0,0.0,0.0,0.0,0.0,0.0,0.0,0.0,0.0,0.0,0.0,0.0,0.0,0.0,0.0,0.0,0.0,0.0,0.0,0.0,0.0,0.0,0.0,0.0,0.0,0.0,0.0,0.0,0.0,0.0,0.0,0.0,0.0,0.0,0.0,0.0,0.0,0.0,0.0,0.0,0.0,0.0,0.0,0.0,0.0,0.0,0.0,0.0,0.0,0.0,0.0,0.0,0.0,0.0,0.0,0.0,0.0,0.0,0.0,0.0,0.0,0.0,0.0,0.0,0.0,0.0,0.0,0.0,0.0,0.0,0.0,0.0,0.0,0.0,0.0,0.0,0.0,0.0,0.0,0.0,0.0,0.0,0.0,0.0,0.0,0.0,0.0,0.0,0.0,0.0,0.0,0.0,0.0,0.0,0.0,0.0,0.0,0.0,0.0,0.0,0.0,0.0,0.0,0.0,0.0,0.0,0.0,0.0,0.0,0.0,0.0,0.0,0.0,0.0,0.0,0.0,0.0,0.0,0.0,0.0,0.0,0.0,0.0,0.0,0.0,0.0,0.0,0.0,0.0,0.0,0.0,0.0,0.0,0.0,0.0,0.0,0.0,0.0,0.0,0.0,0.0,0.0,0.0,0.0,0.0,0.0,0.0,0.0,0.0,0.0,0.0,0.0,0.0,0.0,0.0,0.0,0.0,0.0,0.0,0.0,0.0,0.0,0.0,0.0,0.0,0.0,0.0,0.0,0.0,0.0,0.0,0.0,0.0,0.0,0.0,0.0,0.0,0.0,0.0,0.0,0.0,0.0,0.0,0.0,0.0,0.0,0.0,0.0,0.0,0.0,0.0,0.0,0.0,0.0,0.0,0.0,0.0,0.0,0.0,0.0,0.0,0.0,0.0,0.0,0.0,0.0,0.0,0.0,0.0,0.0,0.0,0.0,0.0,0.0,0.0,0.0,0.0,0.0,0.0,0.0,0.0,0.0,0.0,0.0,0.0,0.0,0.0,0.0,0.0,0.0,0.0,0.0,0.0,0.0,0.0,0.0,0.0,0.0,0.0,0.0,0.0,0.0,0.0,0.0,0.0,0.0,0.0,0.0,0.0,0.0,0.0,0.0,0.0,0.0,0.0,0.0,0.0,0.0,0.0,0.0,0.0,0.0,0.0,0.0,0.0,0.0,0.0,0.0,0.0,0.0,0.0,-0.4207,0.0,0.0,0.0,0.0,0.0,0.0,0.0,0.0,0.0,0.0,0.0,0.0,0.0,0.0,0.0,0.0,0.0,0.0,0.0,0.0,0.0,0.0,0.0,0.0,0.0,0.0,0.0,0.0,0.0,0.0,0.0,0.0,0.0,0.0,0.0,0.0,0.0,0.0,0.0,0.0,0.0,0.0,0.0,0.0,0.0,0.0,0.0,0.0,0.0,0.0,0.0,0.0,0.0,0.0,0.0,0.0,0.0,0.0,0.0,0.0,0.0,0.0,0.0,0.0,0.0,0.0,0.0,0.0,0.0,0.0,0.0,0.0,0.0,0.0,0.0,0.0,0.0,0.0,0.0,0.0,0.0,0.0,0.0,0.0,0.0,0.0,0.0,0.0,0.0,0.0,0.0,0.0,0.0,0.0,0.0,0.0,0.0,0.0,0.0,0.0,0.0,0.0,0.0,0.0,0.0,0.0,0.0,0.0,0.0,0.0,-0.4207,-0.4207,-0.4207,-0.4207,-0.4207,0.0,0.0,0.0,0.0,0.0,0.0,0.0,0.0,0.0,0.0,0.0,0.0,0.0,0.0,0.0,0.0,0.0,0.0,0.0,0.0,0.0,0.0,0.0,0.0,0.0,0.0,0.0,0.0,0.0,0.0,0.0,0.0,0.0,0.0,0.0,0.0,0.0,0.0,0.0,0.0,0.0,0.0,0.0,0.0,0.0,0.0,0.0,0.0,0.0,0.0,0.0,0.0,0.0,0.0,0.0,0.0,0.0,0.0,0.0,0.0,0.0,0.0,0.0,0.0,0.0,0.0,0.0,0.0,0.0,0.0,0.0,0.0,0.0,0.0,0.0,0.0,0.0,0.0,0.0,0.0,0.0,0.0,0.0,0.0,0.0,0.0,0.0,0.0,0.0,0.0,0.0,0.0,0.0,0.0,0.0,0.0,0.0,0.0,0.0,0.0,0.0,0.0,0.0,0.0,0.0,0.0,0.0,0.0,0.0,0.0,0.0,0.0,-0.4439,-0.4395,-0.433,0.0,0.0,0.0,0.0,0.0,0.0,0.0,0.0,0.0,0.0,0.0,0.0,0.0,0.0,0.0,0.0,0.0,0.0,0.0,0.0,0.0,0.0,0.0,0.0,0.0,0.0,0.0,0.0,0.0,0.0,0.0,0.0,0.0,0.0,0.0,0.0,0.0,0.0,0.0,0.0,0.0,0.0,0.0,0.0,0.0,0.0,0.0,0.0,0.0,0.0,0.0,0.0,0.0,0.0,0.0,0.0,0.0,0.0,0.0,0.0,0.0,0.0,0.0,0.0,0.0,0.0,0.0,0.0,0.0,0.0,0.0,0.0,0.0,0.0,0.0,0.0,0.0,0.0,0.0,0.0,0.0,0.0,0.0,0.0,0.0,0.0,0.0,0.0,0.0,0.0,0.0,0.0,0.0,0.0,0.0,0.0,0.0,0.0,0.0,0.0,0.0,0.0,0.0,0.0,0.0,0.0,0.0,0.0,0.0,0.0,-0.448,-0.5092,-0.5108,0.0,-0.4745,0.0,0.0,0.0,0.0,0.0,0.0,0.0,0.0,0.0,0.0,0.0,0.0,0.0,0.0,0.0,0.0,0.0,0.0,0.0,0.0,0.0,0.0,0.0,0.0,0.0,0.0,0.0,0.0,0.0,0.0,0.0,0.0,0.0,0.0,0.0,0.0,0.0,0.0,0.0,0.0,0.0,0.0,0.0,0.0,0.0,0.0,0.0,0.0,0.0,0.0,0.0,0.0,0.0,0.0,0.0,0.0,0.0,0.0,0.0,0.0,0.0,0.0,0.0,0.0,0.0,0.0,0.0,0.0,0.0,0.0,0.0,0.0,0.0,0.0,0.0,0.0,0.0,0.0,0.0,0.0,0.0,0.0,0.0,0.0,0.0,0.0,0.0,0.0,0.0,0.0,0.0,0.0,0.0,0.0,0.0,0.0,0.0,0.0,0.0,0.0,0.0,0.0,0.0,0.0,0.0,0.0,0.0,0.0,0.0,0.0,0.0,-0.448,-0.4487,-0.4435,0.0,0.0,0.0,0.0,0.0,0.0,0.0,0.0,0.0,0.0,0.0,0.0,0.0,0.0,0.0,0.0,0.0,0.0,0.0,0.0,0.0,0.0,0.0,0.0,0.0,0.0,0.0,0.0,0.0,0.0,0.0,0.0,0.0,0.0,0.0,0.0,0.0,0.0,0.0,0.0,0.0,0.0,0.0,0.0,0.0,0.0,0.0,0.0,0.0,0.0,0.0,0.0,0.0,0.0,0.0,0.0,0.0,0.0,0.0,0.0,0.0,0.0,0.0,0.0,0.0,0.0,0.0,0.0,0.0,0.0,0.0,0.0,0.0,0.0,0.0,0.0,0.0,0.0,0.0,0.0,0.0,0.0,0.0,0.0,0.0,0.0,0.0,0.0,0.0,0.0,0.0,0.0,0.0,0.0,0.0,0.0,0.0,0.0,0.0,0.0,0.0,0.0,0.0,0.0,0.0,0.0,0.0,0.0,0.0,0.0,-0.4179,0.0,-0.4282,-0.4183,-0.4083,-0.3945,0.0,0.0,0.0,0.0,0.0,0.0,0.0,0.0,0.0,0.0,0.0,0.0,0.0,0.0,0.0,0.0,0.0,0.0,0.0,0.0,0.0,0.0,0.0,0.0,0.0,0.0,0.0,0.0,0.0,0.0,0.0,0.0,0.0,0.0,0.0,0.0,0.0,0.0,0.0,0.0,0.0,0.0,0.0,0.0,0.0,0.0,0.0,0.0,0.0,0.0,0.0,0.0,0.0,0.0,0.0,0.0,0.0,0.0,0.0,0.0,0.0,0.0,0.0,0.0,0.0,0.0,0.0,0.0,0.0,0.0,0.0,0.0,0.0,0.0,0.0,0.0,0.0,0.0,0.0,0.0,0.0,0.0,0.0,0.0,0.0,0.0,0.0,0.0,0.0,0.0,0.0,0.0,0.0,0.0,0.0,0.0,0.0,0.0,0.0,0.0,0.0,0.0,0.0,0.0,0.0,0.0,0.0,0.0,0.0,-0.4178,-0.432,-0.4903,-0.4644,-0.4328,0.0,0.0,0.0,0.0,0.0,0.0,0.0,0.0,0.0,0.0,0.0,0.0,0.0,0.0,0.0,0.0,0.0,0.0,0.0,0.0,0.0,0.0,0.0,0.0,0.0,0.0,0.0,0.0,0.0,0.0,0.0,0.0,0.0,0.0,0.0,0.0,0.0,0.0,0.0,0.0,0.0,0.0,0.0,0.0,0.0,0.0,0.0,0.0,0.0,0.0,0.0,0.0,0.0,0.0,0.0,0.0,0.0,0.0,0.0,0.0,0.0,0.0,0.0,0.0,0.0,0.0,0.0,0.0,0.0,0.0,0.0,0.0,0.0,0.0,0.0,0.0,0.0,0.0,0.0,0.0,0.0,0.0,0.0,0.0,0.0,0.0,0.0,0.0,0.0,0.0,0.0,0.0,0.0,0.0,0.0,0.0,0.0,0.0,0.0,0.0,0.0,0.0,0.0,0.0,0.0,0.0,0.0,0.0,0.0,-0.3231,-0.3367,-0.3908,-0.4899,-0.4113,-0.3683,0.0,0.0,0.0,0.0,0.0,0.0,0.0,0.0,0.0,0.0,0.0,0.0,0.0,0.0,0.0,0.0,0.0,0.0,0.0,0.0,0.0,0.0,0.0,0.0,0.0,0.0,0.0,0.0,0.0,0.0,0.0,0.0,0.0,0.0,0.0,0.0,0.0,0.0,0.0,0.0,0.0,0.0,0.0,0.0,0.0,0.0,0.0,0.0,0.0,0.0,0.0,0.0,0.0,0.0,0.0,0.0,0.0,0.0,0.0,0.0,0.0,0.0,0.0,0.0,0.0,0.0,0.0,0.0,0.0,0.0,0.0,0.0,0.0,0.0,0.0,0.0,0.0,0.0,0.0,0.0,0.0,0.0,0.0,0.0,0.0,0.0,0.0,0.0,0.0,0.0,0.0,0.0,0.0,0.0,0.0,0.0,0.0,0.0,0.0,0.0,0.0,0.0,0.0,0.0,0.0,0.0,0.0,0.0,0.0,-0.2896,0.0,-0.3853,0.0,-0.3768,-0.3293,0.0,0.0,0.0,0.0,0.0,0.0,0.0,0.0,0.0,0.0,0.0,0.0,0.0,0.0,0.0,0.0,0.0,0.0,0.0,0.0,0.0,0.0,0.0,0.0,0.0,0.0,0.0,0.0,0.0,0.0,0.0,0.0,0.0,0.0,0.0,0.0,0.0,0.0,0.0,0.0,0.0,0.0,0.0,0.0,0.0,0.0,0.0,0.0,0.0,0.0,0.0,0.0,0.0,0.0,0.0,0.0,0.0,0.0,0.0,0.0,0.0,0.0,0.0,0.0,0.0,0.0,0.0,0.0,0.0,0.0,0.0,0.0,0.0,0.0,0.0,0.0,0.0,0.0,0.0,0.0,0.0,0.0,0.0,0.0,0.0,0.0,0.0,0.0,0.0,0.0,0.0,0.0,0.0,0.0,0.0,0.0,0.0,0.0,0.0,0.0,0.0,0.0,0.0,0.0,0.0,0.0,0.0,0.0,-0.288,-0.3653,-0.4101,-0.4156,-0.3738,-0.3686,-0.3307,0.0,0.0,0.0,0.0,0.0,0.0,0.0,0.0,0.0,0.0,0.0,0.0,0.0,0.0,0.0,0.0,0.0,0.0,0.0,0.0,0.0,0.0,0.0,0.0,0.0,0.0,0.0,0.0,0.0,0.0,0.0,0.0,0.0,0.0,0.0,0.0,0.0,0.0,0.0,0.0,0.0,0.0,0.0,0.0,0.0,0.0,0.0,0.0,0.0,0.0,0.0,0.0,0.0,0.0,0.0,0.0,0.0,0.0,0.0,0.0,0.0,0.0,0.0,0.0,0.0,0.0,0.0,0.0,0.0,0.0,0.0,0.0,0.0,0.0,0.0,0.0,0.0,0.0,0.0,0.0,0.0,0.0,0.0,0.0,0.0,0.0,0.0,0.0,0.0,0.0,0.0,0.0,0.0,0.0,0.0,0.0,0.0,0.0,0.0,0.0,0.0,0.0,0.0,0.0,0.0,0.0,0.0,0.0,0.0,-0.3283,-0.3572,-0.3926,-0.4328,-0.3534,-0.3232,0.0,0.0,0.0,0.0,0.0,0.0,0.0,0.0,0.0,0.0,0.0,0.0,0.0,0.0,0.0,0.0,0.0,0.0,0.0,0.0,0.0,0.0,0.0,0.0,0.0,0.0,0.0,0.0,0.0,0.0,0.0,0.0,0.0,0.0,0.0,0.0,0.0,0.0,0.0,0.0,0.0,0.0,0.0,0.0,0.0,0.0,0.0,0.0,0.0,0.0,0.0,0.0,0.0,0.0,0.0,0.0,0.0,0.0,0.0,0.0,0.0,0.0,0.0,0.0,0.0,0.0,0.0,0.0,0.0,0.0,0.0,0.0,0.0,0.0,0.0,0.0,0.0,0.0,0.0,0.0,0.0,0.0,0.0,0.0,0.0,0.0,0.0,0.0,0.0,0.0,0.0,0.0,0.0,0.0,0.0,0.0,0.0,0.0,0.0,0.0,0.0,0.0,0.0,0.0,0.0,0.0,0.0,0.0,0.0,-0.347,-0.3892,-0.4286,-0.47,-0.3827,-0.3478,-0.3635,0.0,0.0,0.0,0.0,0.0,0.0,0.0,0.0,0.0,0.0,0.0,0.0,0.0,0.0,0.0,0.0,0.0,0.0,0.0,0.0,0.0,0.0,0.0,0.0,0.0,0.0,0.0,0.0,0.0,0.0,0.0,0.0,0.0,0.0,0.0,0.0,0.0,0.0,0.0,0.0,0.0,0.0,0.0,0.0,0.0,0.0,0.0,0.0,0.0,0.0,0.0,0.0,0.0,0.0,0.0,0.0,0.0,0.0,0.0,0.0,0.0,0.0,0.0,0.0,0.0,0.0,0.0,0.0,0.0,0.0,0.0,0.0,0.0,0.0,0.0,0.0,0.0,0.0,0.0,0.0,0.0,0.0,0.0,0.0,0.0,0.0,0.0,0.0,0.0,0.0,0.0,0.0,0.0,0.0,0.0,0.0,0.0,0.0,0.0,0.0,0.0,0.0,0.0,0.0,0.0,0.0,0.0,0.0,-0.4026,-0.4859,-0.5122,-0.4776,-0.4504,-0.4009,0.0,0.0,0.0,0.0,0.0,0.0,0.0,0.0,0.0,0.0,0.0,0.0,0.0,0.0,0.0,0.0,0.0,0.0,0.0,0.0,0.0,0.0,0.0,0.0,0.0,0.0,0.0,0.0,0.0,0.0,0.0,0.0,0.0,0.0,0.0,0.0,0.0,0.0,0.0,0.0,0.0,0.0,0.0,0.0,0.0,0.0,0.0,0.0,0.0,0.0,0.0,0.0,0.0,0.0,0.0,0.0,0.0,0.0,0.0,0.0,0.0,0.0,0.0,0.0,0.0,0.0,0.0,0.0,0.0,0.0,0.0,0.0,0.0,0.0,0.0,0.0,0.0,0.0,0.0,0.0,0.0,0.0,0.0,0.0,0.0,0.0,0.0,0.0,0.0,0.0,0.0,0.0,0.0,0.0,0.0,0.0,0.0,0.0,0.0,0.0,0.0,0.0,0.0,0.0,0.0,0.0,0.0,0.0,0.0,-0.421,-0.4944,-0.5323,-0.5353,-0.456,-0.3986,0.0,0.0,0.0,0.0,0.0,0.0,0.0,0.0,0.0,0.0,0.0,0.0,0.0,0.0,0.0,0.0,0.0,0.0,0.0,0.0,0.0,0.0,0.0,0.0,0.0,0.0,0.0,0.0,0.0,0.0,0.0,0.0,0.0,0.0,0.0,0.0,0.0,0.0,0.0,0.0,0.0,0.0,0.0,0.0,0.0,0.0,0.0,0.0,0.0,0.0,0.0,0.0,0.0,0.0,0.0,0.0,0.0,0.0,0.0,0.0,0.0,0.0,0.0,0.0,0.0,0.0,0.0,0.0,0.0,0.0,0.0,0.0,0.0,0.0,0.0,0.0,0.0,0.0,0.0,0.0,0.0,0.0,0.0,0.0,0.0,0.0,0.0,0.0,0.0,0.0,0.0,0.0,0.0,0.0,0.0,0.0,0.0,0.0,0.0,0.0,0.0,0.0,0.0,0.0,0.0,0.0,0.0,0.0,-0.3508,-0.4149,-0.4708,-0.51,-0.5435,-0.4612,-0.401,0.0,0.0,0.0,0.0,0.0,0.0,0.0,0.0,0.0,0.0,0.0,0.0,0.0,0.0,0.0,0.0,0.0,0.0,0.0,0.0,0.0,0.0,0.0,0.0,0.0,0.0,0.0,0.0,0.0,0.0,0.0,0.0,0.0,0.0,0.0,0.0,0.0,0.0,0.0,0.0,0.0,0.0,0.0,0.0,0.0,0.0,0.0,0.0,0.0,0.0,0.0,0.0,0.0,0.0,0.0,0.0,0.0,0.0,0.0,0.0,0.0,0.0,0.0,0.0,0.0,0.0,0.0,0.0,0.0,0.0,0.0,0.0,0.0,0.0,0.0,0.0,0.0,0.0,0.0,0.0,0.0,0.0,0.0,0.0,0.0,0.0,0.0,0.0,0.0,0.0,0.0,0.0,0.0,0.0,0.0,0.0,0.0,0.0,0.0,0.0,0.0,0.0,0.0,0.0,0.0,0.0,0.0,0.0,-0.3153,-0.3896,-0.4233,-0.4664,-0.5149,-0.4584,-0.3993,0.0,0.0,0.0,0.0,0.0,0.0,0.0,0.0,0.0,0.0,0.0,0.0,0.0,0.0,0.0,0.0,0.0,0.0,0.0,0.0,0.0,0.0,0.0,0.0,0.0,0.0,0.0,0.0,0.0,0.0,0.0,0.0,0.0,0.0,0.0,0.0,0.0,0.0,0.0,0.0,0.0,0.0,0.0,0.0,0.0,0.0,0.0,0.0,0.0,0.0,0.0,0.0,0.0,0.0,0.0,0.0,0.0,0.0,0.0,0.0,0.0,0.0,0.0,0.0,0.0,0.0,0.0,0.0,0.0,0.0,0.0,0.0,0.0,0.0,0.0,0.0,0.0,0.0,0.0,0.0,0.0,0.0,0.0,0.0,0.0,0.0,0.0,0.0,0.0,0.0,0.0,0.0,0.0,0.0,0.0,0.0,0.0,0.0,0.0,0.0,0.0,0.0,0.0,0.0,0.0,0.0,0.0,0.0,-0.2799,-0.3372,-0.3759,-0.4113,-0.4406,-0.4232,-0.3876,0.0,0.0,0.0,0.0,0.0,0.0,0.0,0.0,0.0,0.0,0.0,0.0,0.0,0.0,0.0,0.0,0.0,0.0,0.0,0.0,0.0,0.0,0.0,0.0,0.0,0.0,0.0,0.0,0.0,0.0,0.0,0.0,0.0,0.0,0.0,0.0,0.0,0.0,0.0,0.0,0.0,0.0,0.0,0.0,0.0,0.0,0.0,0.0,-0.1675,0.0,0.0,0.0,0.0,0.0,0.0,0.0,0.0,0.0,0.0,0.0,0.0,0.0,0.0,0.0,0.0,0.0,0.0,0.0,0.0,0.0,0.0,0.0,0.0,0.0,0.0,0.0,0.0,0.0,0.0,0.0,0.0,0.0,0.0,0.0,0.0,0.0,0.0,0.0,0.0,0.0,0.0,0.0,0.0,0.0,0.0,0.0,0.0,0.0,0.0,0.0,0.0,0.0,0.0,0.0,0.0,0.0,0.0,0.0,-0.2442,-0.3195,-0.3268,-0.3574,-0.4168,-0.3901,-0.3557,0.0,0.0,0.0,0.0,0.0,0.0,0.0,0.0,0.0,0.0,0.0,0.0,0.0,0.0,0.0,0.0,0.0,0.0,0.0,0.0,0.0,0.0,0.0,0.0,0.0,0.0,0.0,0.0,0.0,0.0,0.0,0.0,0.0,0.0,0.0,0.0,0.0,0.0,0.0,0.0,0.0,0.0,0.0,0.0,0.0,0.0,0.0,0.0,0.0,0.0,0.0,0.0,0.0,0.0,0.0,0.0,0.0,0.0,0.0,0.0,0.0,0.0,0.0,0.0,0.0,0.0,0.0,0.0,0.0,0.0,0.0,0.0,0.0,0.0,0.0,0.0,0.0,0.0,0.0,0.0,0.0,0.0,0.0,0.0,0.0,0.0,0.0,0.0,0.0,0.0,0.0,0.0,0.0,0.0,0.0,0.0,0.0,0.0,0.0,0.0,0.0,0.0,0.0,0.0,0.0,0.0,0.0,-0.1461,-0.2131,-0.3151,-0.2925,-0.3186,-0.4067,-0.3641,-0.3254,-0.2926,0.0,0.0,0.0,0.0,0.0,0.0,0.0,0.0,0.0,0.0,0.0,0.0,0.0,0.0,0.0,0.0,0.0,0.0,0.0,0.0,0.0,0.0,0.0,0.0,0.0,0.0,0.0,0.0,0.0,0.0,0.0,0.0,0.0,0.0,0.0,0.0,0.0,0.0,-0.1887,-0.2244,0.0,0.0,0.0,0.0,0.0,0.0,0.0,0.0,-0.1466,0.0,0.0,0.0,0.0,0.0,0.0,0.0,0.0,0.0,0.0,0.0,0.0,0.0,0.0,0.0,0.0,0.0,0.0,0.0,0.0,0.0,0.0,0.0,0.0,0.0,0.0,0.0,0.0,0.0,0.0,0.0,0.0,0.0,0.0,0.0,0.0,0.0,0.0,0.0,0.0,0.0,0.0,0.0,0.0,0.0,0.0,0.0,0.0,0.0,0.0,0.0,0.0,0.0,0.0,0.0,0.0,-0.1386,-0.171,-0.2211,-0.2771,-0.2956,-0.3246,-0.3691,-0.3619,-0.3338,-0.2932,0.0,0.0,0.0,0.0,0.0,0.0,0.0,0.0,0.0,0.0,0.0,0.0,0.0,0.0,0.0,0.0,0.0,0.0,0.0,0.0,0.0,0.0,0.0,0.0,0.0,0.0,0.0,0.0,0.0,0.0,0.0,0.0,0.0,0.0,0.0,0.0,0.0,0.0,0.0,-0.269,-0.2843,0.0,0.0,0.0,0.0,0.0,0.0,0.0,0.0,-0.1338,0.0,0.0,0.0,0.0,0.0,0.0,0.0,0.0,0.0,0.0,0.0,0.0,0.0,0.0,0.0,0.0,0.0,0.0,0.0,0.0,0.0,0.0,0.0,0.0,0.0,0.0,0.0,0.0,0.0,0.0,0.0,0.0,0.0,0.0,0.0,0.0,0.0,0.0,0.0,0.0,0.0,0.0,0.0,0.0,0.0,0.0,0.0,0.0,0.0,0.0,0.0,0.0,0.0,0.0,0.0,-0.1336,-0.1789,-0.2259,-0.2681,-0.2968,-0.3246,-0.3583,-0.346,-0.3227,0.0,0.0,0.0,0.0,0.0,0.0,0.0,0.0,0.0,0.0,0.0,0.0,0.0,0.0,0.0,0.0,0.0,0.0,0.0,0.0,0.0,0.0,0.0,0.0,0.0,0.0,0.0,0.0,0.0,0.0,0.0,0.0,0.0,0.0,0.0,0.0,0.0,0.0,0.0,0.0,-0.2659,-0.2777,-0.2341,0.0,0.0,0.0,0.0,0.0,0.0,-0.134,-0.1233,0.0,0.0,0.0,0.0,0.0,0.0,0.0,0.0,0.0,0.0,0.0,0.0,0.0,0.0,0.0,0.0,0.0,0.0,0.0,0.0,0.0,0.0,0.0,0.0,0.0,0.0,0.0,0.0,0.0,0.0,0.0,0.0,0.0,0.0,0.0,0.0,0.0,0.0,0.0,0.0,0.0,0.0,0.0,0.0,0.0,0.0,0.0,0.0,0.0,0.0,0.0,0.0,0.0,0.0,0.0,-0.1424,-0.19,-0.2401,-0.279,-0.3077,-0.3302,-0.3583,-0.3395,-0.3159,0.0,0.0,0.0,0.0,0.0,0.0,0.0,0.0,0.0,0.0,0.0,0.0,0.0,0.0,0.0,0.0,0.0,0.0,0.0,0.0,0.0,0.0,0.0,0.0,0.0,0.0,0.0,0.0,0.0,0.0,0.0,0.0,0.0,0.0,0.0,0.0,0.0,0.0,0.0,0.0,0.0,-0.2594,-0.2368,-0.2285,0.0,0.0,0.0,0.0,-0.1502,-0.1326,0.0,0.0,0.0,0.0,0.0,0.0,0.0,0.0,0.0,0.0,0.0,0.0,0.0,0.0,0.0,0.0,0.0,0.0,0.0,0.0,0.0,0.0,0.0,0.0,0.0,0.0,0.0,0.0,0.0,0.0,0.0,0.0,0.0,0.0,0.0,0.0,0.0,0.0,0.0,0.0,0.0,0.0,0.0,0.0,0.0,0.0,0.0,0.0,0.0,0.0,0.0,0.0,0.0,0.0,0.0,0.0,-0.1762,-0.2186,-0.2661,-0.3063,-0.336,-0.3585,-0.3585,-0.3555,-0.333,0.0,0.0,0.0,0.0,0.0,0.0,0.0,0.0,0.0,0.0,0.0,0.0,0.0,0.0,0.0,0.0,0.0,0.0,0.0,0.0,0.0,0.0,0.0,0.0,0.0,0.0,0.0,0.0,0.0,0.0,0.0,0.0,0.0,0.0,0.0,0.0,0.0,0.0,0.0,0.0,0.0,-0.2433,-0.1889,-0.1926,-0.1852,0.0,0.0,-0.1632,-0.1384,-0.1592,0.0,0.0,0.0,0.0,0.0,0.0,0.0,0.0,0.0,0.0,0.0,0.0,0.0,0.0,0.0,0.0,0.0,0.0,0.0,0.0,0.0,0.0,0.0,0.0,0.0,0.0,0.0,0.0,0.0,0.0,0.0,0.0,0.0,0.0,0.0,0.0,0.0,0.0,0.0,0.0,0.0,0.0,0.0,0.0,0.0,0.0,0.0,0.0,0.0,0.0,0.0,0.0,0.0,0.0,0.0,-0.1517,-0.1873,-0.2456,-0.2927,-0.307,-0.3416,-0.3585,-0.3585,-0.3449,-0.3216,0.0,0.0,0.0,0.0,0.0,0.0,0.0,0.0,0.0,0.0,0.0,0.0,0.0,0.0,0.0,0.0,0.0,0.0,0.0,0.0,0.0,0.0,0.0,0.0,0.0,0.0,0.0,0.0,0.0,0.0,0.0,0.0,0.0,0.0,0.0,0.0,0.0,0.0,0.0,0.0,0.0,0.0,-0.2001,-0.204,0.0,0.0,0.0,-0.1506,-0.1346,0.0,0.0,0.0,0.0,0.0,0.0,0.0,0.0,0.0,0.0,0.0,0.0,0.0,0.0,0.0,0.0,0.0,0.0,0.0,0.0,0.0,0.0,0.0,0.0,0.0,0.0,0.0,0.0,0.0,0.0,0.0,0.0,0.0,0.0,0.0,0.0,0.0,0.0,0.0,0.0,0.0,0.0,0.0,0.0,0.0,0.0,0.0,0.0,0.0,0.0,0.0,0.0,0.0,0.0,0.0,0.0,0.0,-0.2016,-0.2688,-0.3106,-0.3239,-0.3471,-0.3585,-0.3583,-0.3406,0.0,0.0,0.0,0.0,0.0,0.0,0.0,0.0,0.0,0.0,0.0,0.0,0.0,0.0,0.0,0.0,0.0,0.0,0.0,0.0,0.0,0.0,0.0,0.0,0.0,0.0,0.0,0.0,0.0,0.0,0.0,0.0,0.0,0.0,0.0,0.0,0.0,0.0,0.0,0.0,0.0,0.0,-0.1949,-0.2027,-0.2009,-0.1819,0.0,0.0,-0.1465,-0.1397,-0.1438,-0.1423,0.0,0.0,0.0,0.0,0.0,0.0,0.0,0.0,0.0,0.0,0.0,0.0,0.0,0.0,0.0,0.0,0.0,0.0,0.0,0.0,0.0,0.0,0.0,0.0,0.0,0.0,0.0,0.0,0.0,0.0,0.0,0.0,0.0,0.0,0.0,0.0,0.0,0.0,0.0,0.0,0.0,0.0,0.0,0.0,0.0,0.0,0.0,0.0,0.0,0.0,0.0,0.0,0.0,0.0,0.0,-0.2284,-0.2805,-0.3236,-0.353,-0.3585,-0.3585,-0.3583,-0.3569,-0.3341,0.0,0.0,0.0,0.0,0.0,0.0,0.0,0.0,0.0,0.0,0.0,0.0,0.0,0.0,0.0,0.0,0.0,0.0,0.0,0.0,0.0,0.0,0.0,0.0,0.0,0.0,0.0,0.0,0.0,0.0,0.0,0.0,0.0,0.0,0.0,0.0,0.0,0.0,0.0,0.0,0.0,-0.1562,-0.1523,-0.1617,-0.1604,0.0,0.0,-0.167,-0.1617,-0.17,-0.1623,-0.126,0.0,0.0,0.0,0.0,0.0,0.0,0.0,0.0,0.0,0.0,0.0,0.0,0.0,0.0,0.0,0.0,0.0,0.0,0.0,0.0,0.0,0.0,0.0,0.0,0.0,0.0,0.0,0.0,0.0,0.0,0.0,0.0,0.0,0.0,0.0,0.0,0.0,0.0,0.0,0.0,0.0,0.0,0.0,0.0,0.0,0.0,0.0,0.0,0.0,0.0,0.0,0.0,0.0,-0.2091,-0.2281,-0.3022,-0.3471,-0.3585,-0.3585,-0.3585,-0.3585,-0.3585,-0.3395,0.0,0.0,0.0,0.0,0.0,0.0,0.0,0.0,0.0,0.0,0.0,0.0,0.0,0.0,0.0,0.0,0.0,0.0,0.0,0.0,0.0,0.0,0.0,0.0,0.0,0.0,0.0,0.0,-0.2056,-0.2056,-0.1942,0.0,0.0,0.0,0.0,0.0,0.0,0.0,0.0,0.0,0.0,-0.1594,-0.1631,-0.1657,0.0,0.0,-0.1662,-0.1658,-0.1617,-0.1597,-0.1479,-0.1296,-0.109,0.0,0.0,0.0,0.0,0.0,0.0,0.0,0.0,0.0,0.0,0.0,0.0,0.0,0.0,0.0,0.0,0.0,0.0,0.0,0.0,0.0,0.0,0.0,0.0,0.0,0.0,0.0,0.0,0.0,0.0,0.0,0.0,0.0,0.0,0.0,0.0,0.0,0.0,0.0,0.0,0.0,0.0,0.0,0.0,0.0,0.0,0.0,0.0,0.0,0.0,0.0,0.0,-0.219,-0.232,-0.3146,-0.3585,-0.3585,-0.3585,-0.3585,-0.3585,-0.3585,-0.343,0.0,0.0,0.0,0.0,0.0,0.0,0.0,0.0,0.0,0.0,0.0,0.0,0.0,0.0,0.0,0.0,0.0,0.0,0.0,0.0,0.0,0.0,0.0,0.0,0.0,0.0,0.0,0.0,-0.2056,-0.1964,-0.1803,0.0,0.0,0.0,0.0,0.0,0.0,0.0,0.0,0.0,0.0,-0.1665,-0.1725,-0.1734,-0.1695,-0.1679,-0.1705,-0.1692,-0.1679,-0.1523,-0.1455,-0.1322,0.0,0.0,0.0,0.0,0.0,0.0,0.0,0.0,0.0,0.0,0.0,0.0,0.0,0.0,0.0,0.0,0.0,0.0,0.0,0.0,0.0,0.0,0.0,0.0,0.0,0.0,0.0,0.0,0.0,0.0,-0.089,0.0,0.0,0.0,0.0,0.0,0.0,0.0,0.0,0.0,0.0,0.0,0.0,0.0,0.0,0.0,0.0,0.0,0.0,0.0,0.0,0.0,0.0,-0.2182,-0.242,-0.3189,-0.3588,-0.3591,-0.3588,-0.3588,-0.3588,-0.3585,-0.3466,-0.3221,0.0,0.0,0.0,0.0,0.0,0.0,0.0,0.0,0.0,0.0,0.0,0.0,0.0,0.0,0.0,0.0,0.0,0.0,0.0,0.0,0.0,0.0,0.0,0.0,0.0,0.0,-0.2108,-0.1942,-0.1806,0.0,0.0,0.0,0.0,0.0,0.0,0.0,0.0,0.0,0.0,-0.1665,-0.1726,-0.1785,-0.1796,-0.1796,-0.1798,-0.1797,-0.1797,-0.1801,-0.1671,-0.1536,0.0,0.0,0.0,0.0,0.0,0.0,0.0,0.0,0.0,0.0,0.0,0.0,0.0,0.0,0.0,0.0,0.0,0.0,0.0,0.0,0.0,0.0,0.0,0.0,0.0,0.0,0.0,-0.1257,-0.1223,0.0,0.0,0.0,0.0,0.0,0.0,0.0,0.0,0.0,0.0,0.0,-0.173,-0.1732,0.0,0.0,0.0,0.0,0.0,0.0,0.0,0.0,0.0,0.0,0.0,0.0,-0.2105,-0.2518,-0.3078,-0.3505,-0.3811,-0.374,-0.3754,-0.3754,-0.3623,-0.3468,-0.3227,0.0,0.0,0.0,0.0,0.0,0.0,0.0,0.0,0.0,0.0,0.0,0.0,0.0,0.0,0.0,0.0,0.0,0.0,0.0,0.0,0.0,0.0,0.0,0.0,0.0,-0.2152,0.0,0.0,0.0,0.0,0.0,0.0,0.0,0.0,0.0,0.0,0.0,-0.1465,-0.1507,-0.1674,-0.1774,-0.1794,-0.1828,-0.1853,0.0,0.0,0.0,0.0,0.0,0.0,0.0,0.0,0.0,0.0,0.0,0.0,0.0,0.0,-0.0953,-0.0807,-0.0733,-0.0729,-0.0721,0.0,0.0,0.0,0.0,0.0,0.0,0.0,0.0,0.0,0.0,0.0,0.0,0.0,0.0,-0.1597,0.0,-0.1449,0.0,0.0,0.0,0.0,0.0,0.0,0.0,0.0,-0.1817,-0.1922,-0.1976,-0.1976,-0.1977,0.0,-0.192,-0.1869,0.0,0.0,0.0,0.0,0.0,0.0,0.0,0.0,-0.2131,-0.267,-0.309,-0.3498,-0.3867,-0.3857,-0.3736,-0.3637,-0.3473,-0.3379,-0.3286,-0.3134,-0.2912,0.0,0.0,0.0,0.0,0.0,0.0,0.0,0.0,0.0,0.0,0.0,0.0,0.0,0.0,0.0,0.0,0.0,0.0,0.0,0.0,0.0,0.0,0.0,-0.2373,0.0,0.0,0.0,0.0,0.0,0.0,0.0,0.0,0.0,-0.1784,-0.1886,-0.197,-0.2009,-0.2154,-0.212,-0.1914,0.0,0.0,0.0,0.0,0.0,0.0,0.0,-0.1565,-0.1459,-0.1258,-0.1074,-0.0984,-0.1039,-0.1082,-0.109,0.0,0.0,-0.0915,-0.0887,-0.0883,-0.0875,-0.0952,-0.0924,-0.0954,-0.0975,-0.0994,0.0,0.0,0.0,0.0,0.0,0.0,0.0,0.0,-0.1875,-0.1884,0.0,-0.1804,0.0,0.0,0.0,0.0,0.0,-0.1775,0.0,0.0,-0.2128,-0.2214,-0.2231,-0.2227,-0.2228,-0.2166,-0.2215,-0.2216,-0.2271,-0.1731,0.0,0.0,0.0,0.0,0.0,0.0,-0.2355,-0.2811,-0.323,-0.3576,-0.3891,-0.388,-0.3701,-0.335,-0.319,-0.3197,-0.3414,-0.34,-0.3243,-0.2903,-0.2421,0.0,0.0,0.0,0.0,0.0,0.0,0.0,0.0,0.0,0.0,0.0,0.0,0.0,0.0,0.0,0.0,0.0,0.0,0.0,0.0,-0.2484,0.0,0.0,0.0,0.0,0.0,0.0,0.0,0.0,0.0,0.0,-0.2994,-0.2747,-0.2811,-0.2928,0.0,0.0,0.0,0.0,-0.1913,-0.1974,-0.2046,-0.1988,-0.1988,-0.1951,-0.1801,-0.156,0.0,0.0,-0.1152,-0.1129,-0.1159,-0.1132,-0.1151,-0.116,-0.1127,-0.1071,-0.1042,-0.1064,-0.1048,-0.1048,-0.1072,-0.108,-0.1085,-0.2246,0.0,0.0,0.0,0.0,-0.2199,-0.2273,-0.2416,-0.2339,-0.2278,-0.2228,-0.2177,0.0,0.0,0.0,0.0,0.0,0.0,-0.2057,-0.2142,-0.2144,-0.2279,-0.2341,-0.2303,-0.2304,-0.2342,-0.232,-0.2259,-0.2234,-0.2063,-0.1901,-0.1803,0.0,0.0,0.0,0.0,-0.2413,-0.2928,-0.3363,-0.3786,-0.4194,-0.411,-0.3904,-0.3643,-0.3374,-0.3313,-0.3536,-0.3309,-0.3118,-0.2998,-0.2952,0.0,0.0,0.0,0.0,0.0,0.0,0.0,0.0,0.0,0.0,0.0,0.0,0.0,0.0,0.0,0.0,0.0,0.0,0.0,-0.2823,-0.2998,-0.3159,0.0,0.0,0.0,0.0,0.0,0.0,0.0,0.0,0.0,-0.4661,-0.3663,-0.2955,0.0,0.0,-0.2214,-0.2091,-0.2124,-0.2097,-0.2158,-0.2203,0.0,0.0,-0.2085,-0.1879,-0.1689,-0.1451,-0.1257,-0.1174,-0.1205,-0.1228,-0.1218,-0.1226,-0.1304,-0.1217,-0.1169,-0.1126,-0.1113,-0.1119,-0.1138,-0.1166,-0.1189,-0.1286,-0.2694,-0.2609,-0.2438,-0.2431,-0.256,-0.2527,-0.2587,-0.2703,-0.262,-0.257,-0.2544,-0.2471,-0.2339,-0.2165,-0.2131,0.0,0.0,0.0,-0.2292,-0.2312,-0.241,-0.2459,-0.2523,-0.2493,-0.2495,-0.2523,-0.2467,-0.241,-0.2349,-0.2326,-0.2231,-0.2047,0.0,0.0,-0.1759,-0.2043,-0.2371,-0.2818,-0.3159,-0.3497,-0.3828,-0.3658,-0.3605,-0.3719,-0.333,-0.3203,-0.3486,-0.321,-0.3046,-0.2875,-0.2875,-0.2766,0.0,0.0,0.0,0.0,0.0,0.0,0.0,0.0,0.0,0.0,0.0,-0.2157,0.0,0.0,0.0,0.0,-0.2657,-0.2935,-0.3456,-0.3659,0.0,0.0,0.0,0.0,0.0,0.0,0.0,-0.4529,-0.48,-0.5227,-0.5852,-0.4935,-0.4151,-0.4151,-0.3783,-0.3405,-0.3232,0.0,-0.3101,-0.2764,-0.3099,-0.3058,-0.2408,-0.254,-0.2479,-0.1944,-0.1673,-0.1459,-0.1384,-0.1402,-0.1414,-0.1336,-0.1336,-0.1336,-0.1336,-0.1236,-0.1211,-0.1183,-0.12,-0.1226,-0.1245,-0.1272,-0.1299,-0.316,-0.3044,-0.2649,-0.2589,-0.2803,-0.2804,-0.2837,-0.2879,-0.277,-0.2781,-0.2867,-0.2704,-0.2624,-0.2605,-0.244,0.0,-0.2444,-0.2499,-0.2552,-0.261,-0.2668,-0.2694,-0.2694,-0.2691,-0.2694,-0.2689,-0.2635,-0.2578,-0.2515,-0.2461,-0.2373,-0.2188,-0.2147,-0.2059,-0.2,-0.2112,-0.234,-0.2673,-0.2804,-0.2973,-0.3303,-0.2962,-0.3039,-0.358,-0.3097,-0.2939,-0.3273,-0.3126,-0.2965,-0.2798,-0.2499,-0.2444,-0.2738,0.0,0.0,0.0,0.0,0.0,0.0,0.0,0.0,0.0,0.0,0.0,0.0,0.0,0.0,0.0,-0.3547,0.0,-0.4061,-0.4333,0.0,0.0,0.0,-0.461,-0.4875,-0.5125,-0.5456,-0.5892,0.0,0.0,-0.6721,-0.6302,-0.6043,-0.6053,-0.5842,-0.5507,-0.4856,-0.4703,-0.4464,-0.3794,-0.431,-0.4242,-0.2948,-0.314,-0.3273,-0.241,-0.2042,-0.1805,-0.157,-0.1571,-0.1493,-0.1342,-0.134,-0.1343,-0.1343,-0.1287,-0.1298,-0.1268,-0.1285,-0.1305,-0.1305,-0.1327,-0.1348,-0.3187,-0.3183,-0.3028,-0.3057,-0.2986,-0.2986,-0.2995,-0.3098,-0.2977,-0.2954,-0.2935,-0.2891,-0.2824,-0.2736,-0.2647,-0.2614,-0.2628,-0.2643,-0.2655,-0.267,-0.2685,-0.2694,-0.2694,-0.2694,-0.2694,-0.2692,-0.2677,-0.2639,-0.258,-0.2565,-0.2496,-0.2382,-0.2349,-0.2283,-0.2184,-0.2466,-0.2844,-0.3254,-0.3559,-0.3818,-0.4155,-0.4127,-0.386,-0.3492,-0.3129,-0.3036,-0.3119,-0.2697,-0.2796,-0.3633,-0.3605,-0.3773,-0.4094,-0.3504,0.0,0.0,0.0,0.0,0.0,0.0,0.0,0.0,0.0,-0.3468,-0.2794,0.0,-0.4057,0.0,-0.4204,-0.4381,-0.4597,-0.4694,0.0,0.0,-0.5474,-0.5612,-0.5819,-0.6153,-0.6418,-0.6489,-0.6729,-0.6944,-0.7082,-0.6988,-0.6916,-0.71,-0.5908,-0.5003,-0.4905,-0.4833,-0.4779,-0.4733,-0.483,-0.4841,-0.4378,-0.3866,-0.3344,-0.2973,-0.2198,-0.1572,-0.1415,-0.1415,-0.1343,-0.1286,-0.1291,-0.1301,-0.132,-0.1333,-0.1335,-0.1328,-0.1333,-0.1337,-0.1337,-0.136,-0.138,-0.323,-0.323,-0.323,-0.3191,-0.3131,-0.3129,-0.3129,-0.3128,-0.3101,-0.307,-0.3038,-0.3011,-0.2962,-0.2899,-0.2867,-0.285,-0.2849,-0.2823,-0.2811,-0.2808,-0.2783,-0.2774,-0.2773,-0.2773,-0.2773,-0.2773,-0.2745,-0.2715,-0.2681,-0.2654,-0.2594,-0.2503,-0.2501,-0.2454,-0.2364,-0.2741,-0.3013,-0.3274,-0.3636,-0.39,-0.4126,-0.4009,-0.3813,-0.3405,-0.3351,-0.3112,-0.2809,-0.2858,-0.3065,-0.3411,-0.3408,-0.3739,-0.4348,-0.3743,-0.3481,0.0,0.0,0.0,0.0,0.0,0.0,0.0,0.0,0.0,0.0,0.0,-0.4743,-0.4689,-0.4869,-0.5092,-0.5271,-0.5429,-0.5644,-0.5941,-0.6205,-0.6367,-0.6445,-0.67,-0.692,-0.692,-0.7078,-0.7228,-0.733,-0.7342,-0.7374,-0.7472,-0.6692,-0.6098,-0.6036,-0.6043,-0.5921,-0.561,-0.5857,-0.5931,-0.5622,-0.4688,-0.3927,-0.3887,-0.3342,-0.2798,-0.2181,-0.2105,-0.1952,-0.1401,-0.1322,-0.1328,-0.1345,-0.1359,-0.1366,-0.1368,-0.1378,-0.1381,-0.1369,-0.139,-0.141,-0.323,-0.323,-0.323,-0.323,-0.323,-0.323,-0.323,-0.3228,-0.3173,-0.3151,-0.3147,-0.3087,-0.3157,-0.3157,-0.3147,-0.3146,-0.314,-0.3087,-0.3061,-0.2966,-0.2912,-0.2884,-0.2886,-0.2877,-0.2875,-0.2872,-0.282,-0.2792,-0.2782,-0.273,-0.2673,-0.2616,-0.2613,-0.2582,-0.252,-0.2871,-0.3099,-0.3163,-0.3526,-0.3666,-0.3653,-0.3579,-0.3413,-0.3299,-0.3526,-0.3315,-0.2655,-0.3404,-0.3587,-0.3042,-0.299,-0.3392,-0.4294,-0.3634,-0.3553,0.0,-0.4125,0.0,0.0,0.0,0.0,0.0,0.0,0.0,0.0,-0.5019,-0.5255,-0.5251,-0.5555,-0.5811,-0.5973,-0.6274,-0.6461,-0.6497,-0.6786,-0.6924,-0.6781,-0.7054,-0.7269,-0.7293,-0.7427,-0.7521,-0.7553,-0.7549,-0.7549,-0.7581,-0.7687,-0.7549,-0.759,-0.7459,-0.7123,-0.6483,-0.7019,-0.7103,-0.6511,-0.5575,-0.4988,-0.5012,-0.472,-0.4347,-0.3421,-0.3266,-0.2857,-0.1857,-0.1607,-0.1524,-0.1358,-0.1467,-0.1569,-0.1397,-0.1503,-0.16,-0.1404,-0.1414,-0.1434,-0.323,-0.323,-0.323,-0.323,-0.323,-0.323,-0.323,-0.3229,-0.3218,-0.3214,-0.3209,-0.3149,-0.3123,-0.3119,-0.3072,-0.3146,-0.3143,-0.3037,-0.3127,-0.3123,-0.297,-0.2943,-0.2939,-0.2895,-0.2875,-0.2873,-0.2862,-0.2831,-0.2783,-0.2773,-0.2734,-0.2676,-0.2676,-0.2643,-0.2585,0.0,0.0,0.0,-0.4169,-0.4211,-0.4059,-0.4038,-0.3756,-0.3236,-0.3851,0.0,-0.3592,-0.3865,-0.4259,-0.4704,-0.4637,0.0,0.0,0.0,0.0,0.0,0.0,0.0,0.0,0.0,0.0,0.0,-0.5498,-0.5478,-0.5193,-0.5735,-0.6164,-0.6172,-0.6355,-0.6493,-0.6538,-0.6599,-0.67,-0.6842,-0.7045,-0.7159,-0.7131,-0.7309,-0.7488,-0.7642,-0.7691,-0.776,-0.7878,-0.791,-0.7906,-0.789,-0.7943,-0.7951,-0.791,-0.7784,-0.7655,-0.7366,-0.7431,-0.7549,-0.7529,-0.6745,-0.6154,-0.6106,-0.5408,-0.4758,-0.4362,-0.4118,-0.3722,-0.2662,-0.2502,-0.2258,-0.1588,-0.2045,-0.2402,-0.1605,-0.2056,-0.2327,-0.1606,-0.1431,-0.1436,-0.323,0.0,-0.323,-0.323,0.0,-0.323,-0.323,-0.323,-0.323,-0.323,-0.3228,-0.3198,-0.3184,-0.3183,-0.3151,-0.3139,-0.3136,-0.3108,-0.3094,-0.3091,-0.3031,-0.3096,-0.3095,-0.3035,-0.2916,-0.2914,-0.2887,-0.2857,-0.283,-0.2828,-0.2797,-0.2737,-0.2737,-0.2707,-0.2647,-0.3055,-0.3572,-0.4075,-0.4304,-0.4361,-0.4308,-0.4412,-0.4206,-0.3716,0.0,0.0,0.0,0.0,0.0,0.0,0.0,0.0,0.0,0.0,0.0,-0.5316,-0.5231,-0.5201,-0.5428,-0.562,-0.586,-0.6124,-0.6314,-0.6298,-0.6026,-0.6339,-0.6583,-0.6676,-0.6765,-0.6851,-0.6948,-0.696,-0.7066,-0.7317,-0.7431,-0.7516,-0.7606,-0.7691,-0.778,-0.7862,-0.7886,-0.7923,-0.8,-0.8012,-0.8012,-0.8016,-0.8097,-0.8117,-0.8028,-0.7943,-0.7845,-0.776,-0.7744,-0.7776,-0.7862,-0.7481,-0.7126,-0.7094,-0.6628,-0.6066,-0.5438,-0.5274,-0.4779,-0.3776,-0.3522,-0.3359,-0.3031,-0.3221,-0.3398,-0.3041,-0.3221,-0.3489,-0.2864,-0.206,-0.1436,-0.323,-0.323,-0.323,-0.323,-0.323,-0.323,-0.323,-0.323,0.0,0.0,0.0,-0.323,-0.323,-0.323,-0.323,-0.323,-0.3228,-0.3179,-0.3155,-0.3153,-0.3093,-0.3065,-0.3063,-0.3096,-0.306,-0.2955,-0.2912,-0.2884,-0.2875,-0.2875,-0.285,-0.2804,-0.2798,-0.2855,-0.288,-0.3199,-0.3463,-0.3818,-0.4106,-0.4247,-0.4304,-0.4533,-0.4435,-0.4108,-0.4425,-0.4125,-0.314,-0.4496,-0.5028,-0.435,-0.4984,-0.5553,-0.5968,-0.5585,-0.5583,-0.6225,-0.6305,-0.6323,-0.6497,-0.6513,-0.6595,-0.6773,-0.692,-0.6936,-0.6781,-0.6773,-0.6846,-0.7105,-0.7146,-0.7159,-0.7305,-0.735,-0.7484,-0.7776,-0.7805,-0.7858,-0.7983,-0.8012,-0.8012,-0.8052,-0.8061,-0.8077,-0.8122,-0.813,-0.8109,-0.8134,-0.8256,-0.8292,-0.8142,-0.8057,-0.7992,-0.7979,-0.7963,-0.8008,-0.8057,-0.7899,-0.7891,-0.7967,-0.7819,-0.7433,-0.6741,-0.6425,-0.5894,-0.4812,-0.4554,-0.4465,-0.4287,-0.4378,-0.4467,-0.4289,-0.4467,-0.4469,-0.42,-0.3041,-0.1972,-0.323,-0.323,-0.323,-0.323,-0.323,-0.323,-0.323,-0.323,-0.323,-0.323,-0.323,-0.323,-0.323,-0.323,-0.323,-0.323,-0.3229,-0.3221,-0.3218,-0.3215,-0.3155,-0.3127,-0.3123,-0.3065,-0.3008,-0.2961,-0.295,-0.2921,-0.2879,-0.2875,-0.2869,-0.2862,-0.2861,-0.3095,-0.3373,-0.3393,-0.3599,-0.407,-0.3587,-0.3519,-0.3843,-0.3906,-0.3853,-0.3759,-0.4686,-0.4989,-0.4637,-0.5583,-0.5984,-0.5834,-0.6375,-0.666,-0.6578,-0.6487,-0.6507,-0.6599,-0.6611,-0.6692,-0.6863,-0.695,-0.6956,-0.7131,-0.7175,-0.7175,-0.7151,-0.7147,-0.7224,-0.7395,-0.7541,-0.7737,-0.7691,-0.7801,-0.7894,-0.7967,-0.7975,-0.7992,-0.8032,-0.8032,-0.8089,-0.8231,-0.8251,-0.8316,-0.8426,-0.8463,-0.8459,-0.8479,-0.8475,-0.8507,-0.8422,-0.8211,-0.8032,-0.8012,-0.8012,-0.8081,-0.8215,-0.8256,-0.8239,-0.8499,-0.8249,-0.8066,-0.7746,-0.7496,-0.6874,-0.598,-0.5716,-0.5272,-0.4645,-0.5003,-0.5092,-0.4645,-0.5001,-0.5184,-0.4556,-0.3933,-0.3487,-0.323,-0.323,-0.323,-0.323,-0.323,-0.323,-0.323,-0.323,-0.323,-0.323,-0.323,-0.323,-0.323,-0.323,-0.323,-0.323,-0.323,-0.323,-0.323,-0.3229,-0.3202,-0.3188,-0.3183,-0.3127,-0.3083,-0.3053,-0.2988,-0.2946,-0.292,-0.289,-0.2875,-0.2875,-0.2875,-0.3126,-0.3536,-0.35,-0.3808,-0.4444,-0.418,-0.4087,-0.4236,-0.447,-0.4499,-0.4397,-0.5035,-0.531,-0.5104,-0.6022,-0.6472,-0.6331,-0.6832,-0.7124,-0.704,-0.6962,-0.6867,-0.6968,-0.6976,-0.7062,-0.7228,-0.7409,-0.7427,-0.7508,-0.7602,-0.765,-0.7655,-0.7565,-0.7586,-0.7752,-0.7854,-0.7898,-0.7898,-0.7967,-0.8057,-0.8158,-0.8162,-0.8203,-0.8292,-0.8316,-0.8345,-0.8426,-0.8442,-0.8475,-0.8556,-0.8572,-0.8572,-0.8572,-0.8572,-0.8572,-0.8572,-0.8426,-0.8312,-0.8316,-0.8312,-0.8349,-0.8426,-0.8438,-0.8479,-0.856,-0.8476,-0.8384,-0.8204,-0.794,-0.7672,-0.7228,-0.6874,-0.652,-0.5983,-0.5808,-0.5716,-0.598,-0.5628,-0.5539,-0.5095,-0.4291,-0.3401,-0.323,-0.323,-0.323,-0.323,-0.323,-0.323,-0.323,-0.323,-0.323,-0.323,-0.323,-0.323,-0.323,-0.323,-0.323,-0.323,-0.323,-0.323,-0.323,-0.323,-0.323,-0.323,-0.3226,-0.3181,-0.3153,-0.3132,-0.3042,-0.2992,-0.2974,-0.2921,-0.2886,-0.2875,-0.2963,-0.332,-0.3765,-0.3853,-0.4267,-0.4986,-0.4986,-0.4878,-0.4668,-0.4902,-0.5103,-0.5176,-0.555,-0.572,-0.5784,-0.6474,-0.6826,-0.6749,-0.7155,-0.7356,-0.736,-0.7215,-0.7155,-0.7322,-0.735,-0.7423,-0.759,-0.7736,-0.7817,-0.7821,-0.7935,-0.8032,-0.8061,-0.7959,-0.791,-0.8,-0.8044,-0.8073,-0.8085,-0.813,-0.8195,-0.8337,-0.8353,-0.8402,-0.854,-0.8572,-0.8572,-0.8572,-0.8572,-0.8564,-0.8572,-0.8572,-0.8572,-0.8572,-0.8572,-0.8572,-0.8572,-0.8572,-0.8572,-0.8572,-0.8572,-0.8556,-0.8572,-0.8564,-0.856,-0.8572,-0.8572,-0.8476,-0.8296,-0.8292,-0.8116,-0.7852,-0.7676,-0.7323,-0.7146,-0.6432,-0.5985,-0.6071,-0.5625,-0.5361,-0.5184,-0.4049,-0.2879,-0.323,-0.323,-0.323,-0.323,-0.323,-0.323,-0.323,-0.323,-0.323,-0.323,-0.323,-0.323,-0.323,-0.323,-0.323,-0.323,-0.323,-0.323,-0.323,-0.323,-0.323,-0.323,-0.323,-0.3224,-0.3192,-0.3146,-0.3124,-0.3086,-0.3133,-0.307,-0.3016,-0.2969,-0.332,-0.3765,-0.421,-0.4652,-0.5095,-0.5628,-0.5617,-0.5328,-0.4703,-0.4689,-0.5015,-0.5744,-0.6144,-0.663,-0.7167,-0.7365,-0.7434,-0.7423,-0.7435,-0.7512,-0.7512,-0.7431,-0.7516,-0.7687,-0.7707,-0.7789,-0.7939,-0.7979,-0.7988,-0.7992,-0.8016,-0.8101,-0.8247,-0.8247,-0.817,-0.8097,-0.8174,-0.826,-0.8276,-0.8402,-0.8487,-0.8507,-0.8524,-0.8552,-0.8572,-0.8572,-0.8572,-0.8572,-0.8609,-0.8572,-0.8593,-0.8593,-0.858,-0.8597,-0.8625,-0.8621,-0.8597,-0.8597,-0.8609,-0.8593,-0.8576,-0.8572,-0.8572,-0.8572,-0.8572,-0.8572,-0.8572,-0.8568,-0.8476,-0.8384,-0.8204,-0.8204,-0.8028,-0.7584,-0.6691,-0.6068,-0.5716,-0.5027,-0.4757,-0.448,-0.4302,-0.3545,-0.2655,-0.323,-0.323,-0.323,-0.323,-0.323,-0.323,-0.323,-0.323,-0.323,-0.323,-0.323,-0.323,-0.323,-0.323,-0.323,-0.323,-0.323,-0.323,-0.323,-0.323,-0.323,-0.323,-0.323,-0.323,-0.3217,-0.3191,-0.3157,-0.3322,-0.357,-0.3755,-0.3866,-0.3833,-0.3969,-0.421,-0.4654,-0.4919,-0.528,-0.5644,-0.5733,-0.5766,-0.5927,-0.5849,-0.5942,-0.6204,-0.694,-0.7596,-0.8004,-0.8106,-0.8235,-0.8388,-0.8083,-0.7965,-0.7965,-0.7881,-0.7829,-0.7902,-0.791,-0.7939,-0.8012,-0.8113,-0.8178,-0.8174,-0.828,-0.8377,-0.8446,-0.8455,-0.8418,-0.8369,-0.8414,-0.8455,-0.8463,-0.8524,-0.8572,-0.8572,-0.8572,-0.8609,-0.871,-0.8714,-0.8755,-0.8857,-0.8877,-0.8828,-0.8743,-0.8718,-0.8714,-0.8735,-0.8796,-0.8832,-0.8743,-0.8714,-0.8767,-0.8828,-0.8714,-0.858,-0.858,-0.8572,-0.8572,-0.8572,-0.8572,-0.8572,-0.8568,-0.8568,-0.8476,-0.848,-0.8232,-0.769,-0.6511,-0.5716,-0.5188,-0.434,-0.3783,-0.3527,-0.3527,-0.2712,-0.1966,-0.323,-0.323,-0.323,-0.323,-0.323,-0.323,-0.323,-0.323,-0.323,-0.323,-0.323,-0.323,-0.323,-0.323,-0.323,-0.323,-0.323,-0.323,-0.323,-0.323,-0.323,-0.323,-0.323,-0.323,-0.323,-0.3224,-0.3285,-0.3646,-0.4105,-0.4199,-0.4404,-0.456,-0.4589,-0.4813,-0.532,-0.5499,-0.5752,-0.6263,-0.6257,-0.652,-0.7027,-0.7118,-0.7093,-0.7158,-0.7907,-0.8409,-0.8739,-0.8783,-0.8839,-0.8917,-0.8465,-0.8185,-0.8185,-0.8094,-0.8032,-0.8089,-0.8138,-0.8162,-0.8166,-0.8292,-0.8365,-0.8381,-0.8532,-0.8637,-0.8645,-0.8682,-0.871,-0.871,-0.8714,-0.8706,-0.8637,-0.8682,-0.8714,-0.8714,-0.8714,-0.8771,-0.8877,-0.8897,-0.8946,-0.9072,-0.906,-0.9051,-0.893,-0.8897,-0.8901,-0.8913,-0.9003,-0.9064,-0.8934,-0.8897,-0.8946,-0.9068,-0.8869,-0.8751,-0.871,-0.8678,-0.8649,-0.8637,-0.8649,-0.8637,-0.8601,-0.8597,-0.8641,-0.8597,-0.8496,-0.7807,-0.6397,-0.5476,-0.4555,-0.3708,-0.3109,-0.2667,-0.2558,-0.1911,-0.1633,-0.323,-0.3233,-0.323,-0.323,-0.323,-0.323,-0.323,-0.323,-0.323,-0.323,-0.323,-0.323,-0.323,-0.323,-0.323,-0.323,-0.323,-0.323,-0.323,-0.323,-0.323,-0.323,-0.323,-0.323,-0.323,-0.323,-0.3725,-0.4185,-0.461,-0.43,-0.4164,-0.4759,-0.5209,-0.5629,-0.609,-0.6621,-0.7188,-0.7517,-0.7588,-0.7661,-0.7834,-0.8177,-0.8424,-0.8661,-0.8856,-0.9018,-0.936,-0.9127,-0.8865,-0.8611,-0.8292,-0.8028,-0.8024,-0.8032,-0.8109,-0.8268,-0.8434,-0.8532,-0.8532,-0.8544,-0.856,-0.8584,-0.8718,-0.8808,-0.882,-0.8942,-0.9019,-0.9056,-0.9043,-0.8991,-0.8873,-0.8938,-0.9023,-0.9031,-0.9051,-0.9056,-0.908,-0.9084,-0.9084,-0.9116,-0.9129,-0.9133,-0.9096,-0.9088,-0.9084,-0.9088,-0.91,-0.9108,-0.9096,-0.9084,-0.9104,-0.9116,-0.9092,-0.9068,-0.906,-0.8917,-0.8824,-0.8812,-0.8804,-0.8771,-0.8706,-0.8678,-0.8755,-0.8836,-0.8826,-0.8047,-0.6406,-0.5101,-0.4062,-0.3139,-0.2294,-0.1826,-0.1936,-0.1753,-0.1566,-0.3323,-0.3285,-0.3247,-0.323,-0.323,-0.323,-0.323,-0.323,-0.323,-0.323,-0.323,-0.323,-0.323,-0.323,-0.323,-0.323,-0.323,-0.323,-0.323,-0.323,-0.323,-0.323,-0.323,-0.323,-0.323,-0.3331,-0.3732,-0.442,-0.528,-0.5321,-0.5565,-0.581,-0.6311,-0.6717,-0.6954,-0.7595,-0.7978,-0.8016,-0.7911,-0.8038,-0.8472,-0.8368,-0.8636,-0.9336,-0.9336,-0.9428,-0.9607,-0.936,-0.9065,-0.8806,-0.857,-0.8369,-0.8369,-0.8365,-0.8394,-0.8463,-0.8532,-0.8613,-0.871,-0.8727,-0.8783,-0.8897,-0.8958,-0.8999,-0.9007,-0.906,-0.9096,-0.9116,-0.921,-0.9214,-0.9173,-0.9129,-0.9096,-0.9096,-0.91,-0.9153,-0.923,-0.9263,-0.9303,-0.9388,-0.9348,-0.9303,-0.9372,-0.934,-0.9267,-0.9271,-0.936,-0.9368,-0.9287,-0.9263,-0.9295,-0.936,-0.9254,-0.9181,-0.9433,-0.9173,-0.9003,-0.8999,-0.8991,-0.8978,-0.8934,-0.893,-0.8995,-0.9003,-0.91,-0.8569,-0.6875,-0.5197,-0.4053,-0.32,-0.2339,-0.1765,-0.1585,-0.1588,-0.1594,-0.339,-0.3347,-0.3307,-0.329,-0.3286,-0.3268,-0.326,-0.3258,-0.3238,-0.323,-0.323,-0.323,-0.323,-0.323,-0.323,-0.323,-0.323,-0.323,-0.323,-0.323,-0.323,-0.323,-0.323,-0.323,-0.323,-0.3331,-0.3731,-0.4636,-0.5729,-0.5965,-0.6323,-0.6706,-0.7199,-0.761,-0.8048,-0.86,-0.8889,-0.8934,-0.8718,-0.8836,-0.9178,-0.8812,-0.8901,-0.9527,-0.962,-0.946,-0.9354,-0.9257,-0.9087,-0.8828,-0.8656,-0.8593,-0.8637,-0.8649,-0.8678,-0.8727,-0.8743,-0.8787,-0.8885,-0.8909,-0.8962,-0.9084,-0.9153,-0.9181,-0.9185,-0.923,-0.9267,-0.9299,-0.936,-0.9441,-0.9421,-0.934,-0.9271,-0.9267,-0.9271,-0.9311,-0.9425,-0.9445,-0.9498,-0.9563,-0.9514,-0.9514,-0.9587,-0.951,-0.9458,-0.9441,-0.9555,-0.9559,-0.9474,-0.9449,-0.9474,-0.9579,-0.9433,-0.9409,-0.9522,-0.9393,-0.9222,-0.9202,-0.9177,-0.9173,-0.9153,-0.9165,-0.9181,-0.919,-0.8922,-0.8475,-0.7267,-0.5569,-0.4422,-0.3654,-0.2879,-0.2295,-0.2007,-0.1612,-0.1612,-0.3416,-0.3412,-0.341,-0.3399,-0.339,-0.3342,-0.3322,-0.3312,-0.3262,-0.324,-0.3243,-0.3233,-0.323,-0.323,-0.323,-0.323,-0.323,-0.323,-0.323,-0.323,-0.323,-0.323,-0.323,-0.323,-0.323,-0.3331,-0.3732,-0.4834,-0.6132,-0.6024,-0.6418,-0.7319,-0.77,-0.8405,-0.9636,-0.9631,-1.0022,-1.0245,-1.0111,-1.0102,-1.0107,-0.9604,-0.9406,-0.9701,-0.9515,-0.9275,-0.8958,-0.8945,-0.8878,-0.8693,-0.8601,-0.8662,-0.88,-0.882,-0.8897,-0.9023,-0.9072,-0.9084,-0.9092,-0.91,-0.9104,-0.9173,-0.9275,-0.936,-0.938,-0.949,-0.9575,-0.9567,-0.9583,-0.9608,-0.9604,-0.9583,-0.9571,-0.9616,-0.9563,-0.9575,-0.96,-0.9616,-0.9624,-0.9624,-0.96,-0.962,-0.9624,-0.9604,-0.9587,-0.9592,-0.9612,-0.962,-0.9587,-0.9579,-0.9612,-0.962,-0.9567,-0.9559,-0.9596,-0.9608,-0.9494,-0.9405,-0.9372,-0.9344,-0.9303,-0.9295,-0.9348,-0.9368,-0.9421,-0.8964,-0.8178,-0.6451,-0.5077,-0.4301,-0.3524,-0.2723,-0.2019,-0.1617,-0.1617,-0.347,-0.3465,-0.3428,-0.3413,-0.341,-0.3391,-0.3384,-0.3376,-0.332,-0.3294,-0.3285,-0.3248,-0.323,-0.323,-0.323,-0.323,-0.323,-0.323,-0.323,-0.323,-0.323,-0.323,-0.323,-0.323,-0.343,-0.3833,-0.4332,-0.5035,-0.5834,-0.6534,-0.7232,-0.773,-0.8726,-0.9395,-0.9926,-1.0409,-1.0803,-1.0726,-1.0513,-1.0355,-1.0222,-0.9749,-0.9469,-0.9461,-0.9283,-0.9128,-0.9029,-0.9204,-0.9113,-0.8926,-0.8934,-0.8958,-0.8999,-0.9011,-0.9039,-0.9084,-0.9096,-0.9161,-0.9259,-0.9279,-0.9332,-0.9433,-0.951,-0.9539,-0.9543,-0.9587,-0.9624,-0.9624,-0.9624,-0.9624,-0.9624,-0.9624,-0.9624,-0.9624,-0.9624,-0.9624,-0.9624,-0.9624,-0.9624,-0.9624,-0.9624,-0.9624,-0.9624,-0.9624,-0.9624,-0.9624,-0.9624,-0.9624,-0.9624,-0.9624,-0.9624,-0.9624,-0.9624,-0.9624,-0.9624,-0.9624,-0.9571,-0.9514,-0.9494,-0.9478,-0.9441,-0.9429,-0.9486,-0.9527,-0.9587,-0.9217,-0.8421,-0.7524,-0.6224,-0.4926,-0.4026,-0.3024,-0.1918,-0.1617,-0.1617,-0.353,-0.3526,-0.3492,-0.3477,-0.3474,-0.3455,-0.3444,-0.3431,-0.3356,-0.332,-0.3308,-0.3258,-0.323,-0.323,-0.323,-0.323,-0.323,-0.323,-0.343,-0.3732,-0.3831,-0.3833,-0.3831,-0.423,-0.4431,-0.4634,-0.4935,-0.5434,-0.6032,-0.693,-0.7726,-0.8623,-0.9521,-1.0216,-1.0413,-1.09,-1.1123,-1.1019,-1.0619,-1.0368,-1.0174,-0.9767,-0.9482,-0.9482,-0.9386,-0.9295,-0.9295,-0.9386,-0.9415,-0.9125,-0.9096,-0.9125,-0.9181,-0.9194,-0.9222,-0.9283,-0.9303,-0.9352,-0.9445,-0.9458,-0.9498,-0.9604,-0.9624,-0.9624,-0.9624,-0.9624,-0.9624,-0.9624,-0.9624,-0.9624,-0.9624,-0.9624,-0.9624,-0.9624,-0.9624,-0.9624,-0.9624,-0.9624,-0.9624,-0.9624,-0.9624,-0.9624,-0.9624,-0.9624,-0.9624,-0.9624,-0.9624,-0.9624,-0.9624,-0.9624,-0.9624,-0.9624,-0.9624,-0.9624,-0.9624,-0.9624,-0.9624,-0.9612,-0.96,-0.9583,-0.9559,-0.9555,-0.9583,-0.9579,-0.962,-0.9521,-0.8829,-0.8528,-0.7528,-0.6226,-0.4728,-0.3726,-0.2823,-0.1818,-0.1617,-0.3587,-0.3587,-0.3586,-0.3579,-0.3571,-0.3523,-0.3501,-0.3482,-0.338,-0.3332,-0.3319,-0.3262,-0.323,-0.323,-0.323,-0.323,-0.323,-0.323,-0.3732,-0.4433,-0.4834,-0.4933,-0.4933,-0.5627,-0.5829,-0.5634,-0.5734,-0.6132,-0.6828,-0.7226,-0.7925,-0.9719,-1.0019,-1.0413,-1.0998,-1.1194,-1.1189,-1.1072,-1.0685,-1.0386,-1.0373,-0.9895,-0.96,-0.9596,-0.9587,-0.9579,-0.9575,-0.9567,-0.9445,-0.9181,-0.9169,-0.9242,-0.934,-0.9368,-0.9441,-0.9571,-0.9612,-0.9596,-0.9616,-0.9596,-0.9608,-0.962,-0.9624,-0.9624,-0.9624,-0.9624,-0.9624,-0.9624,-0.9624,-0.9624,-0.9624,-0.9624,-0.9624,-0.9624,-0.9624,-0.9624,-0.9624,-0.9624,-0.9624,-0.9624,-0.9624,-0.9624,-0.9624,-0.9624,-0.9624,-0.9624,-0.9624,-0.9624,-0.9624,-0.9624,-0.9624,-0.9624,-0.9624,-0.9624,-0.9624,-0.9624,-0.9624,-0.9624,-0.9624,-0.9624,-0.9624,-0.9624,-0.9624,-0.9624,-0.9628,-0.943,-0.9331,-0.8931,-0.8329,-0.7024,-0.5724,-0.4726,-0.3626,-0.2422,-0.1617,-0.3587,-0.3587,-0.3587,-0.3587,-0.3587,-0.3568,-0.3563,-0.3548,-0.3437,-0.3384,-0.3367,-0.3275,-0.323,-0.323,-0.323,-0.323,-0.323,-0.323,-0.3831,-0.4832,-0.5629,-0.5924,-0.6027,-0.6224,-0.6423,-0.6326,-0.6728,-0.7232,-0.7531,-0.8425,-0.932,-1.0019,-1.0609,-1.09,-1.1194,-1.0998,-1.09,-1.09,-1.0605,-1.0314,-1.0117,-1.0023,-0.9821,-0.9628,-0.9628,-0.9624,-0.9624,-0.9624,-0.96,-0.951,-0.949,-0.9502,-0.9539,-0.9543,-0.9567,-0.9612,-0.9624,-0.9624,-0.9624,-0.9624,-0.9624,-0.9624,-0.9624,-0.9624,-0.9624,-0.9624,-0.9624,-0.9624,-0.9624,-0.9624,-0.9624,-0.9624,-0.9624,-0.9624,-0.9624,-0.9624,-0.9624,-0.9624,-0.9624,-0.9624,-0.9624,-0.9624,-0.9624,-0.9624,-0.9624,-0.9624,-0.9624,-0.9624,-0.9624,-0.9624,-0.9624,-0.9624,-0.9624,-0.9624,-0.9624,-0.9624,-0.9624,-0.9624,-0.9624,-0.9624,-0.9624,-0.9624,-0.9624,-0.9624,-0.9624,-0.9529,-0.943,-0.9232,-0.8326,-0.7624,-0.6226,-0.4926,-0.3725,-0.2621,-0.1818,-0.3587,-0.3587,-0.3587,-0.3587,-0.3587,-0.3587,-0.3587,-0.3564,-0.3465,-0.3413,-0.3386,-0.3283,-0.3232,-0.323,-0.323,-0.323,-0.323,-0.3632,-0.4431,-0.5629,-0.7027,-0.7723,-0.7723,-0.7723,-0.7621,-0.7319,-0.772,-0.8021,-0.8418,-0.9312,-0.9908,-1.0507,-1.0998,-1.1194,-1.1194,-1.1096,-1.0998,-1.09,-1.0703,-1.0511,-1.0314,-1.0216,-1.0122,-0.9924,-0.9826,-0.9723,-0.9628,-0.9624,-0.9624,-0.9624,-0.9624,-0.9624,-0.9624,-0.9624,-0.9624,-0.9624,-0.9624,-0.9624,-0.9624,-0.9624,-0.9624,-0.9624,-0.9624,-0.9624,-0.9624,-0.9624,-0.9624,-0.9624,-0.9624,-0.9624,-0.9624,-0.9624,-0.9624,-0.9624,-0.9624,-0.9624,-0.9624,-0.9624,-0.9624,-0.9624,-0.9624,-0.9624,-0.9624,-0.9624,-0.9624,-0.9624,-0.9624,-0.9624,-0.9624,-0.9624,-0.9624,-0.9624,-0.9624,-0.9624,-0.9624,-0.9624,-0.9624,-0.9624,-0.9624,-0.9624,-0.9624,-0.9624,-0.9624,-0.9624,-0.9624,-0.9628,-0.9529,-0.943,-0.9027,-0.8021,-0.6426,-0.5127,-0.4024,-0.2621,-0.1918,-0.3587,-0.3587,-0.3587,-0.3587,-0.3587,-0.3587,-0.3587,-0.3565,-0.3463,-0.3413,-0.3386,-0.3283,-0.3233,-0.323,-0.323,-0.3232,-0.3432,-0.4232,-0.5432,-0.6825,-0.8322,-0.9324,-0.9225,-0.9225,-0.892,-0.8616,-0.8612,-0.8909,-0.9304,-0.9497,-1.0096,-1.0895,-1.1194,-1.1194,-1.1194,-1.1194,-1.1198,-1.1002,-1.0801,-1.0708,-1.0609,-1.0413,-1.0314,-1.0314,-1.0122,-0.992,-0.9727,-0.9628,-0.9628,-0.9628,-0.9628,-0.9624,-0.9624,-0.9624,-0.9624,-0.9624,-0.9624,-0.9624,-0.9624,-0.9624,-0.9624,-0.9624,-0.9624,-0.9624,-0.9624,-0.9624,-0.9624,-0.9624,-0.9624,-0.9624,-0.9624,-0.9624,-0.9624,-0.9624,-0.9624,-0.9624,-0.9624,-0.9624,-0.9624,-0.9624,-0.9624,-0.9624,-0.9624,-0.9624,-0.9624,-0.9624,-0.9624,-0.9624,-0.9624,-0.9624,-0.9624,-0.9624,-0.9624,-0.9624,-0.9624,-0.9624,-0.9624,-0.9624,-0.9624,-0.9624,-0.9624,-0.9624,-0.9624,-0.9624,-0.9624,-0.9529,-0.943,-0.9331,-0.9126,-0.8124,-0.6426,-0.5525,-0.4524,-0.2722,-0.1617,-0.3587,-0.3587,-0.3587,-0.3587,-0.3587,-0.3587,-0.3586,-0.3575,-0.3462,-0.3512,-0.3384,-0.3283,-0.3334,-0.3331,-0.343,-0.3632,-0.4433,-0.4933,-0.5829,-0.7723,-0.8924,-0.9525,-0.9624,-0.9624,-0.9624,-0.9616,-0.9813,-1.0109,-1.04,-1.0596,-1.089,-1.1096,-1.1194,-1.1194,-1.1194,-1.1002,-1.0904,-1.0801,-1.0605,-1.0507,-1.0609,-1.0511,-1.0413,-1.0408,-1.0314,-1.0216,-1.0019,-0.9924,-0.9924,-0.9826,-0.9723,-0.9624,-0.9624,-0.9628,-0.9624,-0.9624,-0.9624,-0.9624,-0.9624,-0.9624,-0.9624,-0.9624,-0.9624,-0.9624,-0.9624,-0.9624,-0.9624,-0.9624,-0.9624,-0.9624,-0.9624,-0.9624,-0.9624,-0.9624,-0.9624,-0.9624,-0.9624,-0.9624,-0.9624,-0.9624,-0.9624,-0.9624,-0.9624,-0.9624,-0.9624,-0.9624,-0.9624,-0.9624,-0.9624,-0.9624,-0.9624,-0.9624,-0.9624,-0.9624,-0.9624,-0.9624,-0.9624,-0.9624,-0.9624,-0.9624,-0.9624,-0.9624,-0.9624,-0.9624,-0.9624,-0.9529,-0.943,-0.9232,-0.913,-0.7726,-0.6423,-0.5325,-0.4024,-0.2521,-0.1617,-0.3587,-0.3587,-0.3587,-0.3587,-0.3583,-0.3557,-0.3544,-0.363,-0.3948,-0.4098,-0.4179,-0.448,-0.4732,-0.473,-0.4728,-0.5131,-0.5532,-0.6129,-0.7126,-0.8623,-0.9422,-0.9624,-0.9624,-0.9624,-0.9821,-1.0122,-1.0314,-1.0605,-1.09,-1.1096,-1.1096,-1.1194,-1.1194,-1.1194,-1.1194,-1.11,-1.1002,-1.0998,-1.09,-1.0801,-1.0801,-1.0801,-1.0708,-1.0605,-1.0609,-1.0511,-1.0216,-1.0216,-1.0212,-1.0117,-1.0019,-0.9924,-0.9826,-0.9628,-0.9624,-0.9624,-0.9624,-0.9624,-0.9624,-0.9624,-0.9624,-0.9624,-0.9624,-0.9624,-0.9624,-0.9624,-0.9624,-0.9624,-0.9624,-0.9624,-0.9624,-0.9624,-0.9624,-0.9624,-0.9624,-0.9624,-0.9624,-0.9624,-0.9624,-0.9624,-0.9624,-0.9624,-0.9624,-0.9624,-0.9624,-0.9624,-0.9624,-0.9624,-0.9624,-0.9624,-0.9624,-0.9624,-0.9624,-0.9624,-0.9624,-0.9624,-0.9624,-0.9624,-0.9624,-0.9624,-0.9624,-0.9624,-0.9624,-0.9624,-0.9624,-0.9628,-0.943,-0.9232,-0.8733,-0.7524,-0.6224,-0.4924,-0.3624,-0.2422,-0.1717,-0.3587,-0.3587,-0.3587,-0.3582,-0.3565,-0.3519,-0.3602,-0.3895,-0.4512,-0.487,-0.525,-0.6073,-0.6124,-0.6321,-0.6221,-0.642,-0.6921,-0.7723,-0.8726,-0.9324,-0.9525,-0.9624,-0.9624,-0.9624,-0.9826,-1.0314,-1.0413,-1.0708,-1.0998,-1.1194,-1.1194,-1.1194,-1.1194,-1.1194,-1.1194,-1.1194,-1.1194,-1.1194,-1.1096,-1.1096,-1.1096,-1.1096,-1.0998,-1.0904,-1.0904,-1.0708,-1.0511,-1.0413,-1.0511,-1.0507,-1.0413,-1.0314,-1.0117,-0.9821,-0.9628,-0.9628,-0.9624,-0.9624,-0.9624,-0.9624,-0.9624,-0.9624,-0.9624,-0.9624,-0.9624,-0.9624,-0.9624,-0.9624,-0.9624,-0.9624,-0.9624,-0.9624,-0.9624,-0.9624,-0.9624,-0.9624,-0.9624,-0.9624,-0.9624,-0.9624,-0.9624,-0.9624,-0.9624,-0.9624,-0.9624,-0.9624,-0.9624,-0.9624,-0.9624,-0.9624,-0.9624,-0.9624,-0.9624,-0.9624,-0.9624,-0.9624,-0.9624,-0.9624,-0.9624,-0.9624,-0.9624,-0.9624,-0.9624,-0.9624,-0.9628,-0.9529,-0.943,-0.9331,-0.8528,-0.7325,-0.6024,-0.4726,-0.3425,-0.2321,-0.1918,-0.3587,-0.3587,-0.3587,-0.3557,-0.3514,-0.3499,-0.4,-0.4684,-0.5,-0.5473,-0.6172,-0.6377,-0.662,-0.652,-0.642,-0.6921,-0.7822,-0.8722,-0.9327,-0.9624,-0.9624,-0.9624,-0.9624,-0.9624,-0.9826,-1.0019,-1.0314,-1.0609,-1.09,-1.1096,-1.1194,-1.1194,-1.1194,-1.1194,-1.1194,-1.1194,-1.1194,-1.1194,-1.1194,-1.1194,-1.1194,-1.1194,-1.1194,-1.11,-1.1096,-1.0998,-1.0801,-1.0708,-1.0708,-1.0703,-1.0511,-1.0511,-1.0511,-1.0216,-0.992,-0.9628,-0.9624,-0.9624,-0.9624,-0.9624,-0.9624,-0.9624,-0.9624,-0.9624,-0.9624,-0.9624,-0.9624,-0.9624,-0.9624,-0.9624,-0.9624,-0.9624,-0.9624,-0.9624,-0.9624,-0.9624,-0.9624,-0.9624,-0.9624,-0.9624,-0.9624,-0.9624,-0.9624,-0.9624,-0.9624,-0.9624,-0.9624,-0.9624,-0.9624,-0.9624,-0.9624,-0.9624,-0.9624,-0.9624,-0.9624,-0.9624,-0.9624,-0.9624,-0.9624,-0.9624,-0.9624,-0.9624,-0.9624,-0.9624,-0.9529,-0.9529,-0.943,-0.9331,-0.8226,-0.7024,-0.5727,-0.4529,-0.3425,-0.232,-0.1918,-0.357,-0.354,-0.354,-0.3832,-0.4201,-0.4262,-0.4857,-0.5744,-0.6259,-0.6813,-0.7302,-0.7753,-0.8021,-0.8024,-0.8021,-0.8421,-0.8825,-0.9324,-0.9624,-0.9624,-0.9624,-0.9624,-0.9624,-0.9624,-0.9624,-0.9821,-1.0019,-1.0413,-1.0806,-1.1096,-1.1194,-1.1194,-1.1194,-1.1194,-1.1194,-1.1194,-1.1194,-1.1194,-1.1194,-1.1194,-1.1194,-1.1194,-1.1194,-1.1194,-1.1194,-1.1096,-1.1096,-1.0998,-1.1002,-1.1002,-1.0904,-1.0801,-1.0703,-1.0609,-1.0212,-0.992,-0.9723,-0.9624,-0.9624,-0.9624,-0.9624,-0.9624,-0.9624,-0.9624,-0.9624,-0.9624,-0.9624,-0.9624,-0.9624,-0.9624,-0.9624,-0.9624,-0.9624,-0.9624,-0.9624,-0.9624,-0.9624,-0.9624,-0.9624,-0.9624,-0.9624,-0.9624,-0.9624,-0.9624,-0.9624,-0.9624,-0.9624,-0.9624,-0.9624,-0.9624,-0.9624,-0.9624,-0.9624,-0.9624,-0.9624,-0.9624,-0.9624,-0.9624,-0.9624,-0.9624,-0.9624,-0.9624,-0.9624,-0.9624,-0.9529,-0.9529,-0.943,-0.9331,-0.8024,-0.6924,-0.6326,-0.5427,-0.3725,-0.252,-0.2119,-0.3859,-0.382,-0.4024,-0.4618,-0.517,-0.5201,-0.577,-0.6856,-0.7578,-0.8031,-0.8425,-0.9126,-0.9525,-0.9525,-0.9525,-0.9525,-0.9624,-0.9624,-0.9624,-0.9624,-0.9624,-0.9624,-0.9624,-0.9624,-0.9624,-0.9624,-0.992,-1.0216,-1.0605,-1.0998,-1.11,-1.1194,-1.1194,-1.1194,-1.1194,-1.1194,-1.1194,-1.1194,-1.1194,-1.1194,-1.1194,-1.1194,-1.1194,-1.1194,-1.1194,-1.1194,-1.1194,-1.1194,-1.1194,-1.1194,-1.1096,-1.1096,-1.09,-1.0801,-1.0605,-1.0113,-0.9821,-0.9723,-0.9624,-0.9624,-0.9624,-0.9624,-0.9624,-0.9624,-0.9624,-0.9624,-0.9624,-0.9624,-0.9624,-0.9624,-0.9624,-0.9624,-0.9624,-0.9624,-0.9624,-0.9624,-0.9624,-0.9624,-0.9624,-0.9624,-0.9624,-0.9624,-0.9624,-0.9624,-0.9624,-0.9624,-0.9624,-0.9624,-0.9624,-0.9624,-0.9624,-0.9624,-0.9624,-0.9624,-0.9624,-0.9624,-0.9624,-0.9624,-0.9624,-0.9624,-0.9624,-0.9624,-0.9624,-0.9525,-0.9624,-0.9529,-0.9529,-0.9331,-0.8425,-0.7624,-0.7226,-0.6024,-0.4022,-0.3021,-0.2621,-0.4847,-0.5009,-0.5892,-0.6317,-0.6321,-0.6295,-0.6946,-0.7759,-0.8035,-0.8627,-0.9324,-0.9525,-0.9624,-0.9624,-0.9624,-0.9624,-0.9624,-0.9624,-0.9624,-0.9624,-0.9624,-0.9624,-0.9624,-0.9624,-0.9624,-0.9624,-0.9821,-1.0117,-1.0511,-1.0806,-1.1002,-1.1194,-1.1194,-1.1194,-1.1194,-1.1194,-1.1194,-1.1194,-1.1194,-1.1194,-1.1194,-1.1194,-1.1194,-1.1194,-1.1194,-1.1194,-1.1194,-1.1194,-1.1194,-1.1194,-1.1194,-1.1194,-1.1096,-1.0904,-1.0703,-1.0408,-1.0117,-0.9821,-0.9628,-0.9624,-0.9624,-0.9624,-0.9624,-0.9624,-0.9624,-0.9624,-0.9624,-0.9624,-0.9624,-0.9624,-0.9624,-0.9624,-0.9624,-0.9624,-0.9624,-0.9624,-0.9624,-0.9624,-0.9624,-0.9624,-0.9624,-0.9624,-0.9624,-0.9624,-0.9624,-0.9624,-0.9624,-0.9624,-0.9624,-0.9624,-0.9624,-0.9624,-0.9624,-0.9624,-0.9624,-0.9624,-0.9624,-0.9624,-0.9426,-0.9426,-0.9225,-0.9225,-0.9426,-0.9426,-0.9525,-0.9624,-0.9529,-0.9327,-0.8821,-0.8322,-0.7822,-0.6121,-0.4121,-0.3521,-0.3222,-0.6342,-0.5915,-0.6388,-0.6819,-0.7318,-0.7311,-0.7982,-0.8733,-0.8924,-0.9126,-0.9525,-0.9624,-0.9624,-0.9624,-0.9624,-0.9624,-0.9624,-0.9624,-0.9624,-0.9624,-0.9624,-0.9624,-0.9624,-0.9624,-0.9624,-0.9624,-0.9723,-1.0019,-1.0314,-1.0609,-1.09,-1.1194,-1.1194,-1.1194,-1.1194,-1.1194,-1.1194,-1.1194,-1.1194,-1.1194,-1.1194,-1.1194,-1.1194,-1.1194,-1.1194,-1.1194,-1.1194,-1.1194,-1.1194,-1.1194,-1.1194,-1.1194,-1.1194,-1.1096,-1.09,-1.0413,-1.0314,-1.0023,-0.9727,-0.9628,-0.9624,-0.9624,-0.9624,-0.9624,-0.9624,-0.9624,-0.9624,-0.9624,-0.9624,-0.9624,-0.9624,-0.9624,-0.9624,-0.9624,-0.9624,-0.9624,-0.9624,-0.9624,-0.9624,-0.9624,-0.9624,-0.9624,-0.9624,-0.9624,-0.9624,-0.9624,-0.9624,-0.9624,-0.9624,-0.9624,-0.9624,-0.9624,-0.9624,-0.9624,-0.9624,-0.9624,-0.9624,-0.9525,-0.8825,-0.8726,-0.8623,-0.8623,-0.9027,-0.9225,-0.9225,-0.9422,-0.9525,-0.9426,-0.9126,-0.8825,-0.8421,-0.662,-0.4922,-0.4221,-0.3623,-0.7985,-0.7271,-0.7274,-0.772,-0.8428,-0.8425,-0.8829,-0.9525,-0.9525,-0.9628,-0.9624,-0.9624,-0.9624,-0.9624,-0.9624,-0.9624,-0.9624,-0.9624,-0.9624,-0.9624,-0.9624,-0.9624,-0.9624,-0.9624,-0.9624,-0.9624,-0.9624,-0.992,-1.0216,-1.0605,-1.0801,-1.1194,-1.1194,-1.1194,-1.1194,-1.1194,-1.1194,-1.1194,-1.1194,-1.1194,-1.1194,-1.1194,-1.1194,-1.1194,-1.1194,-1.1194,-1.1194,-1.1194,-1.1194,-1.1194,-1.1194,-1.1194,-1.1194,-1.1194,-1.1002,-1.0609,-1.0511,-1.0216,-0.9924,-0.9628,-0.9628,-0.9624,-0.9624,-0.9624,-0.9624,-0.9624,-0.9624,-0.9624,-0.9624,-0.9624,-0.9624,-0.9624,-0.9624,-0.9624,-0.9624,-0.9624,-0.9624,-0.9624,-0.9624,-0.9624,-0.9624,-0.9624,-0.9624,-0.9624,-0.9624,-0.9624,-0.9624,-0.9624,-0.9624,-0.9624,-0.9624,-0.9624,-0.9624,-0.9624,-0.9624,-0.9624,-0.9624,-0.9324,-0.8623,-0.8425,-0.8524,-0.8623,-0.8924,-0.9027,-0.9023,-0.9324,-0.9624,-0.9628,-0.9529,-0.913,-0.8528,-0.7329,-0.6027,-0.5125,-0.3823,-0.943,-0.9347,-0.9347,-0.9339,-0.9426,-0.9525,-0.9525,-0.9624,-0.9624,-0.9624,-0.9624,-0.9624,-0.9624,-0.9624,-0.9624,-0.9624,-0.9624,-0.9624,-0.9624,-0.9624,-0.9624,-0.9624,-0.9624,-0.9624,-0.9624,-0.9624,-0.9628,-0.9723,-1.0015,-1.0408,-1.0703,-1.1096,-1.1194,-1.1194,-1.1194,-1.1194,-1.1194,-1.1194,-1.1194,-1.1194,-1.1194,-1.1194,-1.1194,-1.1194,-1.1194,-1.1194,-1.1194,-1.1194,-1.1194,-1.1194,-1.1194,-1.1194,-1.1194,-1.1194,-1.0998,-1.0801,-1.0609,-1.0413,-1.0023,-0.9727,-0.9628,-0.9624,-0.9624,-0.9624,-0.9624,-0.9624,-0.9624,-0.9624,-0.9624,-0.9624,-0.9624,-0.9624,-0.9624,-0.9624,-0.9624,-0.9624,-0.9624,-0.9624,-0.9624,-0.9624,-0.9624,-0.9624,-0.9624,-0.9624,-0.9624,-0.9624,-0.9624,-0.9624,-0.9624,-0.9624,-0.9624,-0.9624,-0.9624,-0.9624,-0.9624,-0.9624,-0.9525,-0.9122,-0.852,-0.8623,-0.8924,-0.8928,-0.8028,-0.8924,-0.9023,-0.9324,-0.9525,-0.9327,-0.913,-0.9232,-0.8535,-0.6927,-0.5327,-0.3825,-0.2822,-0.9624,-0.9624,-0.9624,-0.9624,-0.9624,-0.9624,-0.9624,-0.9624,-0.9624,-0.9624,-0.9624,-0.9624,-0.9624,-0.9624,-0.9624,-0.9624,-0.9624,-0.9624,-0.9628,-0.9624,-0.9624,-0.9624,-0.9624,-0.9624,-0.9624,-0.9624,-0.9628,-0.9821,-1.0212,-1.0408,-1.0703,-1.0998,-1.1194,-1.1194,-1.1194,-1.1194,-1.1194,-1.1194,-1.1194,-1.1194,-1.1194,-1.1194,-1.1194,-1.1194,-1.1194,-1.1194,-1.1194,-1.1194,-1.1194,-1.1194,-1.1194,-1.1194,-1.1194,-1.1194,-1.1096,-1.0801,-1.0708,-1.0413,-1.0117,-0.992,-0.9821,-0.9624,-0.9624,-0.9624,-0.9624,-0.9624,-0.9624,-0.9624,-0.9624,-0.9624,-0.9624,-0.9624,-0.9624,-0.9624,-0.9624,-0.9624,-0.9624,-0.9624,-0.9624,-0.9624,-0.9624,-0.9624,-0.9624,-0.9624,-0.9624,-0.9624,-0.9624,-0.9624,-0.9624,-0.9624,-0.9624,-0.9624,-0.9624,-0.9624,-0.9624,-0.9525,-0.9324,-0.8821,-0.8322,-0.8322,-0.8226,-0.6731,-0.6331,-0.7528,-0.8821,-0.8924,-0.8924,-0.8825,-0.8627,-0.8428,-0.7428,-0.5927,-0.4325,-0.2823,-0.212,-0.9624,-0.9624,-0.9624,-0.9624,-0.9624,-0.9624,-0.9624,-0.9624,-0.9624,-0.9624,-0.9624,-0.9624,-0.9624,-0.9628,-0.9723,-0.9723,-0.9821,-0.9821,-0.9826,-0.9727,-0.9723,-0.9723,-0.9628,-0.9624,-0.9624,-0.9628,-0.9723,-0.9916,-1.0216,-1.0408,-1.0703,-1.0998,-1.1198,-1.1194,-1.1194,-1.1194,-1.1194,-1.1194,-1.1194,-1.1194,-1.1194,-1.1194,-1.1194,-1.1194,-1.1194,-1.1194,-1.1194,-1.1194,-1.1194,-1.1194,-1.1194,-1.1194,-1.1194,-1.1194,-1.1096,-1.09,-1.0703,-1.0408,-1.0117,-0.992,-0.9821,-0.9624,-0.9624,-0.9624,-0.9624,-0.9624,-0.9624,-0.9624,-0.9624,-0.9624,-0.9624,-0.9624,-0.9624,-0.9624,-0.9624,-0.9624,-0.9624,-0.9624,-0.9624,-0.9624,-0.9624,-0.9624,-0.9624,-0.9624,-0.9624,-0.9624,-0.9624,-0.9624,-0.9624,-0.9624,-0.9624,-0.9624,-0.9624,-0.9624,-0.9624,-0.9126,-0.8722,-0.8322,-0.7822,-0.7422,-0.6924,-0.5532,-0.5632,-0.7425,-0.8421,-0.8425,-0.8425,-0.8425,-0.8024,-0.7524,-0.6226,-0.4828,-0.4128,-0.2724,-0.212,-0.9628,-0.9624,-0.9628,-0.9628,-0.9624,-0.9624,-0.9628,-0.9727,-0.9727,-0.9628,-0.9624,-0.9624,-0.9628,-0.9727,-0.992,-1.0019,-1.0019,-1.0216,-1.0216,-1.0023,-0.992,-0.9826,-0.9727,-0.9624,-0.9624,-0.9628,-0.9821,-0.992,-1.0117,-1.0507,-1.0801,-1.09,-1.1096,-1.1194,-1.1194,-1.1194,-1.1194,-1.1194,-1.1194,-1.1194,-1.1194,-1.1194,-1.1194,-1.1194,-1.1194,-1.1194,-1.1194,-1.1194,-1.1194,-1.1194,-1.1194,-1.1194,-1.1194,-1.1194,-1.1194,-1.11,-1.0806,-1.0609,-1.0314,-0.992,-0.9624,-0.9624,-0.9624,-0.9624,-0.9624,-0.9624,-0.9624,-0.9624,-0.9624,-0.9624,-0.9624,-0.9624,-0.9624,-0.9624,-0.9624,-0.9624,-0.9624,-0.9624,-0.9624,-0.9624,-0.9624,-0.9624,-0.9624,-0.9624,-0.9624,-0.9624,-0.9624,-0.9525,-0.9426,-0.9327,-0.9225,-0.9624,-0.9624,-0.9327,-0.9126,-0.8524,-0.8024,-0.7723,-0.7226,-0.6725,-0.6423,-0.5727,-0.6326,-0.7624,-0.7624,-0.7325,-0.7723,-0.8021,-0.7325,-0.6625,-0.5031,-0.383,-0.3228,-0.2826,-0.2121,-1.0117,-1.0117,-1.0117,-1.0117,-1.0117,-0.992,-0.9924,-1.0117,-1.0117,-1.0019,-0.992,-1.0019,-1.0019,-1.0019,-1.0117,-1.0216,-1.0314,-1.0314,-1.0216,-1.0023,-1.0019,-0.9821,-0.9723,-0.9628,-0.9624,-0.9624,-0.9821,-1.0117,-1.0314,-1.0703,-1.09,-1.1096,-1.1096,-1.1194,-1.1194,-1.1194,-1.1194,-1.1194,-1.1194,-1.1194,-1.1194,-1.1194,-1.1194,-1.1194,-1.1194,-1.1194,-1.1194,-1.1194,-1.1194,-1.1194,-1.1194,-1.1194,-1.1194,-1.1194,-1.1096,-1.1002,-1.0708,-1.0314,-1.0019,-0.9628,-0.9624,-0.9624,-0.9624,-0.9624,-0.9624,-0.9624,-0.9624,-0.9624,-0.9624,-0.9624,-0.9624,-0.9624,-0.9624,-0.9624,-0.9624,-0.9624,-0.9624,-0.9624,-0.9624,-0.9624,-0.9624,-0.9624,-0.9624,-0.9525,-0.9525,-0.9126,-0.9023,-0.8924,-0.8825,-0.8722,-0.8623,-0.9324,-0.9525,-0.9126,-0.8627,-0.7925,-0.7624,-0.7322,-0.6625,-0.5829,-0.5629,-0.5627,-0.5827,-0.6526,-0.6326,-0.6229,-0.6924,-0.7422,-0.6526,-0.5529,-0.413,-0.3228,-0.2925,-0.2624,-0.2122,-1.0413,-1.0413,-1.0413,-1.0413,-1.0511,-1.0216,-1.0216,-1.0413,-1.0413,-1.0314,-1.0212,-1.0314,-1.0314,-1.0216,-1.0413,-1.0507,-1.0511,-1.0609,-1.0511,-1.0314,-1.0212,-1.0019,-0.9826,-0.9727,-0.9821,-0.9821,-1.0117,-1.0413,-1.0507,-1.0806,-1.0998,-1.1194,-1.1194,-1.1194,-1.1194,-1.1194,-1.1194,-1.1194,-1.1194,-1.1194,-1.1194,-1.1194,-1.1194,-1.1194,-1.1194,-1.1194,-1.1194,-1.1194,-1.1194,-1.1194,-1.1194,-1.1194,-1.1194,-1.1194,-1.1096,-1.09,-1.0609,-1.0117,-0.9727,-0.9628,-0.9624,-0.9624,-0.9624,-0.9624,-0.9624,-0.9624,-0.9624,-0.9624,-0.9624,-0.9624,-0.9624,-0.9624,-0.9624,-0.9624,-0.9624,-0.9624,-0.9624,-0.9624,-0.9624,-0.9624,-0.9624,-0.9624,-0.9624,-0.9525,-0.9426,-0.8924,-0.8421,-0.8421,-0.8322,-0.8124,-0.8124,-0.8825,-0.9225,-0.8924,-0.8127,-0.7229,-0.7027,-0.6921,-0.6126,-0.5031,-0.5229,-0.5227,-0.5327,-0.5329,-0.5429,-0.5729,-0.6625,-0.6825,-0.6126,-0.5029,-0.3729,-0.3027,-0.2623,-0.2423,-0.2223,-1.0413,-1.0413,-1.0413,-1.0609,-1.0708,-1.0605,-1.0413,-1.0413,-1.0413,-1.0413,-1.0413,-1.0413,-1.0511,-1.0511,-1.0708,-1.0806,-1.0806,-1.1002,-1.0904,-1.0708,-1.0507,-1.0216,-1.0117,-1.0019,-1.0019,-1.0216,-1.0413,-1.0609,-1.0801,-1.0998,-1.1194,-1.1194,-1.1194,-1.1194,-1.1194,-1.1194,-1.1194,-1.1194,-1.1194,-1.1194,-1.1194,-1.1194,-1.1194,-1.1194,-1.1194,-1.1194,-1.1194,-1.1194,-1.1194,-1.1194,-1.1194,-1.1194,-1.1194,-1.1194,-1.1194,-1.0998,-1.0605,-1.0019,-0.9727,-0.9624,-0.9624,-0.9624,-0.9624,-0.9624,-0.9624,-0.9624,-0.9624,-0.9624,-0.9624,-0.9624,-0.9624,-0.9624,-0.9624,-0.9624,-0.9624,-0.9624,-0.9624,-0.9624,-0.9624,-0.9624,-0.9624,-0.9624,-0.9624,-0.9525,-0.9426,-0.8924,-0.8623,-0.8726,-0.8524,-0.7822,-0.7922,-0.8326,-0.8623,-0.8623,-0.7826,-0.6927,-0.6828,-0.6921,-0.5329,-0.4431,-0.463,-0.4828,-0.4529,-0.4431,-0.4732,-0.5231,-0.5929,-0.6126,-0.5827,-0.473,-0.363,-0.3128,-0.2826,-0.2725,-0.2625,-1.0806,-1.0998,-1.1002,-1.1002,-1.11,-1.0998,-1.1002,-1.1002,-1.0998,-1.09,-1.0703,-1.09,-1.0806,-1.0703,-1.0998,-1.1096,-1.1096,-1.11,-1.0998,-1.0801,-1.0703,-1.0511,-1.0413,-1.031,-1.0314,-1.0413,-1.0609,-1.0806,-1.0904,-1.1096,-1.1194,-1.1194,-1.1194,-1.1194,-1.1194,-1.1194,-1.1194,-1.1194,-1.1194,-1.1194,-1.1194,-1.1194,-1.1194,-1.1194,-1.1194,-1.1194,-1.1194,-1.1194,-1.1194,-1.1194,-1.1194,-1.1194,-1.1194,-1.1194,-1.11,-1.0609,-1.0117,-0.9723,-0.9624,-0.9624,-0.9624,-0.9624,-0.9624,-0.9624,-0.9624,-0.9624,-0.9624,-0.9624,-0.9624,-0.9624,-0.9624,-0.9624,-0.9624,-0.9624,-0.9624,-0.9624,-0.9624,-0.9624,-0.9624,-0.9624,-0.9624,-0.9624,-0.9624,-0.9624,-0.9426,-0.9027,-0.8825,-0.8924,-0.8726,-0.7922,-0.7922,-0.8326,-0.8223,-0.8223,-0.7822,-0.7027,-0.6924,-0.6625,-0.5031,-0.4031,-0.4431,-0.4431,-0.3732,-0.3732,-0.4332,-0.4734,-0.5133,-0.5231,-0.5331,-0.4832,-0.3831,-0.343,-0.3029,-0.2928,-0.2826,-1.0998,-1.1194,-1.1194,-1.1194,-1.1194,-1.1194,-1.1194,-1.1194,-1.1194,-1.11,-1.0998,-1.0998,-1.1002,-1.1002,-1.1002,-1.1096,-1.1194,-1.1194,-1.1096,-1.0998,-1.09,-1.0703,-1.0605,-1.0507,-1.0507,-1.0605,-1.0801,-1.1002,-1.1002,-1.1096,-1.1194,-1.1194,-1.1194,-1.1194,-1.1194,-1.1194,-1.1194,-1.1194,-1.1194,-1.1194,-1.1194,-1.1194,-1.1194,-1.1194,-1.1194,-1.1194,-1.1194,-1.1194,-1.1194,-1.1194,-1.1194,-1.1194,-1.1194,-1.1194,-1.1002,-1.0609,-1.0413,-1.0019,-0.992,-0.9826,-0.9727,-0.9723,-0.9628,-0.9723,-0.9723,-0.9723,-0.9624,-0.9624,-0.9624,-0.9624,-0.9624,-0.9624,-0.9624,-0.9624,-0.9624,-0.9624,-0.9624,-0.9624,-0.9624,-0.9624,-0.9624,-0.9624,-0.9624,-0.9624,-0.9529,-0.9327,-0.9027,-0.8825,-0.8623,-0.8021,-0.8223,-0.8726,-0.8322,-0.7922,-0.7422,-0.6825,-0.6526,-0.6027,-0.483,-0.4131,-0.4433,-0.4133,-0.3531,-0.3632,-0.4133,-0.4332,-0.4433,-0.4734,-0.4834,-0.4234,-0.3831,-0.343,-0.313,-0.313,-0.2928,-1.09,-1.1194,-1.1194,-1.1194,-1.1194,-1.1194,-1.1194,-1.1194,-1.1194,-1.1194,-1.1194,-1.09,-1.0998,-1.1002,-1.1002,-1.1002,-1.1096,-1.1194,-1.1194,-1.1194,-1.0998,-1.09,-1.0801,-1.0801,-1.0801,-1.09,-1.0998,-1.11,-1.1194,-1.1194,-1.1194,-1.1194,-1.1194,-1.1194,-1.1194,-1.1194,-1.1194,-1.1194,-1.1194,-1.1194,-1.1194,-1.1194,-1.1194,-1.1194,-1.1194,-1.1194,-1.1194,-1.1194,-1.1194,-1.1194,-1.1194,-1.1194,-1.1194,-1.1096,-1.1002,-1.0806,-1.0609,-1.0413,-1.0117,-1.0023,-1.0023,-0.9924,-0.9826,-0.9727,-0.9723,-0.9723,-0.9624,-0.9624,-0.9624,-0.9624,-0.9624,-0.9624,-0.9624,-0.9624,-0.9624,-0.9624,-0.9624,-0.9624,-0.9624,-0.9624,-0.9624,-0.9624,-0.9624,-0.9624,-0.9624,-0.9529,-0.9426,-0.9122,-0.8722,-0.8223,-0.7922,-0.8524,-0.7922,-0.7322,-0.6825,-0.6326,-0.5927,-0.5229,-0.4331,-0.3932,-0.4033,-0.3732,-0.323,-0.3533,-0.3833,-0.3731,-0.3831,-0.4033,-0.4133,-0.3732,-0.3432,-0.3331,-0.313,-0.313,-0.3029,-1.0998,-1.1194,-1.1194,-1.1194,-1.1194,-1.1194,-1.1194,-1.1194,-1.1194,-1.1194,-1.1194,-1.1096,-1.0998,-1.0904,-1.1002,-1.1002,-1.0998,-1.11,-1.1194,-1.1194,-1.1096,-1.0998,-1.1096,-1.1096,-1.1096,-1.1096,-1.1194,-1.1194,-1.1194,-1.1194,-1.1194,-1.1194,-1.1194,-1.1194,-1.1194,-1.1194,-1.1194,-1.1194,-1.1194,-1.1194,-1.1194,-1.1194,-1.1194,-1.1194,-1.1194,-1.1194,-1.1194,-1.1194,-1.1194,-1.1194,-1.1194,-1.1194,-1.1194,-1.0998,-1.09,-1.0801,-1.0609,-1.0511,-1.0314,-1.0216,-1.0216,-1.0019,-0.992,-0.9826,-0.9727,-0.9628,-0.9624,-0.9624,-0.9624,-0.9624,-0.9624,-0.9624,-0.9624,-0.9624,-0.9624,-0.9624,-0.9624,-0.9624,-0.9624,-0.9624,-0.9624,-0.9624,-0.9624,-0.9624,-0.9624,-0.9628,-0.9628,-0.9426,-0.9327,-0.8825,-0.7223,-0.7325,-0.7024,-0.6526,-0.6126,-0.5829,-0.5429,-0.5031,-0.4332,-0.4033,-0.3732,-0.3432,-0.323,-0.323,-0.3331,-0.333,-0.343,-0.3432,-0.3331,-0.323,-0.323,-0.323,-0.313,-0.3029,-0.2927,-1.1002,-1.1194,-1.1194,-1.1194,-1.1194,-1.1194,-1.1194,-1.1194,-1.1194,-1.1194,-1.1194,-1.1096,-1.1002,-1.09,-1.0998,-1.1096,-1.0998,-1.11,-1.1194,-1.1194,-1.1194,-1.1194,-1.1194,-1.1194,-1.1194,-1.1194,-1.1194,-1.1194,-1.1194,-1.1194,-1.1194,-1.1194,-1.1194,-1.1194,-1.1194,-1.1194,-1.1194,-1.1194,-1.1194,-1.1194,-1.1194,-1.1194,-1.1194,-1.1194,-1.1194,-1.1194,-1.1194,-1.1194,-1.1194,-1.1194,-1.1194,-1.1096,-1.0998,-1.09,-1.0806,-1.0806,-1.0708,-1.0511,-1.0413,-1.0413,-1.0314,-1.0117,-0.9821,-0.9727,-0.9821,-0.9723,-0.9624,-0.9624,-0.9624,-0.9624,-0.9624,-0.9624,-0.9624,-0.9624,-0.9624,-0.9624,-0.9624,-0.9624,-0.9624,-0.9624,-0.9624,-0.9624,-0.9624,-0.9624,-0.9624,-0.9624,-0.9624,-0.9624,-0.9529,-0.9327,-0.7726,-0.6625,-0.6526,-0.5927,-0.5331,-0.5131,-0.5033,-0.4634,-0.4234,-0.3833,-0.3432,-0.3331,-0.323,-0.323,-0.323,-0.323,-0.323,-0.323,-0.323,-0.323,-0.323,-0.323,-0.3029,-0.2927,-0.2725,-1.0998,-1.1194,-1.1194,-1.1194,-1.1194,-1.1194,-1.1194,-1.1194,-1.1194,-1.1194,-1.1194,-1.1002,-1.0998,-1.0998,-1.0998,-1.0998,-1.1096,-1.1194,-1.1194,-1.1194,-1.1194,-1.1194,-1.1194,-1.1194,-1.1194,-1.1194,-1.1194,-1.1194,-1.1194,-1.1194,-1.1194,-1.1194,-1.1194,-1.1194,-1.1194,-1.1194,-1.1194,-1.1194,-1.1194,-1.1194,-1.1194,-1.1194,-1.1194,-1.1194,-1.1194,-1.1194,-1.1194,-1.1194,-1.1194,-1.1194,-1.1096,-1.0998,-1.0904,-1.0708,-1.0703,-1.0708,-1.0708,-1.0511,-1.0413,-1.0413,-1.0216,-1.0019,-0.9723,-0.9727,-0.9826,-0.9821,-0.9624,-0.9624,-0.9624,-0.9624,-0.9624,-0.9624,-0.9624,-0.9624,-0.9624,-0.9624,-0.9624,-0.9624,-0.9624,-0.9624,-0.9624,-0.9624,-0.9624,-0.9624,-0.9624,-0.9624,-0.9624,-0.9624,-0.9525,-0.9225,-0.8326,-0.7322,-0.6921,-0.6126,-0.4832,-0.4433,-0.4332,-0.4033,-0.3632,-0.3432,-0.323,-0.323,-0.323,-0.323,-0.323,-0.323,-0.323,-0.323,-0.323,-0.323,-0.323,-0.313,-0.2928,-0.2826,-0.2522,-1.1194,-1.1194,-1.1194,-1.1194,-1.1194,-1.1194,-1.1194,-1.1194,-1.1194,-1.1194,-1.1194,-1.11,-1.11,-1.0904,-1.1096,-1.1096,-1.0998,-1.1096,-1.1194,-1.1194,-1.1194,-1.1194,-1.1194,-1.1194,-1.1194,-1.1194,-1.1194,-1.1194,-1.1194,-1.1194,-1.1194,-1.1194,-1.1194,-1.1194,-1.1194,-1.1194,-1.1194,-1.1194,-1.1194,-1.1194,-1.1194,-1.1194,-1.1194,-1.1194,-1.1194,-1.1194,-1.1194,-1.1194,-1.1194,-1.1096,-1.1002,-1.0904,-1.0708,-1.0609,-1.0511,-1.0511,-1.0511,-1.0413,-1.0314,-1.0314,-1.0216,-1.0019,-0.9826,-0.9727,-0.9826,-0.9723,-0.9624,-0.9624,-0.9624,-0.9624,-0.9624,-0.9624,-0.9624,-0.9624,-0.9624,-0.9624,-0.9624,-0.9624,-0.9624,-0.9624,-0.9624,-0.9624,-0.9624,-0.9624,-0.9624,-0.9624,-0.9624,-0.9628,-0.9628,-0.9225,-0.8726,-0.8021,-0.722,-0.5527,-0.393,-0.3732,-0.3632,-0.3331,-0.323,-0.323,-0.323,-0.323,-0.323,-0.323,-0.323,-0.323,-0.323,-0.323,-0.323,-0.323,-0.323,-0.313,-0.2927,-0.2624,-0.2322]},{"header":{"parameterUnit":"m.s-1","parameterCategory":1,"la1":31.0,"la2":29.5877,"lo1":-88.7671,"lo2":-86.6584,"dy":0.0162,"dx":0.0185,"nx":115,"ny":88,"refTime":"2025-07-07T12:00:00:Z","depth":0,"parameterNumber":3,"parameterNumberName":"V-component_of_WINDS"},"data":[0.0,0.0,0.0,0.0,0.0,0.0,0.0,0.0,0.0,0.0,0.0,0.0,0.0,0.0,0.0,0.0,0.0,0.0,0.0,0.0,0.0,0.0,0.0,0.0,0.0,0.0,0.0,0.0,0.0,0.0,0.0,0.0,0.0,0.0,0.0,0.0,0.0,0.0,0.0,0.0,0.0,0.0,0.0,0.0,0.0,0.0,0.0,0.0,0.0,0.0,0.0,0.0,0.0,0.0,0.0,0.0,0.0,0.0,0.0,0.0,0.0,0.0,0.0,0.0,0.0,0.0,0.0,0.0,0.0,0.0,0.0,0.0,0.0,0.0,0.0,0.0,0.0,0.0,0.0,0.0,0.0,0.0,0.0,0.0,0.0,0.0,0.0,0.0,0.0,0.0,0.0,0.0,0.0,0.0,0.0,0.0,0.0,0.0,0.0,0.0,0.0,0.0,0.0,0.0,0.0,0.0,0.0,0.0,0.0,0.0,0.0,0.0,0.0,0.0,0.0,0.0,0.0,0.0,0.0,0.0,0.0,0.0,0.0,0.0,0.0,0.0,0.0,0.0,0.0,0.0,0.0,0.0,0.0,0.0,0.0,0.0,0.0,0.0,0.0,0.0,0.0,0.0,0.0,0.0,0.0,0.0,0.0,0.0,0.0,0.0,0.0,0.0,0.0,0.0,0.0,0.0,0.0,0.0,0.0,0.0,0.0,0.0,0.0,0.0,0.0,0.0,0.0,0.0,0.0,0.0,0.0,0.0,0.0,0.0,0.0,0.0,0.0,0.0,0.0,0.0,0.0,0.0,0.0,0.0,0.0,0.0,0.0,0.0,0.0,0.0,0.0,0.0,0.0,0.0,0.0,0.0,0.0,0.0,0.0,0.0,0.0,0.0,0.0,0.0,0.0,0.0,0.0,0.0,0.0,0.0,0.0,0.0,0.0,0.0,0.0,0.0,0.0,0.0,0.0,0.0,0.0,0.0,0.0,0.0,0.0,0.0,0.0,0.0,0.0,0.0,0.0,0.0,0.0,0.0,0.0,0.0,0.0,0.0,0.0,0.0,0.0,0.0,0.0,0.0,0.0,0.0,0.0,0.0,0.0,0.0,0.0,0.0,0.0,0.0,0.0,0.0,0.0,0.0,0.0,0.0,0.0,0.0,0.0,0.0,0.0,0.0,0.0,0.0,0.0,0.0,0.0,0.0,0.0,0.0,0.0,0.0,0.0,0.0,0.0,0.0,0.0,0.0,0.0,0.0,0.0,0.0,0.0,0.0,0.0,0.0,0.0,0.0,0.0,0.0,0.0,0.0,0.0,0.0,0.0,0.0,0.0,0.0,0.0,0.0,0.0,0.0,0.0,0.0,0.0,0.0,0.0,0.0,0.0,0.0,0.0,0.0,0.0,0.0,0.0,0.0,0.0,0.0,0.0,0.0,0.0,0.0,0.0,0.0,0.0,0.0,0.0,0.0,0.0,0.0,0.0,0.0,0.0,0.0,0.0,0.0,0.0,0.0,0.0,0.0,0.0,0.0,0.0,0.0,0.0,0.0,0.0,0.0,0.0,0.0,0.0,0.0,0.0,0.0,0.0,0.0,0.0,0.0,0.0,0.0,0.0,0.0,0.0,0.0,0.0,0.0,0.0,0.0,0.0,0.0,0.0,0.0,0.0,0.0,0.0,0.0,0.0,0.0,0.0,0.0,0.0,0.0,0.0,0.0,0.0,0.0,0.0,0.0,0.0,0.0,0.0,0.0,0.0,0.0,0.0,0.0,0.0,0.0,0.0,0.0,0.0,0.0,0.0,0.0,0.0,0.0,0.0,0.0,0.0,0.0,0.0,0.0,0.0,0.0,0.0,0.0,0.0,0.0,0.0,0.0,0.0,0.0,0.0,0.0,0.0,0.0,0.0,0.0,0.0,0.0,0.0,0.0,0.0,0.0,0.0,0.0,0.0,0.0,0.0,0.0,0.0,0.0,0.0,0.0,0.0,0.0,0.0,0.0,0.0,0.0,0.0,0.0,0.0,0.0,0.0,0.0,0.0,0.0,0.0,0.0,0.0,0.0,0.0,0.0,0.0,0.0,0.0,0.0,0.0,0.0,0.0,0.0,0.0,0.0,0.0,0.0,0.0,0.0,0.0,0.0,0.0,0.0,0.0,0.0,0.0,0.0,0.0,0.0,0.0,0.0,0.0,0.0,0.0,0.0,0.0,0.0,0.0,0.0,0.0,0.0,0.0,0.0,0.0,0.0,0.0,0.0,0.0,0.0,0.0,0.0,0.0,0.0,0.0,0.0,0.0,0.0,0.0,0.0,0.0,0.0,0.0,0.0,0.0,0.0,0.0,0.0,0.0,0.0,0.0,0.0,0.0,0.0,0.0,0.0,0.0,0.0,0.0,0.0,0.0,0.0,0.0,0.0,0.0,0.0,0.0,0.0,0.0,0.0,0.0,0.0,0.0,0.0,0.0,0.0,0.0,0.0,0.0,0.0,0.0,0.0,0.0,0.0,0.0,0.0,0.0,0.0,0.0,0.0,0.0,0.0,0.0,0.0,0.0,0.0,0.0,0.0,0.0,0.0,0.0,0.0,0.0,0.0,0.0,0.0,0.0,0.0,0.0,0.0,0.0,0.0,0.0,0.0,0.0,0.0,0.0,0.0,0.0,0.0,0.0,0.0,0.0,0.0,0.0,0.0,0.0,0.0,0.0,0.0,0.0,0.0,0.0,0.0,0.0,0.0,0.0,0.0,0.0,0.0,0.0,0.0,0.0,0.0,0.0,0.0,0.0,0.0,0.0,0.0,0.0,0.0,0.0,0.0,0.0,0.0,0.0,0.0,0.0,0.0,0.0,0.0,0.0,0.0,0.0,0.0,0.0,0.0,0.0,0.0,0.0,0.0,0.0,0.0,0.0,0.0,0.0,0.0,0.0,0.0,0.0,0.0,0.0,0.0,0.0,0.0,0.0,0.0,0.0,0.0,0.0,0.0,0.0,0.0,0.0,0.0,0.0,0.0,0.0,0.0,0.0,0.0,0.0,0.0,0.0,0.0,0.0,0.0,0.0,0.0,0.0,0.0,0.0,0.0,0.0,0.0,0.0,0.0,0.0,0.0,0.0,0.0,0.0,0.0,0.0,0.0,0.0,0.0,0.0,0.0,0.0,0.0,0.0,0.0,0.0,0.0,0.0,0.0,0.0,0.0,0.0,0.0,0.0,0.0,0.0,0.0,0.0,0.0,0.0,0.0,0.0,0.0,0.0,0.0,0.0,0.0,0.0,0.0,0.0,0.0,0.0,0.0,0.0,0.0,0.0,0.0,0.0,0.0,0.0,0.0,0.0,0.0,0.0,0.0,0.0,0.0,0.0,0.0,0.0,0.0,0.0,0.0,0.0,0.0,0.0,0.0,0.0,0.0,0.0,0.0,0.0,0.0,0.0,0.0,0.0,0.0,0.0,0.0,0.0,0.0,0.0,0.0,0.0,0.0,0.0,0.0,0.0,0.0,0.0,0.0,0.0,0.0,0.0,0.0,0.0,0.0,0.0,0.0,0.0,0.0,0.0,0.0,0.0,0.0,0.0,0.0,0.0,0.0,0.0,0.0,0.0,0.0,0.0,0.0,0.0,0.0,0.0,0.0,0.0,0.0,0.0,0.0,0.0,0.0,0.0,0.0,0.0,0.0,0.0,0.0,0.0,0.0,0.0,0.0,0.0,0.0,0.0,0.0,0.0,0.0,0.0,0.0,0.0,0.0,0.0,0.0,0.0,0.0,0.0,0.0,0.0,0.0,0.0,0.0,0.0,0.0,0.0,0.0,0.0,0.0,0.0,0.0,0.0,0.0,0.0,0.0,0.0,0.0,0.0,0.0,0.0,0.0,0.0,0.0,0.0,0.0,0.0,0.0,0.0,0.0,0.0,0.0,0.0,0.0,0.0,0.0,0.0,0.0,0.0,0.0,0.0,0.0,0.0,0.0,0.0,0.0,0.0,0.0,0.0,0.0,0.0,0.0,0.0,0.0,0.0,0.0,0.0,0.0,0.0,0.0,0.0,0.0,0.0,0.0,0.0,0.0,0.0,0.0,0.0,0.0,0.0,0.0,0.0,0.0,0.0,0.0,0.0,0.0,0.0,0.0,0.0,0.0,0.0,0.0,0.0,0.0,0.0,0.0,0.0,0.0,0.0,0.0,0.0,0.0,0.0,0.0,0.0,0.0,0.0,0.0,0.0,0.0,0.0,0.0,0.0,0.0,0.0,0.0,0.0,0.0,0.0,0.0,0.0,0.0,-0.9394,0.0,0.0,0.0,0.0,0.0,0.0,0.0,0.0,0.0,0.0,0.0,0.0,0.0,0.0,0.0,0.0,0.0,0.0,0.0,0.0,0.0,0.0,0.0,0.0,0.0,0.0,0.0,0.0,0.0,0.0,0.0,0.0,0.0,0.0,0.0,0.0,0.0,0.0,0.0,0.0,0.0,0.0,0.0,0.0,0.0,0.0,0.0,0.0,0.0,0.0,0.0,0.0,0.0,0.0,0.0,0.0,0.0,0.0,0.0,0.0,0.0,0.0,0.0,0.0,0.0,0.0,0.0,0.0,0.0,0.0,0.0,0.0,0.0,0.0,0.0,0.0,0.0,0.0,0.0,0.0,0.0,0.0,0.0,0.0,0.0,0.0,0.0,0.0,0.0,0.0,0.0,0.0,0.0,0.0,0.0,0.0,0.0,0.0,0.0,0.0,0.0,0.0,0.0,0.0,0.0,0.0,0.0,0.0,0.0,0.0,-0.9394,-0.9394,-0.9394,-0.9394,-0.9394,0.0,0.0,0.0,0.0,0.0,0.0,0.0,0.0,0.0,0.0,0.0,0.0,0.0,0.0,0.0,0.0,0.0,0.0,0.0,0.0,0.0,0.0,0.0,0.0,0.0,0.0,0.0,0.0,0.0,0.0,0.0,0.0,0.0,0.0,0.0,0.0,0.0,0.0,0.0,0.0,0.0,0.0,0.0,0.0,0.0,0.0,0.0,0.0,0.0,0.0,0.0,0.0,0.0,0.0,0.0,0.0,0.0,0.0,0.0,0.0,0.0,0.0,0.0,0.0,0.0,0.0,0.0,0.0,0.0,0.0,0.0,0.0,0.0,0.0,0.0,0.0,0.0,0.0,0.0,0.0,0.0,0.0,0.0,0.0,0.0,0.0,0.0,0.0,0.0,0.0,0.0,0.0,0.0,0.0,0.0,0.0,0.0,0.0,0.0,0.0,0.0,0.0,0.0,0.0,0.0,0.0,0.0,0.0,0.0,0.0,0.0,0.0,-0.9911,-0.993,-0.9959,0.0,0.0,0.0,0.0,0.0,0.0,0.0,0.0,0.0,0.0,0.0,0.0,0.0,0.0,0.0,0.0,0.0,0.0,0.0,0.0,0.0,0.0,0.0,0.0,0.0,0.0,0.0,0.0,0.0,0.0,0.0,0.0,0.0,0.0,0.0,0.0,0.0,0.0,0.0,0.0,0.0,0.0,0.0,0.0,0.0,0.0,0.0,0.0,0.0,0.0,0.0,0.0,0.0,0.0,0.0,0.0,0.0,0.0,0.0,0.0,0.0,0.0,0.0,0.0,0.0,0.0,0.0,0.0,0.0,0.0,0.0,0.0,0.0,0.0,0.0,0.0,0.0,0.0,0.0,0.0,0.0,0.0,0.0,0.0,0.0,0.0,0.0,0.0,0.0,0.0,0.0,0.0,0.0,0.0,0.0,0.0,0.0,0.0,0.0,0.0,0.0,0.0,0.0,0.0,0.0,0.0,0.0,0.0,0.0,0.0,-1.0063,-1.1437,-1.1473,0.0,-1.167,0.0,0.0,0.0,0.0,0.0,0.0,0.0,0.0,0.0,0.0,0.0,0.0,0.0,0.0,0.0,0.0,0.0,0.0,0.0,0.0,0.0,0.0,0.0,0.0,0.0,0.0,0.0,0.0,0.0,0.0,0.0,0.0,0.0,0.0,0.0,0.0,0.0,0.0,0.0,0.0,0.0,0.0,0.0,0.0,0.0,0.0,0.0,0.0,0.0,0.0,0.0,0.0,0.0,0.0,0.0,0.0,0.0,0.0,0.0,0.0,0.0,0.0,0.0,0.0,0.0,0.0,0.0,0.0,0.0,0.0,0.0,0.0,0.0,0.0,0.0,0.0,0.0,0.0,0.0,0.0,0.0,0.0,0.0,0.0,0.0,0.0,0.0,0.0,0.0,0.0,0.0,0.0,0.0,0.0,0.0,0.0,0.0,0.0,0.0,0.0,0.0,0.0,0.0,0.0,0.0,0.0,0.0,0.0,0.0,0.0,0.0,-1.1983,-1.2001,-1.2021,0.0,0.0,0.0,0.0,0.0,0.0,0.0,0.0,0.0,0.0,0.0,0.0,0.0,0.0,0.0,0.0,0.0,0.0,0.0,0.0,0.0,0.0,0.0,0.0,0.0,0.0,0.0,0.0,0.0,0.0,0.0,0.0,0.0,0.0,0.0,0.0,0.0,0.0,0.0,0.0,0.0,0.0,0.0,0.0,0.0,0.0,0.0,0.0,0.0,0.0,0.0,0.0,0.0,0.0,0.0,0.0,0.0,0.0,0.0,0.0,0.0,0.0,0.0,0.0,0.0,0.0,0.0,0.0,0.0,0.0,0.0,0.0,0.0,0.0,0.0,0.0,0.0,0.0,0.0,0.0,0.0,0.0,0.0,0.0,0.0,0.0,0.0,0.0,0.0,0.0,0.0,0.0,0.0,0.0,0.0,0.0,0.0,0.0,0.0,0.0,0.0,0.0,0.0,0.0,0.0,0.0,0.0,0.0,0.0,0.0,-1.1719,0.0,-1.2799,-1.2873,-1.2659,-1.2231,0.0,0.0,0.0,0.0,0.0,0.0,0.0,0.0,0.0,0.0,0.0,0.0,0.0,0.0,0.0,0.0,0.0,0.0,0.0,0.0,0.0,0.0,0.0,0.0,0.0,0.0,0.0,0.0,0.0,0.0,0.0,0.0,0.0,0.0,0.0,0.0,0.0,0.0,0.0,0.0,0.0,0.0,0.0,0.0,0.0,0.0,0.0,0.0,0.0,0.0,0.0,0.0,0.0,0.0,0.0,0.0,0.0,0.0,0.0,0.0,0.0,0.0,0.0,0.0,0.0,0.0,0.0,0.0,0.0,0.0,0.0,0.0,0.0,0.0,0.0,0.0,0.0,0.0,0.0,0.0,0.0,0.0,0.0,0.0,0.0,0.0,0.0,0.0,0.0,0.0,0.0,0.0,0.0,0.0,0.0,0.0,0.0,0.0,0.0,0.0,0.0,0.0,0.0,0.0,0.0,0.0,0.0,0.0,0.0,-1.2956,-1.291,-1.4341,-1.4509,-1.3831,0.0,0.0,0.0,0.0,0.0,0.0,0.0,0.0,0.0,0.0,0.0,0.0,0.0,0.0,0.0,0.0,0.0,0.0,0.0,0.0,0.0,0.0,0.0,0.0,0.0,0.0,0.0,0.0,0.0,0.0,0.0,0.0,0.0,0.0,0.0,0.0,0.0,0.0,0.0,0.0,0.0,0.0,0.0,0.0,0.0,0.0,0.0,0.0,0.0,0.0,0.0,0.0,0.0,0.0,0.0,0.0,0.0,0.0,0.0,0.0,0.0,0.0,0.0,0.0,0.0,0.0,0.0,0.0,0.0,0.0,0.0,0.0,0.0,0.0,0.0,0.0,0.0,0.0,0.0,0.0,0.0,0.0,0.0,0.0,0.0,0.0,0.0,0.0,0.0,0.0,0.0,0.0,0.0,0.0,0.0,0.0,0.0,0.0,0.0,0.0,0.0,0.0,0.0,0.0,0.0,0.0,0.0,0.0,0.0,-1.165,-1.2139,-1.363,-1.6026,-1.4344,-1.3511,0.0,0.0,0.0,0.0,0.0,0.0,0.0,0.0,0.0,0.0,0.0,0.0,0.0,0.0,0.0,0.0,0.0,0.0,0.0,0.0,0.0,0.0,0.0,0.0,0.0,0.0,0.0,0.0,0.0,0.0,0.0,0.0,0.0,0.0,0.0,0.0,0.0,0.0,0.0,0.0,0.0,0.0,0.0,0.0,0.0,0.0,0.0,0.0,0.0,0.0,0.0,0.0,0.0,0.0,0.0,0.0,0.0,0.0,0.0,0.0,0.0,0.0,0.0,0.0,0.0,0.0,0.0,0.0,0.0,0.0,0.0,0.0,0.0,0.0,0.0,0.0,0.0,0.0,0.0,0.0,0.0,0.0,0.0,0.0,0.0,0.0,0.0,0.0,0.0,0.0,0.0,0.0,0.0,0.0,0.0,0.0,0.0,0.0,0.0,0.0,0.0,0.0,0.0,0.0,0.0,0.0,0.0,0.0,0.0,-1.1617,0.0,-1.49,0.0,-1.4438,-1.333,0.0,0.0,0.0,0.0,0.0,0.0,0.0,0.0,0.0,0.0,0.0,0.0,0.0,0.0,0.0,0.0,0.0,0.0,0.0,0.0,0.0,0.0,0.0,0.0,0.0,0.0,0.0,0.0,0.0,0.0,0.0,0.0,0.0,0.0,0.0,0.0,0.0,0.0,0.0,0.0,0.0,0.0,0.0,0.0,0.0,0.0,0.0,0.0,0.0,0.0,0.0,0.0,0.0,0.0,0.0,0.0,0.0,0.0,0.0,0.0,0.0,0.0,0.0,0.0,0.0,0.0,0.0,0.0,0.0,0.0,0.0,0.0,0.0,0.0,0.0,0.0,0.0,0.0,0.0,0.0,0.0,0.0,0.0,0.0,0.0,0.0,0.0,0.0,0.0,0.0,0.0,0.0,0.0,0.0,0.0,0.0,0.0,0.0,0.0,0.0,0.0,0.0,0.0,0.0,0.0,0.0,0.0,0.0,-1.1661,-1.479,-1.645,-1.6516,-1.5131,-1.4923,-1.3387,0.0,0.0,0.0,0.0,0.0,0.0,0.0,0.0,0.0,0.0,0.0,0.0,0.0,0.0,0.0,0.0,0.0,0.0,0.0,0.0,0.0,0.0,0.0,0.0,0.0,0.0,0.0,0.0,0.0,0.0,0.0,0.0,0.0,0.0,0.0,0.0,0.0,0.0,0.0,0.0,0.0,0.0,0.0,0.0,0.0,0.0,0.0,0.0,0.0,0.0,0.0,0.0,0.0,0.0,0.0,0.0,0.0,0.0,0.0,0.0,0.0,0.0,0.0,0.0,0.0,0.0,0.0,0.0,0.0,0.0,0.0,0.0,0.0,0.0,0.0,0.0,0.0,0.0,0.0,0.0,0.0,0.0,0.0,0.0,0.0,0.0,0.0,0.0,0.0,0.0,0.0,0.0,0.0,0.0,0.0,0.0,0.0,0.0,0.0,0.0,0.0,0.0,0.0,0.0,0.0,0.0,0.0,0.0,0.0,-1.3292,-1.4327,-1.5748,-1.7359,-1.4175,-1.2963,0.0,0.0,0.0,0.0,0.0,0.0,0.0,0.0,0.0,0.0,0.0,0.0,0.0,0.0,0.0,0.0,0.0,0.0,0.0,0.0,0.0,0.0,0.0,0.0,0.0,0.0,0.0,0.0,0.0,0.0,0.0,0.0,0.0,0.0,0.0,0.0,0.0,0.0,0.0,0.0,0.0,0.0,0.0,0.0,0.0,0.0,0.0,0.0,0.0,0.0,0.0,0.0,0.0,0.0,0.0,0.0,0.0,0.0,0.0,0.0,0.0,0.0,0.0,0.0,0.0,0.0,0.0,0.0,0.0,0.0,0.0,0.0,0.0,0.0,0.0,0.0,0.0,0.0,0.0,0.0,0.0,0.0,0.0,0.0,0.0,0.0,0.0,0.0,0.0,0.0,0.0,0.0,0.0,0.0,0.0,0.0,0.0,0.0,0.0,0.0,0.0,0.0,0.0,0.0,0.0,0.0,0.0,0.0,0.0,-1.4453,-1.5757,-1.7189,-1.8676,-1.535,-1.3948,-1.4714,0.0,0.0,0.0,0.0,0.0,0.0,0.0,0.0,0.0,0.0,0.0,0.0,0.0,0.0,0.0,0.0,0.0,0.0,0.0,0.0,0.0,0.0,0.0,0.0,0.0,0.0,0.0,0.0,0.0,0.0,0.0,0.0,0.0,0.0,0.0,0.0,0.0,0.0,0.0,0.0,0.0,0.0,0.0,0.0,0.0,0.0,0.0,0.0,0.0,0.0,0.0,0.0,0.0,0.0,0.0,0.0,0.0,0.0,0.0,0.0,0.0,0.0,0.0,0.0,0.0,0.0,0.0,0.0,0.0,0.0,0.0,0.0,0.0,0.0,0.0,0.0,0.0,0.0,0.0,0.0,0.0,0.0,0.0,0.0,0.0,0.0,0.0,0.0,0.0,0.0,0.0,0.0,0.0,0.0,0.0,0.0,0.0,0.0,0.0,0.0,0.0,0.0,0.0,0.0,0.0,0.0,0.0,0.0,-1.7612,-2.0045,-2.0543,-1.8979,-1.7899,-1.5929,0.0,0.0,0.0,0.0,0.0,0.0,0.0,0.0,0.0,0.0,0.0,0.0,0.0,0.0,0.0,0.0,0.0,0.0,0.0,0.0,0.0,0.0,0.0,0.0,0.0,0.0,0.0,0.0,0.0,0.0,0.0,0.0,0.0,0.0,0.0,0.0,0.0,0.0,0.0,0.0,0.0,0.0,0.0,0.0,0.0,0.0,0.0,0.0,0.0,0.0,0.0,0.0,0.0,0.0,0.0,0.0,0.0,0.0,0.0,0.0,0.0,0.0,0.0,0.0,0.0,0.0,0.0,0.0,0.0,0.0,0.0,0.0,0.0,0.0,0.0,0.0,0.0,0.0,0.0,0.0,0.0,0.0,0.0,0.0,0.0,0.0,0.0,0.0,0.0,0.0,0.0,0.0,0.0,0.0,0.0,0.0,0.0,0.0,0.0,0.0,0.0,0.0,0.0,0.0,0.0,0.0,0.0,0.0,0.0,-1.9392,-2.185,-2.2604,-2.1472,-1.8288,-1.6136,0.0,0.0,0.0,0.0,0.0,0.0,0.0,0.0,0.0,0.0,0.0,0.0,0.0,0.0,0.0,0.0,0.0,0.0,0.0,0.0,0.0,0.0,0.0,0.0,0.0,0.0,0.0,0.0,0.0,0.0,0.0,0.0,0.0,0.0,0.0,0.0,0.0,0.0,0.0,0.0,0.0,0.0,0.0,0.0,0.0,0.0,0.0,0.0,0.0,0.0,0.0,0.0,0.0,0.0,0.0,0.0,0.0,0.0,0.0,0.0,0.0,0.0,0.0,0.0,0.0,0.0,0.0,0.0,0.0,0.0,0.0,0.0,0.0,0.0,0.0,0.0,0.0,0.0,0.0,0.0,0.0,0.0,0.0,0.0,0.0,0.0,0.0,0.0,0.0,0.0,0.0,0.0,0.0,0.0,0.0,0.0,0.0,0.0,0.0,0.0,0.0,0.0,0.0,0.0,0.0,0.0,0.0,0.0,-1.8478,-2.0622,-2.3139,-2.3995,-2.308,-2.0383,-1.8276,0.0,0.0,0.0,0.0,0.0,0.0,0.0,0.0,0.0,0.0,0.0,0.0,0.0,0.0,0.0,0.0,0.0,0.0,0.0,0.0,0.0,0.0,0.0,0.0,0.0,0.0,0.0,0.0,0.0,0.0,0.0,0.0,0.0,0.0,0.0,0.0,0.0,0.0,0.0,0.0,0.0,0.0,0.0,0.0,0.0,0.0,0.0,0.0,0.0,0.0,0.0,0.0,0.0,0.0,0.0,0.0,0.0,0.0,0.0,0.0,0.0,0.0,0.0,0.0,0.0,0.0,0.0,0.0,0.0,0.0,0.0,0.0,0.0,0.0,0.0,0.0,0.0,0.0,0.0,0.0,0.0,0.0,0.0,0.0,0.0,0.0,0.0,0.0,0.0,0.0,0.0,0.0,0.0,0.0,0.0,0.0,0.0,0.0,0.0,0.0,0.0,0.0,0.0,0.0,0.0,0.0,0.0,0.0,-1.9908,-2.1545,-2.4005,-2.4859,-2.3965,-2.3045,-2.1031,0.0,0.0,0.0,0.0,0.0,0.0,0.0,0.0,0.0,0.0,0.0,0.0,0.0,0.0,0.0,0.0,0.0,0.0,0.0,0.0,0.0,0.0,0.0,0.0,0.0,0.0,0.0,0.0,0.0,0.0,0.0,0.0,0.0,0.0,0.0,0.0,0.0,0.0,0.0,0.0,0.0,0.0,0.0,0.0,0.0,0.0,0.0,0.0,0.0,0.0,0.0,0.0,0.0,0.0,0.0,0.0,0.0,0.0,0.0,0.0,0.0,0.0,0.0,0.0,0.0,0.0,0.0,0.0,0.0,0.0,0.0,0.0,0.0,0.0,0.0,0.0,0.0,0.0,0.0,0.0,0.0,0.0,0.0,0.0,0.0,0.0,0.0,0.0,0.0,0.0,0.0,0.0,0.0,0.0,0.0,0.0,0.0,0.0,0.0,0.0,0.0,0.0,0.0,0.0,0.0,0.0,0.0,0.0,-2.0907,-2.2562,-2.4419,-2.5253,-2.4986,-2.2834,-2.0417,0.0,0.0,0.0,0.0,0.0,0.0,0.0,0.0,0.0,0.0,0.0,0.0,0.0,0.0,0.0,0.0,0.0,0.0,0.0,0.0,0.0,0.0,0.0,0.0,0.0,0.0,0.0,0.0,0.0,0.0,0.0,0.0,0.0,0.0,0.0,0.0,0.0,0.0,0.0,0.0,0.0,0.0,0.0,0.0,0.0,0.0,0.0,0.0,-1.1046,0.0,0.0,0.0,0.0,0.0,0.0,0.0,0.0,0.0,0.0,0.0,0.0,0.0,0.0,0.0,0.0,0.0,0.0,0.0,0.0,0.0,0.0,0.0,0.0,0.0,0.0,0.0,0.0,0.0,0.0,0.0,0.0,0.0,0.0,0.0,0.0,0.0,0.0,0.0,0.0,0.0,0.0,0.0,0.0,0.0,0.0,0.0,0.0,0.0,0.0,0.0,0.0,0.0,0.0,0.0,0.0,0.0,0.0,0.0,-2.1856,-2.3475,-2.4825,-2.5434,-2.5244,-2.3625,-2.1544,0.0,0.0,0.0,0.0,0.0,0.0,0.0,0.0,0.0,0.0,0.0,0.0,0.0,0.0,0.0,0.0,0.0,0.0,0.0,0.0,0.0,0.0,0.0,0.0,0.0,0.0,0.0,0.0,0.0,0.0,0.0,0.0,0.0,0.0,0.0,0.0,0.0,0.0,0.0,0.0,0.0,0.0,0.0,0.0,0.0,0.0,0.0,0.0,0.0,0.0,0.0,0.0,0.0,0.0,0.0,0.0,0.0,0.0,0.0,0.0,0.0,0.0,0.0,0.0,0.0,0.0,0.0,0.0,0.0,0.0,0.0,0.0,0.0,0.0,0.0,0.0,0.0,0.0,0.0,0.0,0.0,0.0,0.0,0.0,0.0,0.0,0.0,0.0,0.0,0.0,0.0,0.0,0.0,0.0,0.0,0.0,0.0,0.0,0.0,0.0,0.0,0.0,0.0,0.0,0.0,0.0,0.0,-2.026,-2.2654,-2.4348,-2.5182,-2.5485,-2.532,-2.4733,-2.3151,-2.0495,0.0,0.0,0.0,0.0,0.0,0.0,0.0,0.0,0.0,0.0,0.0,0.0,0.0,0.0,0.0,0.0,0.0,0.0,0.0,0.0,0.0,0.0,0.0,0.0,0.0,0.0,0.0,0.0,0.0,0.0,0.0,0.0,0.0,0.0,0.0,0.0,0.0,0.0,-1.0436,-1.1283,0.0,0.0,0.0,0.0,0.0,0.0,0.0,0.0,-1.1725,0.0,0.0,0.0,0.0,0.0,0.0,0.0,0.0,0.0,0.0,0.0,0.0,0.0,0.0,0.0,0.0,0.0,0.0,0.0,0.0,0.0,0.0,0.0,0.0,0.0,0.0,0.0,0.0,0.0,0.0,0.0,0.0,0.0,0.0,0.0,0.0,0.0,0.0,0.0,0.0,0.0,0.0,0.0,0.0,0.0,0.0,0.0,0.0,0.0,0.0,0.0,0.0,0.0,0.0,0.0,0.0,-1.9815,-2.1142,-2.296,-2.5298,-2.5454,-2.5517,-2.5456,-2.5348,-2.3751,-2.0534,0.0,0.0,0.0,0.0,0.0,0.0,0.0,0.0,0.0,0.0,0.0,0.0,0.0,0.0,0.0,0.0,0.0,0.0,0.0,0.0,0.0,0.0,0.0,0.0,0.0,0.0,0.0,0.0,0.0,0.0,0.0,0.0,0.0,0.0,0.0,0.0,0.0,0.0,0.0,-1.3524,-1.429,0.0,0.0,0.0,0.0,0.0,0.0,0.0,0.0,-1.1976,0.0,0.0,0.0,0.0,0.0,0.0,0.0,0.0,0.0,0.0,0.0,0.0,0.0,0.0,0.0,0.0,0.0,0.0,0.0,0.0,0.0,0.0,0.0,0.0,0.0,0.0,0.0,0.0,0.0,0.0,0.0,0.0,0.0,0.0,0.0,0.0,0.0,0.0,0.0,0.0,0.0,0.0,0.0,0.0,0.0,0.0,0.0,0.0,0.0,0.0,0.0,0.0,0.0,0.0,0.0,-1.972,-2.1527,-2.3466,-2.5504,-2.5551,-2.5517,-2.5492,-2.4621,-2.2958,0.0,0.0,0.0,0.0,0.0,0.0,0.0,0.0,0.0,0.0,0.0,0.0,0.0,0.0,0.0,0.0,0.0,0.0,0.0,0.0,0.0,0.0,0.0,0.0,0.0,0.0,0.0,0.0,0.0,0.0,0.0,0.0,0.0,0.0,0.0,0.0,0.0,0.0,0.0,0.0,-1.4346,-1.5356,-1.5903,0.0,0.0,0.0,0.0,0.0,0.0,-1.392,-1.3106,0.0,0.0,0.0,0.0,0.0,0.0,0.0,0.0,0.0,0.0,0.0,0.0,0.0,0.0,0.0,0.0,0.0,0.0,0.0,0.0,0.0,0.0,0.0,0.0,0.0,0.0,0.0,0.0,0.0,0.0,0.0,0.0,0.0,0.0,0.0,0.0,0.0,0.0,0.0,0.0,0.0,0.0,0.0,0.0,0.0,0.0,0.0,0.0,0.0,0.0,0.0,0.0,0.0,0.0,0.0,-1.9166,-2.1714,-2.3844,-2.5473,-2.5518,-2.551,-2.5492,-2.4157,-2.2474,0.0,0.0,0.0,0.0,0.0,0.0,0.0,0.0,0.0,0.0,0.0,0.0,0.0,0.0,0.0,0.0,0.0,0.0,0.0,0.0,0.0,0.0,0.0,0.0,0.0,0.0,0.0,0.0,0.0,0.0,0.0,0.0,0.0,0.0,0.0,0.0,0.0,0.0,0.0,0.0,0.0,-1.6378,-1.7398,-1.6522,0.0,0.0,0.0,0.0,-1.5965,-1.5549,0.0,0.0,0.0,0.0,0.0,0.0,0.0,0.0,0.0,0.0,0.0,0.0,0.0,0.0,0.0,0.0,0.0,0.0,0.0,0.0,0.0,0.0,0.0,0.0,0.0,0.0,0.0,0.0,0.0,0.0,0.0,0.0,0.0,0.0,0.0,0.0,0.0,0.0,0.0,0.0,0.0,0.0,0.0,0.0,0.0,0.0,0.0,0.0,0.0,0.0,0.0,0.0,0.0,0.0,0.0,0.0,-1.9177,-2.1707,-2.3817,-2.5402,-2.5522,-2.5511,-2.5511,-2.5298,-2.3693,0.0,0.0,0.0,0.0,0.0,0.0,0.0,0.0,0.0,0.0,0.0,0.0,0.0,0.0,0.0,0.0,0.0,0.0,0.0,0.0,0.0,0.0,0.0,0.0,0.0,0.0,0.0,0.0,0.0,0.0,0.0,0.0,0.0,0.0,0.0,0.0,0.0,0.0,0.0,0.0,0.0,-1.8178,-1.6906,-1.7236,-1.7618,0.0,0.0,-1.7757,-1.862,-1.8663,0.0,0.0,0.0,0.0,0.0,0.0,0.0,0.0,0.0,0.0,0.0,0.0,0.0,0.0,0.0,0.0,0.0,0.0,0.0,0.0,0.0,0.0,0.0,0.0,0.0,0.0,0.0,0.0,0.0,0.0,0.0,0.0,0.0,0.0,0.0,0.0,0.0,0.0,0.0,0.0,0.0,0.0,0.0,0.0,0.0,0.0,0.0,0.0,0.0,0.0,0.0,0.0,0.0,0.0,0.0,-1.7336,-1.9912,-2.2424,-2.4277,-2.546,-2.5515,-2.5511,-2.5511,-2.4544,-2.2881,0.0,0.0,0.0,0.0,0.0,0.0,0.0,0.0,0.0,0.0,0.0,0.0,0.0,0.0,0.0,0.0,0.0,0.0,0.0,0.0,0.0,0.0,0.0,0.0,0.0,0.0,0.0,0.0,0.0,0.0,0.0,0.0,0.0,0.0,0.0,0.0,0.0,0.0,0.0,0.0,0.0,0.0,-1.9448,-1.9405,0.0,0.0,0.0,-1.9689,-2.0542,0.0,0.0,0.0,0.0,0.0,0.0,0.0,0.0,0.0,0.0,0.0,0.0,0.0,0.0,0.0,0.0,0.0,0.0,0.0,0.0,0.0,0.0,0.0,0.0,0.0,0.0,0.0,0.0,0.0,0.0,0.0,0.0,0.0,0.0,0.0,0.0,0.0,0.0,0.0,0.0,0.0,0.0,0.0,0.0,0.0,0.0,0.0,0.0,0.0,0.0,0.0,0.0,0.0,0.0,0.0,0.0,0.0,-2.0467,-2.3145,-2.4846,-2.5459,-2.5507,-2.5511,-2.5492,-2.4234,0.0,0.0,0.0,0.0,0.0,0.0,0.0,0.0,0.0,0.0,0.0,0.0,0.0,0.0,0.0,0.0,0.0,0.0,0.0,0.0,0.0,0.0,0.0,0.0,0.0,0.0,0.0,0.0,0.0,0.0,0.0,0.0,0.0,0.0,0.0,0.0,0.0,0.0,0.0,0.0,0.0,0.0,-2.0238,-2.1545,-2.1351,-2.1329,0.0,0.0,-2.163,-2.2046,-2.1945,-2.1007,0.0,0.0,0.0,0.0,0.0,0.0,0.0,0.0,0.0,0.0,0.0,0.0,0.0,0.0,0.0,0.0,0.0,0.0,0.0,0.0,0.0,0.0,0.0,0.0,0.0,0.0,0.0,0.0,0.0,0.0,0.0,0.0,0.0,0.0,0.0,0.0,0.0,0.0,0.0,0.0,0.0,0.0,0.0,0.0,0.0,0.0,0.0,0.0,0.0,0.0,0.0,0.0,0.0,0.0,0.0,-2.0439,-2.3702,-2.5439,-2.5519,-2.5511,-2.5511,-2.5492,-2.5395,-2.377,0.0,0.0,0.0,0.0,0.0,0.0,0.0,0.0,0.0,0.0,0.0,0.0,0.0,0.0,0.0,0.0,0.0,0.0,0.0,0.0,0.0,0.0,0.0,0.0,0.0,0.0,0.0,0.0,0.0,0.0,0.0,0.0,0.0,0.0,0.0,0.0,0.0,0.0,0.0,0.0,0.0,-2.1662,-2.1783,-2.2422,-2.2932,0.0,0.0,-2.3887,-2.3127,-2.4316,-2.3968,-1.9882,0.0,0.0,0.0,0.0,0.0,0.0,0.0,0.0,0.0,0.0,0.0,0.0,0.0,0.0,0.0,0.0,0.0,0.0,0.0,0.0,0.0,0.0,0.0,0.0,0.0,0.0,0.0,0.0,0.0,0.0,0.0,0.0,0.0,0.0,0.0,0.0,0.0,0.0,0.0,0.0,0.0,0.0,0.0,0.0,0.0,0.0,0.0,0.0,0.0,0.0,0.0,0.0,0.0,-1.8712,-2.042,-2.3754,-2.5507,-2.5511,-2.5511,-2.5511,-2.5511,-2.5511,-2.4157,0.0,0.0,0.0,0.0,0.0,0.0,0.0,0.0,0.0,0.0,0.0,0.0,0.0,0.0,0.0,0.0,0.0,0.0,0.0,0.0,0.0,0.0,0.0,0.0,0.0,0.0,0.0,0.0,-1.0105,-1.0105,-1.0108,0.0,0.0,0.0,0.0,0.0,0.0,0.0,0.0,0.0,0.0,-2.2796,-2.3322,-2.3692,0.0,0.0,-2.4534,-2.4475,-2.4674,-2.4362,-2.3352,-2.1191,-1.997,0.0,0.0,0.0,0.0,0.0,0.0,0.0,0.0,0.0,0.0,0.0,0.0,0.0,0.0,0.0,0.0,0.0,0.0,0.0,0.0,0.0,0.0,0.0,0.0,0.0,0.0,0.0,0.0,0.0,0.0,0.0,0.0,0.0,0.0,0.0,0.0,0.0,0.0,0.0,0.0,0.0,0.0,0.0,0.0,0.0,0.0,0.0,0.0,0.0,0.0,0.0,0.0,-1.8858,-2.0769,-2.3895,-2.5511,-2.5511,-2.5511,-2.5511,-2.5511,-2.5511,-2.4409,0.0,0.0,0.0,0.0,0.0,0.0,0.0,0.0,0.0,0.0,0.0,0.0,0.0,0.0,0.0,0.0,0.0,0.0,0.0,0.0,0.0,0.0,0.0,0.0,0.0,0.0,0.0,0.0,-1.0105,-1.0104,-1.0094,0.0,0.0,0.0,0.0,0.0,0.0,0.0,0.0,0.0,0.0,-2.3809,-2.4666,-2.4803,-2.5021,-2.5609,-2.5177,-2.4982,-2.5609,-2.4895,-2.3784,-2.2422,0.0,0.0,0.0,0.0,0.0,0.0,0.0,0.0,0.0,0.0,0.0,0.0,0.0,0.0,0.0,0.0,0.0,0.0,0.0,0.0,0.0,0.0,0.0,0.0,0.0,0.0,0.0,0.0,0.0,0.0,-1.2723,0.0,0.0,0.0,0.0,0.0,0.0,0.0,0.0,0.0,0.0,0.0,0.0,0.0,0.0,0.0,0.0,0.0,0.0,0.0,0.0,0.0,0.0,-1.9153,-2.1662,-2.4225,-2.553,-2.555,-2.553,-2.553,-2.553,-2.5511,-2.466,-2.2919,0.0,0.0,0.0,0.0,0.0,0.0,0.0,0.0,0.0,0.0,0.0,0.0,0.0,0.0,0.0,0.0,0.0,0.0,0.0,0.0,0.0,0.0,0.0,0.0,0.0,0.0,-1.0135,-1.0108,-1.0113,0.0,0.0,0.0,0.0,0.0,0.0,0.0,0.0,0.0,0.0,-2.3809,-2.4686,-2.5524,-2.5679,-2.5679,-2.5718,-2.5699,-2.5699,-2.5757,-2.6373,-2.6048,0.0,0.0,0.0,0.0,0.0,0.0,0.0,0.0,0.0,0.0,0.0,0.0,0.0,0.0,0.0,0.0,0.0,0.0,0.0,0.0,0.0,0.0,0.0,0.0,0.0,0.0,0.0,-1.8551,-1.7496,0.0,0.0,0.0,0.0,0.0,0.0,0.0,0.0,0.0,0.0,0.0,-2.4744,-2.4764,0.0,0.0,0.0,0.0,0.0,0.0,0.0,0.0,0.0,0.0,0.0,0.0,-2.0026,-2.2536,-2.5066,-2.6626,-2.7116,-2.6613,-2.6296,-2.6296,-2.5782,-2.4679,-2.2958,0.0,0.0,0.0,0.0,0.0,0.0,0.0,0.0,0.0,0.0,0.0,0.0,0.0,0.0,0.0,0.0,0.0,0.0,0.0,0.0,0.0,0.0,0.0,0.0,0.0,-1.0943,0.0,0.0,0.0,0.0,0.0,0.0,0.0,0.0,0.0,0.0,0.0,-2.2354,-2.378,-2.4709,-2.5368,-2.566,-2.6147,-2.6498,0.0,0.0,0.0,0.0,0.0,0.0,0.0,0.0,0.0,0.0,0.0,0.0,0.0,0.0,-2.5685,-2.1743,-2.0983,-2.0866,-2.0651,0.0,0.0,0.0,0.0,0.0,0.0,0.0,0.0,0.0,0.0,0.0,0.0,0.0,0.0,-2.2835,0.0,-2.1396,0.0,0.0,0.0,0.0,0.0,0.0,0.0,0.0,-2.5991,-2.7491,-2.8251,-2.8251,-2.8271,0.0,-2.7452,-2.5145,0.0,0.0,0.0,0.0,0.0,0.0,0.0,0.0,-2.1634,-2.3894,-2.6107,-2.7493,-2.7956,-2.7445,-2.7008,-2.6726,-2.594,-2.483,-2.3383,-2.23,-2.105,0.0,0.0,0.0,0.0,0.0,0.0,0.0,0.0,0.0,0.0,0.0,0.0,0.0,0.0,0.0,0.0,0.0,0.0,0.0,0.0,0.0,0.0,0.0,-1.1795,0.0,0.0,0.0,0.0,0.0,0.0,0.0,0.0,0.0,-2.092,-2.2695,-2.4354,-2.5526,-2.5926,-2.6203,-2.6533,0.0,0.0,0.0,0.0,0.0,0.0,0.0,-2.7553,-2.7833,-2.7432,-2.7342,-2.8186,-2.9747,-3.0997,-3.1211,0.0,0.0,-2.6214,-2.5395,-2.5278,-2.5043,-2.5646,-2.6449,-2.7308,-2.7932,-2.8479,0.0,0.0,0.0,0.0,0.0,0.0,0.0,0.0,-2.6809,-2.6946,0.0,-2.5796,0.0,0.0,0.0,0.0,0.0,-2.5387,0.0,0.0,-3.0433,-3.1661,-3.0935,-3.0877,-3.0896,-3.0979,-3.168,-3.0721,-2.8072,-2.3295,0.0,0.0,0.0,0.0,0.0,0.0,-2.3908,-2.5667,-2.729,-2.8113,-2.8131,-2.8053,-2.7644,-2.6803,-2.5977,-2.5129,-2.4292,-2.4196,-2.3074,-2.0656,-1.9715,0.0,0.0,0.0,0.0,0.0,0.0,0.0,0.0,0.0,0.0,0.0,0.0,0.0,0.0,0.0,0.0,0.0,0.0,0.0,0.0,-1.2211,0.0,0.0,0.0,0.0,0.0,0.0,0.0,0.0,0.0,0.0,-2.4387,-2.5084,-2.6197,-2.7854,0.0,0.0,0.0,0.0,-2.7355,-2.8232,-2.8364,-2.8427,-2.8427,-2.976,-3.0533,-2.9764,0.0,0.0,-3.1053,-3.2324,-3.3202,-3.2402,-3.2949,-3.3222,-3.2285,-3.0665,-2.9845,-3.047,-3.0021,-3.0021,-3.0704,-3.0938,-3.1075,-3.4262,0.0,0.0,0.0,0.0,-3.1447,-3.2499,-3.4544,-3.3453,-3.2577,-3.1856,-3.1135,0.0,0.0,0.0,0.0,0.0,0.0,-2.942,-3.0628,-3.1646,-3.2596,-3.3473,-3.2927,-3.2947,-3.3492,-3.3181,-3.2304,-3.0974,-2.9498,-2.6357,-2.1702,0.0,0.0,0.0,0.0,-2.506,-2.7285,-2.8415,-2.9248,-2.9843,-2.9244,-2.8227,-2.6765,-2.6524,-2.604,-2.5163,-2.5135,-2.4509,-2.3166,-2.1694,0.0,0.0,0.0,0.0,0.0,0.0,0.0,0.0,0.0,0.0,0.0,0.0,0.0,0.0,0.0,0.0,0.0,0.0,0.0,-1.3876,-1.4258,-1.4863,0.0,0.0,0.0,0.0,0.0,0.0,0.0,0.0,0.0,-2.8231,-2.7826,-2.7537,0.0,0.0,-2.8136,-2.8987,-2.9455,-2.9985,-3.0862,-3.1505,0.0,0.0,-3.1807,-3.1859,-3.2221,-3.323,-3.3863,-3.3632,-3.451,-3.5174,-3.4881,-3.5096,-3.5152,-3.4861,-3.3476,-3.2246,-3.1875,-3.2031,-3.2578,-3.3398,-3.4061,-3.4664,-3.9772,-3.7311,-3.5992,-3.5894,-3.661,-3.6142,-3.6999,-3.8656,-3.7467,-3.6746,-3.6376,-3.5343,-3.3453,-3.0959,-3.0472,0.0,0.0,0.0,-3.2771,-3.414,-3.4467,-3.5168,-3.6084,-3.5655,-3.5675,-3.6084,-3.5285,-3.4467,-3.359,-3.3259,-3.0935,-2.6758,0.0,0.0,-2.5153,-2.5955,-2.7103,-2.8611,-2.944,-3.011,-3.0621,-2.9796,-2.8838,-2.7779,-2.712,-2.6565,-2.6037,-2.5679,-2.5266,-2.4755,-2.3418,-2.1739,0.0,0.0,0.0,0.0,0.0,0.0,0.0,0.0,0.0,0.0,0.0,-1.3619,0.0,0.0,0.0,0.0,-1.367,-1.459,-1.6437,-1.7213,0.0,0.0,0.0,0.0,0.0,0.0,0.0,-2.536,-2.6879,-2.8549,-3.0459,-3.0304,-3.0007,-3.0007,-2.9741,-2.9885,-3.0749,0.0,-3.1488,-3.2402,-3.294,-3.3278,-3.339,-3.3204,-3.3365,-3.4242,-3.4823,-3.5185,-3.5227,-3.5676,-3.5988,-3.601,-3.601,-3.601,-3.601,-3.5389,-3.4666,-3.3866,-3.4354,-3.5096,-3.5642,-3.6423,-3.7204,-4.3812,-4.3526,-4.0421,-3.9505,-4.0078,-4.0097,-4.0565,-4.1169,-3.961,-3.9766,-4.0994,-3.8675,-3.7525,-3.7253,-3.4895,0.0,-3.4954,-3.5733,-3.6493,-3.7331,-3.8149,-3.8519,-3.8519,-3.848,-3.8519,-3.8461,-3.7681,-3.6863,-3.5967,-3.5187,-3.394,-3.2309,-3.0706,-2.944,-2.8602,-2.9279,-2.9732,-2.9802,-3.0516,-3.0873,-3.078,-3.0069,-2.9531,-2.9156,-2.7718,-2.6832,-2.6655,-2.5925,-2.5531,-2.555,-2.4816,-2.3251,-2.0797,0.0,0.0,0.0,0.0,0.0,0.0,0.0,0.0,0.0,0.0,0.0,0.0,0.0,0.0,0.0,-1.7436,0.0,-1.9104,-2.0604,0.0,0.0,0.0,-2.3995,-2.3184,-2.6063,-2.8068,-2.802,0.0,0.0,-3.1618,-3.242,-3.3006,-3.3064,-3.2308,-3.205,-3.2984,-3.2434,-3.2271,-3.33,-3.3296,-3.3344,-3.3699,-3.4172,-3.4788,-3.5582,-3.5958,-3.5951,-3.5962,-3.5981,-3.6004,-3.6166,-3.6108,-3.6186,-3.6205,-3.6852,-3.7165,-3.6306,-3.6794,-3.736,-3.7379,-3.8004,-3.8609,-4.5572,-4.5514,-4.4702,-4.3721,-4.2708,-4.2708,-4.2825,-4.2955,-4.2572,-4.2241,-4.1968,-4.1344,-4.039,-3.9123,-3.7857,-3.7389,-3.7584,-3.7798,-3.7974,-3.8188,-3.8402,-3.8519,-3.8519,-3.8519,-3.8519,-3.85,-3.8285,-3.774,-3.6902,-3.6688,-3.5694,-3.4057,-3.359,-3.2655,-3.1232,-3.1329,-3.1709,-3.2317,-3.2501,-3.2255,-3.1564,-3.135,-3.0341,-2.8439,-2.8009,-2.7175,-2.5867,-2.5659,-2.5531,-2.5445,-2.5252,-2.4516,-2.3216,-2.0939,0.0,0.0,0.0,0.0,0.0,0.0,0.0,0.0,0.0,-1.8486,-1.5075,0.0,-1.9943,0.0,-1.9992,-2.0833,-2.1626,-2.2085,0.0,0.0,-2.6032,-2.6981,-2.7377,-2.9262,-3.0524,-3.0529,-3.1656,-3.2669,-3.3318,-3.3597,-3.3991,-3.4512,-3.3506,-3.2982,-3.3826,-3.3856,-3.4002,-3.4777,-3.4921,-3.4999,-3.502,-3.5297,-3.5546,-3.5775,-3.5929,-3.6001,-3.6007,-3.6007,-3.6205,-3.6813,-3.697,-3.7243,-3.7809,-3.818,-3.8219,-3.8024,-3.816,-3.8297,-3.8297,-3.8941,-3.9527,-4.6196,-4.6196,-4.6196,-4.5631,-4.4773,-4.4754,-4.4754,-4.4734,-4.4345,-4.3897,-4.3448,-4.3059,-4.2357,-4.1461,-4.0994,-4.076,-4.074,-4.037,-4.0195,-4.0156,-3.9805,-3.9669,-3.9649,-3.9649,-3.9649,-3.9649,-3.926,-3.8831,-3.8344,-3.7954,-3.7097,-3.5791,-3.5772,-3.509,-3.3804,-3.2992,-3.2791,-3.3238,-3.32,-3.2954,-3.2434,-3.2075,-3.1056,-2.9315,-2.8849,-2.7854,-2.6178,-2.6094,-2.5893,-2.5476,-2.5456,-2.5015,-2.4044,-2.2365,-2.0804,0.0,0.0,0.0,0.0,0.0,0.0,0.0,0.0,0.0,0.0,0.0,-2.2314,-2.1826,-2.2906,-2.3957,-2.4798,-2.5543,-2.6555,-2.795,-2.9192,-2.9956,-2.9999,-3.1522,-3.2554,-3.2554,-3.3299,-3.4006,-3.4483,-3.4541,-3.4694,-3.5152,-3.4832,-3.4584,-3.4674,-3.4712,-3.4912,-3.5418,-3.5477,-3.5445,-3.5495,-3.5611,-3.586,-3.6218,-3.637,-3.6573,-3.6986,-3.7069,-3.7253,-3.7767,-3.7867,-3.8024,-3.8512,-3.8921,-3.9117,-3.9175,-3.9449,-3.9546,-3.9214,-3.98,-4.0385,-4.6196,-4.6196,-4.6196,-4.6196,-4.6196,-4.6196,-4.6196,-4.6157,-4.5377,-4.5066,-4.5007,-4.415,-4.3773,-4.3773,-4.3637,-4.3617,-4.3539,-4.2799,-4.2448,-4.2416,-4.1637,-4.1247,-4.1266,-4.1149,-4.111,-4.1071,-4.0331,-3.9922,-3.9786,-3.9045,-3.8227,-3.7409,-3.737,-3.6921,-3.6045,-3.4549,-3.3725,-3.3621,-3.3546,-3.3472,-3.3355,-3.2676,-3.1809,-3.0741,-2.9792,-2.8539,-2.6959,-2.6757,-2.6359,-2.5699,-2.5745,-2.534,-2.4351,-2.3609,-2.2435,0.0,-1.9829,0.0,0.0,0.0,0.0,0.0,0.0,0.0,0.0,-2.3613,-2.4721,-2.4702,-2.6135,-2.7338,-2.8103,-2.9516,-3.0395,-3.0567,-3.1923,-3.2573,-3.1904,-3.3184,-3.4197,-3.4312,-3.4942,-3.5381,-3.5534,-3.5515,-3.5515,-3.5668,-3.6165,-3.6293,-3.5706,-3.5474,-3.5404,-3.5407,-3.5285,-3.5308,-3.5561,-3.57,-3.6063,-3.6828,-3.7103,-3.7424,-3.8148,-3.8298,-3.8449,-3.8666,-3.8736,-3.8798,-3.8882,-3.9523,-3.993,-3.9995,-4.0499,-4.0711,-4.021,-4.0503,-4.1069,-4.6196,-4.6196,-4.6196,-4.6196,-4.6196,-4.6196,-4.6196,-4.6176,-4.602,-4.5962,-4.5884,-4.5027,-4.4656,-4.4598,-4.3936,-4.3617,-4.3578,-4.3429,-4.3364,-4.3305,-4.2474,-4.2085,-4.2026,-4.1403,-4.111,-4.1091,-4.0935,-4.0487,-3.9805,-3.9649,-3.9104,-3.8266,-3.8266,-3.7798,-3.696,0.0,0.0,0.0,-3.5223,-3.4923,-3.4292,-3.4117,-3.297,-3.0787,-2.9752,0.0,-2.6831,-2.6655,-2.6516,-2.6341,-2.6987,0.0,0.0,0.0,0.0,0.0,0.0,0.0,0.0,0.0,0.0,0.0,-2.5867,-2.5772,-2.4694,-2.7275,-2.9,-2.9039,-2.9898,-3.0548,-3.0758,-3.1045,-3.1522,-3.2191,-3.3146,-3.3681,-3.3547,-3.4388,-3.5229,-3.5954,-3.6184,-3.6509,-3.7063,-3.7215,-3.7196,-3.712,-3.7368,-3.7406,-3.7215,-3.6623,-3.6012,-3.5414,-3.534,-3.5515,-3.6198,-3.6392,-3.6774,-3.7494,-3.7878,-3.8063,-3.8287,-3.8373,-3.8649,-3.9304,-3.9491,-3.976,-4.0418,-4.073,-4.073,-4.0847,-4.0944,-4.0989,-4.0886,-4.0971,-4.1108,-4.6196,0.0,-4.6196,-4.6196,0.0,-4.6196,-4.6196,-4.6196,-4.6196,-4.6196,-4.6157,-4.5728,-4.5533,-4.5514,-4.5066,-4.489,-4.4851,-4.4442,-4.4247,-4.4208,-4.3351,-4.2935,-4.2916,-4.2078,-4.1695,-4.1675,-4.1286,-4.0857,-4.0467,-4.0448,-4.0,-3.9143,-3.9143,-3.8714,-3.7857,-3.7767,-3.7094,-3.5765,-3.5698,-3.5514,-3.5088,-3.4681,-3.3644,-3.1992,0.0,0.0,0.0,0.0,0.0,0.0,0.0,0.0,0.0,0.0,0.0,-2.6424,-2.6002,-2.6148,-2.6979,-2.7019,-2.7568,-2.8809,-2.9707,-2.9631,-2.8351,-2.9822,-3.0968,-3.1408,-3.1828,-3.2229,-3.2688,-3.2745,-3.3242,-3.4426,-3.4961,-3.5362,-3.5783,-3.6184,-3.6604,-3.6986,-3.7101,-3.7273,-3.7636,-3.7693,-3.7693,-3.7712,-3.8094,-3.819,-3.7769,-3.7368,-3.691,-3.6509,-3.6432,-3.6585,-3.6986,-3.7185,-3.7533,-3.8274,-3.8575,-3.8846,-3.9313,-3.9395,-3.9635,-4.0135,-4.0256,-4.0427,-4.0786,-4.0928,-4.0894,-4.0922,-4.0928,-4.0906,-4.0955,-4.1022,-4.1108,-4.6196,-4.6196,-4.6196,-4.6196,-4.6196,-4.6196,-4.6196,-4.6196,0.0,0.0,0.0,-4.6196,-4.6196,-4.6196,-4.6196,-4.6196,-4.6157,-4.5455,-4.5124,-4.5085,-4.4228,-4.3838,-4.3799,-4.2935,-4.2429,-4.226,-4.1637,-4.1247,-4.111,-4.111,-4.076,-4.0097,-4.0019,-3.9585,-3.876,-3.85,-3.7693,-3.6323,-3.6036,-3.5882,-3.5698,-3.502,-3.4265,-3.346,-3.2513,-3.1331,-2.9874,-2.9641,-2.9259,-2.8676,-2.8632,-2.8567,-2.8383,-2.8401,-2.872,-2.9287,-2.935,-2.9746,-3.0567,-3.0643,-3.1026,-3.1866,-3.2554,-3.263,-3.1904,-3.1866,-3.221,-3.3073,-3.3264,-3.3681,-3.4369,-3.4579,-3.5209,-3.6585,-3.6719,-3.6967,-3.7559,-3.7693,-3.7693,-3.7884,-3.7922,-3.7999,-3.8209,-3.8247,-3.8151,-3.8266,-3.8839,-3.9011,-3.8304,-3.7903,-3.7597,-3.754,-3.7464,-3.7674,-3.7903,-3.7976,-3.8357,-3.9159,-3.9308,-3.9621,-4.028,-4.0568,-4.0649,-4.0654,-4.0762,-4.0772,-4.0791,-4.0801,-4.0791,-4.081,-4.0791,-4.0811,-4.082,-4.0922,-4.1046,-4.6196,-4.6196,-4.6196,-4.6196,-4.6196,-4.6196,-4.6196,-4.6196,-4.6196,-4.6196,-4.6196,-4.6196,-4.6196,-4.6196,-4.6196,-4.6196,-4.6176,-4.6059,-4.602,-4.5981,-4.5124,-4.4715,-4.4656,-4.3838,-4.302,-4.2338,-4.2182,-4.1773,-4.1169,-4.111,-4.1033,-4.0935,-4.0916,-4.0448,-3.9544,-3.8778,-3.8249,-3.7927,-3.725,-3.655,-3.581,-3.5666,-3.518,-3.4326,-3.3344,-3.2411,-3.1496,-3.1263,-3.1149,-3.1098,-3.1689,-3.1671,-3.0949,-3.0849,-3.0944,-3.1045,-3.1102,-3.1484,-3.2286,-3.2348,-3.2726,-3.3547,-3.3757,-3.3757,-3.3643,-3.3624,-3.3987,-3.4789,-3.5477,-3.6014,-3.6184,-3.67,-3.7139,-3.7483,-3.7521,-3.7597,-3.7789,-3.7789,-3.8056,-3.8725,-3.882,-3.9126,-3.9642,-3.9814,-3.9794,-3.989,-3.9871,-4.0024,-3.9623,-3.8629,-3.7789,-3.7693,-3.7693,-3.8018,-3.8648,-3.8839,-3.9182,-3.9986,-4.0098,-4.0095,-4.0317,-4.0444,-4.0534,-4.0617,-4.0674,-4.0734,-4.0771,-4.0749,-4.0738,-4.0771,-4.0729,-4.0746,-4.0781,-4.0846,-4.0887,-4.6196,-4.6196,-4.6196,-4.6196,-4.6196,-4.6196,-4.6196,-4.6196,-4.6196,-4.6196,-4.6196,-4.6196,-4.6196,-4.6196,-4.6196,-4.6196,-4.6196,-4.6196,-4.6196,-4.6176,-4.5787,-4.5592,-4.5514,-4.4715,-4.4091,-4.3663,-4.2728,-4.2124,-4.1753,-4.1325,-4.111,-4.111,-4.111,-4.0857,-4.0412,-4.0003,-3.9544,-3.9005,-3.817,-3.7316,-3.6473,-3.6406,-3.5989,-3.5175,-3.4202,-3.3527,-3.3164,-3.2493,-3.2168,-3.2196,-3.2492,-3.247,-3.2088,-3.2065,-3.2306,-3.2783,-3.2821,-3.3223,-3.4006,-3.4486,-3.4942,-3.5324,-3.5763,-3.5993,-3.6012,-3.5592,-3.5687,-3.647,-3.6948,-3.7158,-3.7158,-3.7483,-3.7903,-3.8381,-3.84,-3.8591,-3.9011,-3.9126,-3.926,-3.9642,-3.9718,-3.9871,-4.0253,-4.0329,-4.0329,-4.0329,-4.0329,-4.0329,-4.0329,-3.9642,-3.9107,-3.9126,-3.9107,-3.9279,-3.9642,-3.9699,-3.989,-4.0272,-4.031,-4.0309,-4.0326,-4.0379,-4.0411,-4.0473,-4.0534,-4.0593,-4.0636,-4.0681,-4.0674,-4.0617,-4.0687,-4.0699,-4.0757,-4.083,-4.0933,-4.6196,-4.6196,-4.6196,-4.6196,-4.6196,-4.6196,-4.6196,-4.6196,-4.6196,-4.6196,-4.6196,-4.6196,-4.6196,-4.6196,-4.6196,-4.6196,-4.6196,-4.6196,-4.6196,-4.6196,-4.6196,-4.6196,-4.6137,-4.5494,-4.5085,-4.4793,-4.3507,-4.2786,-4.2533,-4.1773,-4.1266,-4.111,-4.1085,-4.1038,-4.098,-4.0952,-4.0597,-3.9885,-3.9196,-3.8343,-3.7346,-3.7237,-3.6895,-3.6253,-3.5546,-3.5123,-3.5033,-3.4098,-3.3551,-3.3547,-3.3303,-3.3179,-3.3198,-3.323,-3.3662,-3.4445,-3.4579,-3.4923,-3.5706,-3.6394,-3.6776,-3.6795,-3.733,-3.7789,-3.7922,-3.7445,-3.7215,-3.7636,-3.7846,-3.798,-3.8037,-3.8247,-3.8553,-3.9221,-3.9298,-3.9527,-4.0177,-4.0329,-4.0329,-4.0329,-4.0329,-4.0291,-4.0329,-4.0329,-4.0329,-4.0329,-4.0329,-4.0329,-4.0329,-4.0329,-4.0329,-4.0329,-4.0329,-4.0253,-4.0329,-4.0291,-4.0272,-4.0329,-4.0329,-4.031,-4.0327,-4.0308,-4.0344,-4.0396,-4.043,-4.0495,-4.0527,-4.0607,-4.0655,-4.0623,-4.0667,-4.0723,-4.0746,-4.111,-4.1169,-4.6196,-4.6196,-4.6196,-4.6196,-4.6196,-4.6196,-4.6196,-4.6196,-4.6196,-4.6196,-4.6196,-4.6196,-4.6196,-4.6196,-4.6196,-4.6196,-4.6196,-4.6196,-4.6196,-4.6196,-4.6196,-4.6196,-4.6196,-4.6098,-4.565,-4.4988,-4.4676,-4.413,-4.3442,-4.2565,-4.1825,-4.1163,-4.1038,-4.098,-4.0917,-4.0829,-4.0757,-4.0687,-4.0609,-3.9801,-3.8306,-3.819,-3.8089,-3.7868,-3.7726,-3.7603,-3.7306,-3.661,-3.6138,-3.608,-3.5359,-3.4964,-3.4964,-3.4961,-3.5362,-3.6165,-3.626,-3.6642,-3.7349,-3.754,-3.7578,-3.7597,-3.7712,-3.8113,-3.8801,-3.8801,-3.8438,-3.8094,-3.8457,-3.8858,-3.8935,-3.9527,-3.9928,-4.0024,-4.01,-4.0234,-4.0329,-4.0329,-4.0329,-4.0329,-4.0501,-4.0329,-4.0425,-4.0425,-4.0368,-4.0444,-4.0578,-4.0559,-4.0444,-4.0444,-4.0501,-4.0425,-4.0348,-4.0329,-4.0329,-4.0329,-4.0329,-4.0329,-4.0329,-4.031,-4.031,-4.0309,-4.0326,-4.0326,-4.0362,-4.0427,-4.0526,-4.0604,-4.0674,-4.0942,-4.0955,-4.0908,-4.0927,-4.1568,-4.1908,-4.6196,-4.6196,-4.6196,-4.6196,-4.6196,-4.6196,-4.6196,-4.6196,-4.6196,-4.6196,-4.6196,-4.6196,-4.6196,-4.6196,-4.6196,-4.6196,-4.6196,-4.6196,-4.6196,-4.6196,-4.6196,-4.6196,-4.6196,-4.6196,-4.6001,-4.5631,-4.5144,-4.4701,-4.4133,-4.2922,-4.2069,-4.1719,-4.1216,-4.0917,-4.0849,-4.0798,-4.0792,-4.0803,-4.079,-4.0391,-3.9657,-3.9136,-3.8608,-3.8092,-3.7905,-3.7759,-3.7655,-3.7333,-3.7145,-3.7071,-3.6838,-3.6684,-3.6684,-3.6682,-3.6833,-3.7177,-3.7215,-3.7349,-3.7693,-3.8171,-3.8476,-3.8457,-3.8954,-3.9412,-3.9737,-3.9775,-3.9603,-3.9374,-3.9584,-3.9775,-3.9814,-4.01,-4.0329,-4.0329,-4.0329,-4.0501,-4.0979,-4.0998,-4.1189,-4.1667,-4.1762,-4.1533,-4.1132,-4.1017,-4.0998,-4.1094,-4.138,-4.1552,-4.1132,-4.0998,-4.1246,-4.1533,-4.0998,-4.0368,-4.0368,-4.0329,-4.0329,-4.0329,-4.0329,-4.0329,-4.031,-4.031,-4.031,-4.0329,-4.046,-4.0507,-4.0535,-4.0674,-4.0784,-4.1296,-4.2174,-4.2451,-4.2451,-4.2805,-4.2885,-4.6196,-4.6196,-4.6196,-4.6196,-4.6196,-4.6196,-4.6196,-4.6196,-4.6196,-4.6196,-4.6196,-4.6196,-4.6196,-4.6196,-4.6196,-4.6196,-4.6196,-4.6196,-4.6196,-4.6196,-4.6196,-4.6196,-4.6196,-4.6196,-4.6196,-4.6098,-4.5546,-4.5068,-4.4675,-4.3607,-4.2801,-4.249,-4.1898,-4.144,-4.1102,-4.1079,-4.0926,-4.0693,-4.0654,-4.0593,-4.0369,-3.9858,-3.9227,-3.862,-3.8433,-3.8327,-3.8233,-3.8042,-3.7909,-3.787,-3.7794,-3.7696,-3.7696,-3.7675,-3.7789,-3.8056,-3.8285,-3.84,-3.8419,-3.9011,-3.9355,-3.9431,-4.0138,-4.0635,-4.0673,-4.0845,-4.0979,-4.0979,-4.0998,-4.096,-4.0635,-4.0845,-4.0998,-4.0998,-4.0998,-4.1266,-4.1762,-4.1858,-4.2087,-4.2679,-4.2622,-4.2584,-4.2011,-4.1858,-4.1877,-4.1934,-4.2354,-4.2641,-4.203,-4.1858,-4.2087,-4.266,-4.1724,-4.117,-4.0979,-4.0826,-4.0692,-4.0635,-4.0692,-4.0635,-4.0463,-4.0444,-4.0654,-4.0883,-4.0844,-4.1121,-4.1561,-4.1594,-4.1587,-4.2377,-4.3111,-4.361,-4.3382,-4.3767,-4.4013,-4.6196,-4.6235,-4.6196,-4.6196,-4.6196,-4.6196,-4.6196,-4.6196,-4.6196,-4.6196,-4.6196,-4.6196,-4.6196,-4.6196,-4.6196,-4.6196,-4.6196,-4.6196,-4.6196,-4.6196,-4.6196,-4.6196,-4.6196,-4.6196,-4.6196,-4.6196,-4.6041,-4.555,-4.4802,-4.4657,-4.4258,-4.3451,-4.3203,-4.2756,-4.2002,-4.1803,-4.1293,-4.0559,-4.0447,-4.0353,-4.03,-4.0192,-4.0061,-3.9891,-3.9948,-3.9852,-3.9753,-3.9145,-3.8785,-3.8842,-3.8192,-3.7769,-3.775,-3.7789,-3.8151,-3.8897,-3.968,-4.0138,-4.0138,-4.0196,-4.0272,-4.0387,-4.1017,-4.1437,-4.1495,-4.2068,-4.2431,-4.2603,-4.2545,-4.2297,-4.1743,-4.2049,-4.245,-4.2488,-4.2584,-4.2603,-4.2717,-4.2737,-4.2737,-4.2889,-4.2947,-4.2966,-4.2794,-4.2756,-4.2737,-4.2756,-4.2813,-4.2851,-4.2794,-4.2737,-4.2832,-4.2889,-4.2775,-4.266,-4.2622,-4.1953,-4.1514,-4.1457,-4.1418,-4.1266,-4.096,-4.0826,-4.1189,-4.1571,-4.1973,-4.2387,-4.2864,-4.3098,-4.3169,-4.352,-4.3768,-4.4025,-4.4333,-4.4614,-4.4836,-4.7521,-4.6975,-4.6429,-4.6196,-4.6196,-4.6196,-4.6196,-4.6196,-4.6196,-4.6196,-4.6196,-4.6196,-4.6196,-4.6196,-4.6196,-4.6196,-4.6196,-4.6196,-4.6196,-4.6196,-4.6196,-4.6196,-4.6196,-4.6196,-4.6196,-4.6189,-4.6138,-4.5901,-4.5456,-4.496,-4.4517,-4.4131,-4.3529,-4.3014,-4.2699,-4.253,-4.2023,-4.124,-4.118,-4.0877,-4.0291,-4.0233,-4.0196,-4.0039,-4.0039,-4.0038,-4.0015,-3.9753,-3.9661,-3.9719,-3.9471,-3.9374,-3.9374,-3.9355,-3.9489,-3.9814,-4.0138,-4.052,-4.0979,-4.1055,-4.1323,-4.1858,-4.2144,-4.2335,-4.2374,-4.2622,-4.2794,-4.2889,-4.3329,-4.3348,-4.3157,-4.2947,-4.2794,-4.2794,-4.2813,-4.3061,-4.3424,-4.3577,-4.3768,-4.4169,-4.3978,-4.3768,-4.4093,-4.394,-4.3596,-4.3615,-4.4036,-4.4074,-4.3692,-4.3577,-4.373,-4.4036,-4.3539,-4.3195,-4.438,-4.3157,-4.2354,-4.2335,-4.2297,-4.224,-4.203,-4.2011,-4.2316,-4.2354,-4.2813,-4.3082,-4.3404,-4.3912,-4.4111,-4.4377,-4.4626,-4.4926,-4.5382,-4.546,-4.5656,-4.8475,-4.7871,-4.7287,-4.7053,-4.6995,-4.6741,-4.6624,-4.6585,-4.6313,-4.6196,-4.6196,-4.6196,-4.6196,-4.6196,-4.6196,-4.6196,-4.6196,-4.6196,-4.6196,-4.6196,-4.6196,-4.6196,-4.6196,-4.6196,-4.6196,-4.6189,-4.6119,-4.6037,-4.5835,-4.5312,-4.4987,-4.4873,-4.4203,-4.3717,-4.3421,-4.3235,-4.2738,-4.203,-4.1915,-4.1571,-4.0977,-4.1017,-4.0998,-4.0857,-4.0855,-4.0572,-4.0115,-4.0098,-4.0157,-4.0234,-4.0291,-4.0425,-4.0635,-4.0692,-4.0826,-4.1055,-4.1132,-4.1342,-4.18,-4.1915,-4.2163,-4.2737,-4.3061,-4.3195,-4.3214,-4.3424,-4.3596,-4.3749,-4.4036,-4.4418,-4.4322,-4.394,-4.3615,-4.3596,-4.3615,-4.3806,-4.4341,-4.4437,-4.4685,-4.4991,-4.4762,-4.4762,-4.5105,-4.4743,-4.4494,-4.4418,-4.4953,-4.4972,-4.4571,-4.4456,-4.4571,-4.5067,-4.438,-4.4265,-4.48,-4.4188,-4.3386,-4.3291,-4.3176,-4.3157,-4.3061,-4.3119,-4.3195,-4.3233,-4.3369,-4.3598,-4.4013,-4.4555,-4.49,-4.5165,-4.5436,-4.5704,-4.5972,-4.6163,-4.6163,-4.8845,-4.8787,-4.8768,-4.8612,-4.8475,-4.7793,-4.7501,-4.7365,-4.6644,-4.6332,-4.6371,-4.6235,-4.6196,-4.6196,-4.6196,-4.6196,-4.6196,-4.6196,-4.6196,-4.6196,-4.6196,-4.6196,-4.6196,-4.6196,-4.6196,-4.6189,-4.6138,-4.5997,-4.5802,-4.5757,-4.5664,-4.5568,-4.5406,-4.4804,-4.3916,-4.3897,-4.3409,-4.2674,-4.2525,-4.2487,-4.2506,-4.2443,-4.2427,-4.2441,-4.2482,-4.1836,-4.0406,-4.0348,-4.0463,-4.0463,-4.0463,-4.075,-4.1399,-4.1495,-4.1858,-4.245,-4.2679,-4.2737,-4.2775,-4.2813,-4.2832,-4.3157,-4.3634,-4.4036,-4.4131,-4.4647,-4.5048,-4.501,-4.5086,-4.5201,-4.5182,-4.5086,-4.5029,-4.5239,-4.4991,-4.5048,-4.5163,-4.5239,-4.5277,-4.5277,-4.5163,-4.5258,-4.5277,-4.5182,-4.5105,-4.5125,-4.522,-4.5258,-4.5105,-4.5067,-4.522,-4.5258,-4.501,-4.4972,-4.5144,-4.5201,-4.4666,-4.4246,-4.4093,-4.3959,-4.3768,-4.373,-4.3978,-4.4074,-4.4322,-4.4556,-4.4668,-4.5186,-4.544,-4.5716,-4.6057,-4.617,-4.6245,-4.63,-4.63,-4.9625,-4.9547,-4.9021,-4.8806,-4.8768,-4.8495,-4.8397,-4.828,-4.7482,-4.7111,-4.6975,-4.6449,-4.6196,-4.6196,-4.6196,-4.6196,-4.6196,-4.6196,-4.6196,-4.6196,-4.6196,-4.6196,-4.6196,-4.6196,-4.6162,-4.613,-4.6047,-4.5975,-4.5861,-4.5766,-4.5661,-4.558,-4.5419,-4.5166,-4.4772,-4.4642,-4.4147,-4.3421,-4.3373,-4.313,-4.2579,-4.265,-4.2713,-4.2675,-4.2754,-4.2487,-4.2029,-4.1951,-4.1971,-4.1991,-4.203,-4.2144,-4.2335,-4.2393,-4.2526,-4.2737,-4.2794,-4.31,-4.3558,-4.3654,-4.3902,-4.438,-4.4743,-4.4876,-4.4895,-4.5105,-4.5277,-4.5277,-4.5277,-4.5277,-4.5277,-4.5277,-4.5277,-4.5277,-4.5277,-4.5277,-4.5277,-4.5277,-4.5277,-4.5277,-4.5277,-4.5277,-4.5277,-4.5277,-4.5277,-4.5277,-4.5277,-4.5277,-4.5277,-4.5277,-4.5277,-4.5277,-4.5277,-4.5277,-4.5277,-4.5277,-4.5029,-4.4762,-4.4666,-4.459,-4.4418,-4.436,-4.4628,-4.4819,-4.5105,-4.5302,-4.5437,-4.5574,-4.5731,-4.5908,-4.6016,-4.6131,-4.6249,-4.63,-4.63,-5.0482,-5.0424,-4.9937,-4.9722,-4.9683,-4.941,-4.9255,-4.906,-4.7988,-4.7482,-4.7306,-4.6585,-4.6196,-4.6196,-4.6196,-4.6196,-4.6196,-4.6196,-4.6162,-4.6138,-4.6111,-4.613,-4.6111,-4.6036,-4.6018,-4.6017,-4.5986,-4.591,-4.5815,-4.5688,-4.556,-4.5419,-4.5279,-4.5148,-4.5103,-4.4967,-4.4611,-4.4194,-4.4231,-4.403,-4.3634,-4.3607,-4.367,-4.367,-4.369,-4.373,-4.373,-4.369,-4.3365,-4.2928,-4.2794,-4.2928,-4.3195,-4.3252,-4.3386,-4.3673,-4.3768,-4.3997,-4.4437,-4.4494,-4.4685,-4.5182,-4.5277,-4.5277,-4.5277,-4.5277,-4.5277,-4.5277,-4.5277,-4.5277,-4.5277,-4.5277,-4.5277,-4.5277,-4.5277,-4.5277,-4.5277,-4.5277,-4.5277,-4.5277,-4.5277,-4.5277,-4.5277,-4.5277,-4.5277,-4.5277,-4.5277,-4.5277,-4.5277,-4.5277,-4.5277,-4.5277,-4.5277,-4.5277,-4.5277,-4.5277,-4.5277,-4.522,-4.5163,-4.5086,-4.4972,-4.4953,-4.5086,-4.5067,-4.5258,-4.5279,-4.5419,-4.5457,-4.5594,-4.575,-4.5949,-4.606,-4.6164,-4.6273,-4.63,-5.13,-5.13,-5.1281,-5.1183,-5.1067,-5.0385,-5.0073,-4.98,-4.8339,-4.7657,-4.7462,-4.6644,-4.6196,-4.6196,-4.6196,-4.6196,-4.6196,-4.6196,-4.6138,-4.6037,-4.5997,-4.5966,-4.5966,-4.5828,-4.5822,-4.5886,-4.5873,-4.5802,-4.5684,-4.5623,-4.5526,-4.5237,-4.5192,-4.5103,-4.4943,-4.4895,-4.4876,-4.4825,-4.4938,-4.4988,-4.4931,-4.5099,-4.5163,-4.5144,-4.5105,-4.5067,-4.5048,-4.501,-4.4437,-4.3195,-4.3138,-4.3482,-4.394,-4.4074,-4.4418,-4.5029,-4.522,-4.5144,-4.5239,-4.5144,-4.5201,-4.5258,-4.5277,-4.5277,-4.5277,-4.5277,-4.5277,-4.5277,-4.5277,-4.5277,-4.5277,-4.5277,-4.5277,-4.5277,-4.5277,-4.5277,-4.5277,-4.5277,-4.5277,-4.5277,-4.5277,-4.5277,-4.5277,-4.5277,-4.5277,-4.5277,-4.5277,-4.5277,-4.5277,-4.5277,-4.5277,-4.5277,-4.5277,-4.5277,-4.5277,-4.5277,-4.5277,-4.5277,-4.5277,-4.5277,-4.5277,-4.5277,-4.5277,-4.5277,-4.5297,-4.5338,-4.5359,-4.5419,-4.5494,-4.5634,-4.5796,-4.5929,-4.6068,-4.6206,-4.63,-5.13,-5.13,-5.13,-5.13,-5.13,-5.1028,-5.095,-5.0735,-4.9157,-4.8397,-4.8144,-4.6839,-4.6196,-4.6196,-4.6196,-4.6196,-4.6196,-4.6196,-4.6111,-4.5977,-4.5847,-4.577,-4.5777,-4.5731,-4.5703,-4.5736,-4.5699,-4.5661,-4.5613,-4.5456,-4.5301,-4.5192,-4.5057,-4.4967,-4.4895,-4.4943,-4.4967,-4.4967,-4.5038,-4.5125,-4.517,-4.5211,-4.5235,-4.5297,-4.5297,-4.5277,-4.5277,-4.5277,-4.5163,-4.4743,-4.4647,-4.4704,-4.4876,-4.4895,-4.501,-4.522,-4.5277,-4.5277,-4.5277,-4.5277,-4.5277,-4.5277,-4.5277,-4.5277,-4.5277,-4.5277,-4.5277,-4.5277,-4.5277,-4.5277,-4.5277,-4.5277,-4.5277,-4.5277,-4.5277,-4.5277,-4.5277,-4.5277,-4.5277,-4.5277,-4.5277,-4.5277,-4.5277,-4.5277,-4.5277,-4.5277,-4.5277,-4.5277,-4.5277,-4.5277,-4.5277,-4.5277,-4.5277,-4.5277,-4.5277,-4.5277,-4.5277,-4.5277,-4.5277,-4.5277,-4.5277,-4.5277,-4.5277,-4.5277,-4.5277,-4.5317,-4.5338,-4.5379,-4.5475,-4.5558,-4.575,-4.5908,-4.6041,-4.6156,-4.6273,-5.13,-5.13,-5.13,-5.13,-5.13,-5.13,-5.13,-5.0969,-4.9547,-4.8806,-4.8417,-4.6956,-4.6215,-4.6196,-4.6196,-4.6196,-4.6196,-4.6146,-4.6018,-4.5847,-4.5654,-4.5541,-4.5541,-4.5541,-4.5539,-4.5568,-4.5522,-4.549,-4.5418,-4.5263,-4.5156,-4.5061,-4.4943,-4.4895,-4.4895,-4.4919,-4.4943,-4.4967,-4.5014,-4.508,-4.5125,-4.5148,-4.5189,-4.5233,-4.5254,-4.5256,-4.5297,-4.5277,-4.5277,-4.5277,-4.5277,-4.5277,-4.5277,-4.5277,-4.5277,-4.5277,-4.5277,-4.5277,-4.5277,-4.5277,-4.5277,-4.5277,-4.5277,-4.5277,-4.5277,-4.5277,-4.5277,-4.5277,-4.5277,-4.5277,-4.5277,-4.5277,-4.5277,-4.5277,-4.5277,-4.5277,-4.5277,-4.5277,-4.5277,-4.5277,-4.5277,-4.5277,-4.5277,-4.5277,-4.5277,-4.5277,-4.5277,-4.5277,-4.5277,-4.5277,-4.5277,-4.5277,-4.5277,-4.5277,-4.5277,-4.5277,-4.5277,-4.5277,-4.5277,-4.5277,-4.5277,-4.5277,-4.5277,-4.5277,-4.5277,-4.5297,-4.5317,-4.5338,-4.538,-4.549,-4.5722,-4.5886,-4.5996,-4.6156,-4.6249,-5.13,-5.13,-5.13,-5.13,-5.13,-5.13,-5.13,-5.0989,-4.9527,-4.8806,-4.8417,-4.6956,-4.6235,-4.6196,-4.6196,-4.6215,-4.6181,-4.6056,-4.5891,-4.5665,-4.5455,-4.532,-4.5341,-4.5341,-4.5362,-4.5381,-4.5361,-4.5304,-4.5225,-4.5165,-4.5074,-4.4948,-4.4895,-4.4895,-4.4895,-4.4895,-4.4914,-4.4962,-4.4991,-4.5033,-4.5057,-4.5103,-4.5125,-4.5125,-4.5189,-4.5213,-4.5275,-4.5297,-4.5297,-4.5297,-4.5297,-4.5277,-4.5277,-4.5277,-4.5277,-4.5277,-4.5277,-4.5277,-4.5277,-4.5277,-4.5277,-4.5277,-4.5277,-4.5277,-4.5277,-4.5277,-4.5277,-4.5277,-4.5277,-4.5277,-4.5277,-4.5277,-4.5277,-4.5277,-4.5277,-4.5277,-4.5277,-4.5277,-4.5277,-4.5277,-4.5277,-4.5277,-4.5277,-4.5277,-4.5277,-4.5277,-4.5277,-4.5277,-4.5277,-4.5277,-4.5277,-4.5277,-4.5277,-4.5277,-4.5277,-4.5277,-4.5277,-4.5277,-4.5277,-4.5277,-4.5277,-4.5277,-4.5277,-4.5277,-4.5277,-4.5317,-4.5338,-4.5359,-4.5361,-4.5491,-4.5722,-4.582,-4.593,-4.615,-4.63,-5.13,-5.13,-5.13,-5.13,-5.13,-5.13,-5.1281,-5.1125,-4.9508,-4.8702,-4.8397,-4.6956,-4.6227,-4.6189,-4.6162,-4.6146,-4.6037,-4.5966,-4.5822,-4.5541,-4.5381,-4.5298,-4.5277,-4.5277,-4.5277,-4.5239,-4.5197,-4.5132,-4.5045,-4.5,-4.4929,-4.4919,-4.4895,-4.4895,-4.4895,-4.4962,-4.4986,-4.4991,-4.5038,-4.5061,-4.5057,-4.508,-4.5103,-4.5084,-4.5125,-4.5148,-4.5192,-4.5233,-4.5233,-4.5254,-4.5256,-4.5277,-4.5277,-4.5297,-4.5277,-4.5277,-4.5277,-4.5277,-4.5277,-4.5277,-4.5277,-4.5277,-4.5277,-4.5277,-4.5277,-4.5277,-4.5277,-4.5277,-4.5277,-4.5277,-4.5277,-4.5277,-4.5277,-4.5277,-4.5277,-4.5277,-4.5277,-4.5277,-4.5277,-4.5277,-4.5277,-4.5277,-4.5277,-4.5277,-4.5277,-4.5277,-4.5277,-4.5277,-4.5277,-4.5277,-4.5277,-4.5277,-4.5277,-4.5277,-4.5277,-4.5277,-4.5277,-4.5277,-4.5277,-4.5277,-4.5277,-4.5277,-4.5277,-4.5277,-4.5277,-4.5317,-4.5338,-4.5379,-4.538,-4.556,-4.5703,-4.5844,-4.5996,-4.6181,-4.63,-5.13,-5.13,-5.13,-5.13,-5.1242,-5.0872,-5.0677,-5.0338,-4.8805,-4.8048,-4.7767,-4.6523,-4.5988,-4.5968,-4.5949,-4.5925,-4.5879,-4.5783,-4.5638,-4.5419,-4.53,-4.5277,-4.5277,-4.5277,-4.5235,-4.5189,-4.5125,-4.5038,-4.4967,-4.4919,-4.4919,-4.4895,-4.4895,-4.4895,-4.4895,-4.4938,-4.4962,-4.4943,-4.4967,-4.4991,-4.4991,-4.4991,-4.5033,-4.5038,-4.5057,-4.508,-4.5148,-4.5148,-4.5129,-4.517,-4.5192,-4.5233,-4.5254,-4.5297,-4.5277,-4.5277,-4.5277,-4.5277,-4.5277,-4.5277,-4.5277,-4.5277,-4.5277,-4.5277,-4.5277,-4.5277,-4.5277,-4.5277,-4.5277,-4.5277,-4.5277,-4.5277,-4.5277,-4.5277,-4.5277,-4.5277,-4.5277,-4.5277,-4.5277,-4.5277,-4.5277,-4.5277,-4.5277,-4.5277,-4.5277,-4.5277,-4.5277,-4.5277,-4.5277,-4.5277,-4.5277,-4.5277,-4.5277,-4.5277,-4.5277,-4.5277,-4.5277,-4.5277,-4.5277,-4.5277,-4.5277,-4.5277,-4.5277,-4.5277,-4.5277,-4.5297,-4.5338,-4.5379,-4.5458,-4.5574,-4.5731,-4.5889,-4.6049,-4.6206,-4.6277,-5.13,-5.13,-5.13,-5.1222,-5.0989,-5.0326,-4.9948,-4.9495,-4.7952,-4.7328,-4.6993,-4.6125,-4.5744,-4.5698,-4.5711,-4.5684,-4.563,-4.5541,-4.5419,-4.532,-4.5298,-4.5277,-4.5277,-4.5277,-4.5254,-4.5125,-4.5103,-4.5033,-4.4943,-4.4895,-4.4895,-4.4895,-4.4895,-4.4895,-4.4895,-4.4895,-4.4895,-4.4895,-4.4919,-4.4919,-4.4919,-4.4919,-4.4943,-4.4986,-4.4986,-4.5033,-4.508,-4.5103,-4.508,-4.5061,-4.5103,-4.5125,-4.517,-4.5235,-4.5297,-4.5297,-4.5277,-4.5277,-4.5277,-4.5277,-4.5277,-4.5277,-4.5277,-4.5277,-4.5277,-4.5277,-4.5277,-4.5277,-4.5277,-4.5277,-4.5277,-4.5277,-4.5277,-4.5277,-4.5277,-4.5277,-4.5277,-4.5277,-4.5277,-4.5277,-4.5277,-4.5277,-4.5277,-4.5277,-4.5277,-4.5277,-4.5277,-4.5277,-4.5277,-4.5277,-4.5277,-4.5277,-4.5277,-4.5277,-4.5277,-4.5277,-4.5277,-4.5277,-4.5277,-4.5277,-4.5277,-4.5277,-4.5277,-4.5277,-4.5297,-4.5317,-4.5338,-4.5359,-4.5457,-4.5607,-4.5757,-4.5929,-4.6084,-4.6211,-4.6249,-5.13,-5.13,-5.13,-5.0872,-5.0248,-5.0034,-4.9448,-4.8642,-4.757,-4.7125,-4.6881,-4.6104,-4.5655,-4.567,-4.5684,-4.563,-4.5524,-4.54,-4.5339,-4.5277,-4.5277,-4.5277,-4.5277,-4.5277,-4.5254,-4.5192,-4.5125,-4.5057,-4.4967,-4.4919,-4.4895,-4.4895,-4.4895,-4.4895,-4.4895,-4.4895,-4.4895,-4.4895,-4.4895,-4.4895,-4.4895,-4.4895,-4.4895,-4.4938,-4.4919,-4.4943,-4.4991,-4.5033,-4.5033,-4.5014,-4.508,-4.508,-4.508,-4.5148,-4.5213,-4.5297,-4.5277,-4.5277,-4.5277,-4.5277,-4.5277,-4.5277,-4.5277,-4.5277,-4.5277,-4.5277,-4.5277,-4.5277,-4.5277,-4.5277,-4.5277,-4.5277,-4.5277,-4.5277,-4.5277,-4.5277,-4.5277,-4.5277,-4.5277,-4.5277,-4.5277,-4.5277,-4.5277,-4.5277,-4.5277,-4.5277,-4.5277,-4.5277,-4.5277,-4.5277,-4.5277,-4.5277,-4.5277,-4.5277,-4.5277,-4.5277,-4.5277,-4.5277,-4.5277,-4.5277,-4.5277,-4.5277,-4.5277,-4.5277,-4.5317,-4.5317,-4.5338,-4.5359,-4.5493,-4.5634,-4.5815,-4.5988,-4.6084,-4.6192,-4.6249,-5.1047,-5.0618,-5.0618,-5.0088,-4.9255,-4.872,-4.8233,-4.7643,-4.6751,-4.6278,-4.6105,-4.5714,-4.549,-4.5509,-4.549,-4.5437,-4.54,-4.532,-4.5277,-4.5277,-4.5277,-4.5277,-4.5277,-4.5277,-4.5277,-4.5235,-4.5192,-4.5103,-4.501,-4.4919,-4.4895,-4.4895,-4.4895,-4.4895,-4.4895,-4.4895,-4.4895,-4.4895,-4.4895,-4.4895,-4.4895,-4.4895,-4.4895,-4.4895,-4.4895,-4.4919,-4.4919,-4.4943,-4.4962,-4.4962,-4.4986,-4.4991,-4.5014,-4.5057,-4.5129,-4.5213,-4.5256,-4.5277,-4.5277,-4.5277,-4.5277,-4.5277,-4.5277,-4.5277,-4.5277,-4.5277,-4.5277,-4.5277,-4.5277,-4.5277,-4.5277,-4.5277,-4.5277,-4.5277,-4.5277,-4.5277,-4.5277,-4.5277,-4.5277,-4.5277,-4.5277,-4.5277,-4.5277,-4.5277,-4.5277,-4.5277,-4.5277,-4.5277,-4.5277,-4.5277,-4.5277,-4.5277,-4.5277,-4.5277,-4.5277,-4.5277,-4.5277,-4.5277,-4.5277,-4.5277,-4.5277,-4.5277,-4.5277,-4.5277,-4.5317,-4.5317,-4.5338,-4.5359,-4.5509,-4.565,-4.5736,-4.5852,-4.6041,-4.6162,-4.6221,-5.0438,-4.9932,-4.974,-4.908,-4.818,-4.7489,-4.6991,-4.6568,-4.5902,-4.5547,-4.5456,-4.5361,-4.5298,-4.5298,-4.5298,-4.5298,-4.5277,-4.5277,-4.5277,-4.5277,-4.5277,-4.5277,-4.5277,-4.5277,-4.5277,-4.5277,-4.5213,-4.5148,-4.5038,-4.4943,-4.4938,-4.4895,-4.4895,-4.4895,-4.4895,-4.4895,-4.4895,-4.4895,-4.4895,-4.4895,-4.4895,-4.4895,-4.4895,-4.4895,-4.4895,-4.4895,-4.4895,-4.4895,-4.4895,-4.4895,-4.4919,-4.4919,-4.4967,-4.4991,-4.5038,-4.5151,-4.5235,-4.5256,-4.5277,-4.5277,-4.5277,-4.5277,-4.5277,-4.5277,-4.5277,-4.5277,-4.5277,-4.5277,-4.5277,-4.5277,-4.5277,-4.5277,-4.5277,-4.5277,-4.5277,-4.5277,-4.5277,-4.5277,-4.5277,-4.5277,-4.5277,-4.5277,-4.5277,-4.5277,-4.5277,-4.5277,-4.5277,-4.5277,-4.5277,-4.5277,-4.5277,-4.5277,-4.5277,-4.5277,-4.5277,-4.5277,-4.5277,-4.5277,-4.5277,-4.5277,-4.5277,-4.5277,-4.5277,-4.5298,-4.5277,-4.5317,-4.5317,-4.5359,-4.5456,-4.5558,-4.5623,-4.5757,-4.5977,-4.6092,-4.6156,-4.9215,-4.9748,-4.8865,-4.7984,-4.7215,-4.7022,-4.6476,-4.5753,-4.5566,-4.5438,-4.532,-4.5298,-4.5277,-4.5277,-4.5277,-4.5277,-4.5277,-4.5277,-4.5277,-4.5277,-4.5277,-4.5277,-4.5277,-4.5277,-4.5277,-4.5277,-4.5235,-4.517,-4.508,-4.501,-4.4962,-4.4895,-4.4895,-4.4895,-4.4895,-4.4895,-4.4895,-4.4895,-4.4895,-4.4895,-4.4895,-4.4895,-4.4895,-4.4895,-4.4895,-4.4895,-4.4895,-4.4895,-4.4895,-4.4895,-4.4895,-4.4895,-4.4919,-4.4986,-4.5014,-4.5084,-4.517,-4.5235,-4.5297,-4.5277,-4.5277,-4.5277,-4.5277,-4.5277,-4.5277,-4.5277,-4.5277,-4.5277,-4.5277,-4.5277,-4.5277,-4.5277,-4.5277,-4.5277,-4.5277,-4.5277,-4.5277,-4.5277,-4.5277,-4.5277,-4.5277,-4.5277,-4.5277,-4.5277,-4.5277,-4.5277,-4.5277,-4.5277,-4.5277,-4.5277,-4.5277,-4.5277,-4.5277,-4.5277,-4.5277,-4.5277,-4.5277,-4.5277,-4.5319,-4.5319,-4.5341,-4.5341,-4.5319,-4.5319,-4.5298,-4.5277,-4.5317,-4.5339,-4.5381,-4.5455,-4.5524,-4.5725,-4.5948,-4.6018,-4.6079,-4.737,-4.8173,-4.7719,-4.7028,-4.6201,-4.6163,-4.5853,-4.5458,-4.5381,-4.5361,-4.5298,-4.5277,-4.5277,-4.5277,-4.5277,-4.5277,-4.5277,-4.5277,-4.5277,-4.5277,-4.5277,-4.5277,-4.5277,-4.5277,-4.5277,-4.5277,-4.5256,-4.5192,-4.5125,-4.5057,-4.4967,-4.4895,-4.4895,-4.4895,-4.4895,-4.4895,-4.4895,-4.4895,-4.4895,-4.4895,-4.4895,-4.4895,-4.4895,-4.4895,-4.4895,-4.4895,-4.4895,-4.4895,-4.4895,-4.4895,-4.4895,-4.4895,-4.4895,-4.4919,-4.4967,-4.5103,-4.5125,-4.5211,-4.5275,-4.5297,-4.5277,-4.5277,-4.5277,-4.5277,-4.5277,-4.5277,-4.5277,-4.5277,-4.5277,-4.5277,-4.5277,-4.5277,-4.5277,-4.5277,-4.5277,-4.5277,-4.5277,-4.5277,-4.5277,-4.5277,-4.5277,-4.5277,-4.5277,-4.5277,-4.5277,-4.5277,-4.5277,-4.5277,-4.5277,-4.5277,-4.5277,-4.5277,-4.5277,-4.5277,-4.5277,-4.5277,-4.5277,-4.5298,-4.54,-4.5419,-4.5419,-4.5419,-4.538,-4.5341,-4.5341,-4.53,-4.5298,-4.5319,-4.5361,-4.54,-4.5437,-4.5655,-4.5869,-4.5939,-4.6029,-4.5873,-4.6565,-4.6584,-4.6136,-4.5475,-4.5456,-4.5419,-4.5298,-4.5298,-4.5297,-4.5277,-4.5277,-4.5277,-4.5277,-4.5277,-4.5277,-4.5277,-4.5277,-4.5277,-4.5277,-4.5277,-4.5277,-4.5277,-4.5277,-4.5277,-4.5277,-4.5277,-4.5213,-4.5148,-4.5038,-4.4991,-4.4895,-4.4895,-4.4895,-4.4895,-4.4895,-4.4895,-4.4895,-4.4895,-4.4895,-4.4895,-4.4895,-4.4895,-4.4895,-4.4895,-4.4895,-4.4895,-4.4895,-4.4895,-4.4895,-4.4895,-4.4895,-4.4895,-4.4895,-4.4962,-4.5057,-4.508,-4.5148,-4.5233,-4.5297,-4.5297,-4.5277,-4.5277,-4.5277,-4.5277,-4.5277,-4.5277,-4.5277,-4.5277,-4.5277,-4.5277,-4.5277,-4.5277,-4.5277,-4.5277,-4.5277,-4.5277,-4.5277,-4.5277,-4.5277,-4.5277,-4.5277,-4.5277,-4.5277,-4.5277,-4.5277,-4.5277,-4.5277,-4.5277,-4.5277,-4.5277,-4.5277,-4.5277,-4.5277,-4.5277,-4.5277,-4.5277,-4.532,-4.5419,-4.5456,-4.5438,-4.5419,-4.5381,-4.538,-4.5361,-4.532,-4.5277,-4.5297,-4.5317,-4.538,-4.5457,-4.5626,-4.5777,-4.5867,-4.6013,-4.5338,-4.5435,-4.5435,-4.5397,-4.5319,-4.5298,-4.5298,-4.5277,-4.5277,-4.5277,-4.5277,-4.5277,-4.5277,-4.5277,-4.5277,-4.5277,-4.5277,-4.5277,-4.5277,-4.5277,-4.5277,-4.5277,-4.5277,-4.5277,-4.5277,-4.5277,-4.5297,-4.5256,-4.5173,-4.5084,-4.5014,-4.4919,-4.4895,-4.4895,-4.4895,-4.4895,-4.4895,-4.4895,-4.4895,-4.4895,-4.4895,-4.4895,-4.4895,-4.4895,-4.4895,-4.4895,-4.4895,-4.4895,-4.4895,-4.4895,-4.4895,-4.4895,-4.4895,-4.4895,-4.4943,-4.4991,-4.5057,-4.5103,-4.5211,-4.5275,-4.5297,-4.5277,-4.5277,-4.5277,-4.5277,-4.5277,-4.5277,-4.5277,-4.5277,-4.5277,-4.5277,-4.5277,-4.5277,-4.5277,-4.5277,-4.5277,-4.5277,-4.5277,-4.5277,-4.5277,-4.5277,-4.5277,-4.5277,-4.5277,-4.5277,-4.5277,-4.5277,-4.5277,-4.5277,-4.5277,-4.5277,-4.5277,-4.5277,-4.5277,-4.5277,-4.5277,-4.5298,-4.5341,-4.5419,-4.5419,-4.5381,-4.54,-4.5528,-4.5381,-4.5361,-4.532,-4.5298,-4.5339,-4.538,-4.5379,-4.5495,-4.5669,-4.5863,-4.6033,-4.6144,-4.5277,-4.5277,-4.5277,-4.5277,-4.5277,-4.5277,-4.5277,-4.5277,-4.5277,-4.5277,-4.5277,-4.5277,-4.5277,-4.5277,-4.5277,-4.5277,-4.5277,-4.5277,-4.5297,-4.5277,-4.5277,-4.5277,-4.5277,-4.5277,-4.5277,-4.5277,-4.5297,-4.5235,-4.5129,-4.5084,-4.5014,-4.4943,-4.4895,-4.4895,-4.4895,-4.4895,-4.4895,-4.4895,-4.4895,-4.4895,-4.4895,-4.4895,-4.4895,-4.4895,-4.4895,-4.4895,-4.4895,-4.4895,-4.4895,-4.4895,-4.4895,-4.4895,-4.4895,-4.4895,-4.4919,-4.4991,-4.5033,-4.5103,-4.517,-4.5213,-4.5235,-4.5277,-4.5277,-4.5277,-4.5277,-4.5277,-4.5277,-4.5277,-4.5277,-4.5277,-4.5277,-4.5277,-4.5277,-4.5277,-4.5277,-4.5277,-4.5277,-4.5277,-4.5277,-4.5277,-4.5277,-4.5277,-4.5277,-4.5277,-4.5277,-4.5277,-4.5277,-4.5277,-4.5277,-4.5277,-4.5277,-4.5277,-4.5277,-4.5277,-4.5277,-4.5298,-4.532,-4.5381,-4.5455,-4.5455,-4.5493,-4.5718,-4.5775,-4.5594,-4.5381,-4.5381,-4.5381,-4.54,-4.5438,-4.5475,-4.561,-4.579,-4.5969,-4.6164,-4.624,-4.5277,-4.5277,-4.5277,-4.5277,-4.5277,-4.5277,-4.5277,-4.5277,-4.5277,-4.5277,-4.5277,-4.5277,-4.5277,-4.5297,-4.5256,-4.5256,-4.5235,-4.5235,-4.5254,-4.5275,-4.5256,-4.5256,-4.5297,-4.5277,-4.5277,-4.5297,-4.5256,-4.5194,-4.5148,-4.5084,-4.5014,-4.4943,-4.4914,-4.4895,-4.4895,-4.4895,-4.4895,-4.4895,-4.4895,-4.4895,-4.4895,-4.4895,-4.4895,-4.4895,-4.4895,-4.4895,-4.4895,-4.4895,-4.4895,-4.4895,-4.4895,-4.4895,-4.4895,-4.4895,-4.4919,-4.4967,-4.5014,-4.5084,-4.517,-4.5213,-4.5235,-4.5277,-4.5277,-4.5277,-4.5277,-4.5277,-4.5277,-4.5277,-4.5277,-4.5277,-4.5277,-4.5277,-4.5277,-4.5277,-4.5277,-4.5277,-4.5277,-4.5277,-4.5277,-4.5277,-4.5277,-4.5277,-4.5277,-4.5277,-4.5277,-4.5277,-4.5277,-4.5277,-4.5277,-4.5277,-4.5277,-4.5277,-4.5277,-4.5277,-4.5277,-4.5361,-4.54,-4.5455,-4.5524,-4.5571,-4.565,-4.5879,-4.5866,-4.5591,-4.5437,-4.5456,-4.5456,-4.5456,-4.5509,-4.5574,-4.575,-4.5938,-4.6026,-4.6189,-4.624,-4.5297,-4.5277,-4.5297,-4.5297,-4.5277,-4.5277,-4.5297,-4.5275,-4.5275,-4.5297,-4.5277,-4.5277,-4.5297,-4.5275,-4.5213,-4.5192,-4.5192,-4.5148,-4.5148,-4.5211,-4.5213,-4.5254,-4.5275,-4.5277,-4.5277,-4.5297,-4.5235,-4.5213,-4.517,-4.5061,-4.4991,-4.4967,-4.4919,-4.4895,-4.4895,-4.4895,-4.4895,-4.4895,-4.4895,-4.4895,-4.4895,-4.4895,-4.4895,-4.4895,-4.4895,-4.4895,-4.4895,-4.4895,-4.4895,-4.4895,-4.4895,-4.4895,-4.4895,-4.4895,-4.4895,-4.4938,-4.501,-4.5057,-4.5125,-4.5213,-4.5277,-4.5277,-4.5277,-4.5277,-4.5277,-4.5277,-4.5277,-4.5277,-4.5277,-4.5277,-4.5277,-4.5277,-4.5277,-4.5277,-4.5277,-4.5277,-4.5277,-4.5277,-4.5277,-4.5277,-4.5277,-4.5277,-4.5277,-4.5277,-4.5277,-4.5277,-4.5277,-4.5298,-4.5319,-4.5339,-4.5341,-4.5277,-4.5277,-4.5339,-4.5361,-4.5438,-4.5509,-4.5541,-4.5623,-4.5679,-4.5703,-4.5815,-4.5736,-4.5558,-4.5558,-4.5607,-4.5541,-4.549,-4.5607,-4.5694,-4.5936,-4.6091,-4.6157,-4.6203,-4.626,-4.517,-4.517,-4.517,-4.517,-4.517,-4.5213,-4.5233,-4.517,-4.517,-4.5192,-4.5213,-4.5192,-4.5192,-4.5192,-4.517,-4.5148,-4.5125,-4.5125,-4.5148,-4.5211,-4.5192,-4.5235,-4.5256,-4.5297,-4.5277,-4.5277,-4.5235,-4.517,-4.5125,-4.5014,-4.4967,-4.4919,-4.4919,-4.4895,-4.4895,-4.4895,-4.4895,-4.4895,-4.4895,-4.4895,-4.4895,-4.4895,-4.4895,-4.4895,-4.4895,-4.4895,-4.4895,-4.4895,-4.4895,-4.4895,-4.4895,-4.4895,-4.4895,-4.4895,-4.4919,-4.4962,-4.5033,-4.5125,-4.5192,-4.5297,-4.5277,-4.5277,-4.5277,-4.5277,-4.5277,-4.5277,-4.5277,-4.5277,-4.5277,-4.5277,-4.5277,-4.5277,-4.5277,-4.5277,-4.5277,-4.5277,-4.5277,-4.5277,-4.5277,-4.5277,-4.5277,-4.5277,-4.5277,-4.5298,-4.5298,-4.5361,-4.5361,-4.5381,-4.54,-4.54,-4.5419,-4.532,-4.5298,-4.5361,-4.5438,-4.5526,-4.5558,-4.5587,-4.5694,-4.5822,-4.5847,-4.5828,-4.5803,-4.5708,-4.5736,-4.5769,-4.565,-4.5571,-4.5708,-4.5859,-4.6046,-4.6157,-4.6177,-4.6215,-4.6279,-4.5103,-4.5103,-4.5103,-4.5103,-4.508,-4.5148,-4.5148,-4.5103,-4.5103,-4.5125,-4.5129,-4.5125,-4.5125,-4.5148,-4.5103,-4.5061,-4.508,-4.5057,-4.508,-4.5125,-4.5129,-4.5192,-4.5254,-4.5275,-4.5235,-4.5235,-4.517,-4.5103,-4.5061,-4.501,-4.4943,-4.4895,-4.4895,-4.4895,-4.4895,-4.4895,-4.4895,-4.4895,-4.4895,-4.4895,-4.4895,-4.4895,-4.4895,-4.4895,-4.4895,-4.4895,-4.4895,-4.4895,-4.4895,-4.4895,-4.4895,-4.4895,-4.4895,-4.4895,-4.4919,-4.4967,-4.5057,-4.517,-4.5275,-4.5297,-4.5277,-4.5277,-4.5277,-4.5277,-4.5277,-4.5277,-4.5277,-4.5277,-4.5277,-4.5277,-4.5277,-4.5277,-4.5277,-4.5277,-4.5277,-4.5277,-4.5277,-4.5277,-4.5277,-4.5277,-4.5277,-4.5277,-4.5277,-4.5298,-4.5319,-4.5381,-4.5437,-4.5437,-4.5455,-4.5491,-4.5491,-4.54,-4.5341,-4.5381,-4.551,-4.5642,-4.5654,-4.563,-4.5764,-4.5936,-4.5894,-4.5875,-4.5863,-4.5883,-4.5871,-4.5835,-4.5694,-4.5665,-4.5764,-4.5917,-4.6099,-4.619,-4.6195,-4.6226,-4.6275,-4.5103,-4.5103,-4.5103,-4.5057,-4.5033,-4.5038,-4.5103,-4.5103,-4.5103,-4.5103,-4.5103,-4.5103,-4.508,-4.508,-4.5033,-4.501,-4.501,-4.4962,-4.4986,-4.5033,-4.5061,-4.5148,-4.517,-4.5192,-4.5192,-4.5148,-4.5103,-4.5057,-4.4991,-4.4943,-4.4895,-4.4895,-4.4895,-4.4895,-4.4895,-4.4895,-4.4895,-4.4895,-4.4895,-4.4895,-4.4895,-4.4895,-4.4895,-4.4895,-4.4895,-4.4895,-4.4895,-4.4895,-4.4895,-4.4895,-4.4895,-4.4895,-4.4895,-4.4895,-4.4895,-4.4943,-4.5038,-4.5192,-4.5275,-4.5277,-4.5277,-4.5277,-4.5277,-4.5277,-4.5277,-4.5277,-4.5277,-4.5277,-4.5277,-4.5277,-4.5277,-4.5277,-4.5277,-4.5277,-4.5277,-4.5277,-4.5277,-4.5277,-4.5277,-4.5277,-4.5277,-4.5277,-4.5277,-4.5298,-4.5319,-4.5381,-4.5419,-4.5419,-4.5438,-4.5524,-4.5507,-4.5475,-4.5419,-4.5419,-4.5543,-4.5669,-4.5684,-4.563,-4.5883,-4.6018,-4.5978,-4.5938,-4.5988,-4.6018,-4.5988,-4.5914,-4.5809,-4.5764,-4.5803,-4.5968,-4.6127,-4.6183,-4.6203,-4.6209,-4.6234,-4.501,-4.4943,-4.4962,-4.4962,-4.4938,-4.4943,-4.4962,-4.4962,-4.4943,-4.4967,-4.5014,-4.4967,-4.501,-4.5014,-4.4943,-4.4919,-4.4919,-4.4938,-4.4943,-4.4991,-4.5014,-4.508,-4.5103,-4.5106,-4.5125,-4.5103,-4.5057,-4.501,-4.4986,-4.4919,-4.4895,-4.4895,-4.4895,-4.4895,-4.4895,-4.4895,-4.4895,-4.4895,-4.4895,-4.4895,-4.4895,-4.4895,-4.4895,-4.4895,-4.4895,-4.4895,-4.4895,-4.4895,-4.4895,-4.4895,-4.4895,-4.4895,-4.4895,-4.4895,-4.4938,-4.5057,-4.517,-4.5256,-4.5277,-4.5277,-4.5277,-4.5277,-4.5277,-4.5277,-4.5277,-4.5277,-4.5277,-4.5277,-4.5277,-4.5277,-4.5277,-4.5277,-4.5277,-4.5277,-4.5277,-4.5277,-4.5277,-4.5277,-4.5277,-4.5277,-4.5277,-4.5277,-4.5277,-4.5277,-4.5319,-4.538,-4.54,-4.5381,-4.5419,-4.5507,-4.5507,-4.5475,-4.5473,-4.5473,-4.5524,-4.5654,-4.565,-4.5694,-4.5936,-4.6074,-4.6018,-4.6018,-4.6138,-4.6138,-4.6047,-4.6007,-4.5944,-4.5914,-4.5902,-4.5977,-4.6111,-4.6162,-4.6209,-4.6216,-4.6203,-4.4943,-4.4895,-4.4895,-4.4895,-4.4895,-4.4895,-4.4895,-4.4895,-4.4895,-4.4938,-4.4943,-4.4943,-4.4962,-4.4962,-4.4962,-4.4919,-4.4895,-4.4895,-4.4919,-4.4943,-4.4967,-4.5014,-4.5038,-4.5061,-4.5061,-4.5038,-4.4991,-4.4962,-4.4962,-4.4919,-4.4895,-4.4895,-4.4895,-4.4895,-4.4895,-4.4895,-4.4895,-4.4895,-4.4895,-4.4895,-4.4895,-4.4895,-4.4895,-4.4895,-4.4895,-4.4895,-4.4895,-4.4895,-4.4895,-4.4895,-4.4895,-4.4895,-4.4895,-4.4895,-4.4962,-4.5057,-4.5103,-4.5192,-4.5213,-4.5254,-4.5275,-4.5256,-4.5297,-4.5256,-4.5256,-4.5256,-4.5277,-4.5277,-4.5277,-4.5277,-4.5277,-4.5277,-4.5277,-4.5277,-4.5277,-4.5277,-4.5277,-4.5277,-4.5277,-4.5277,-4.5277,-4.5277,-4.5277,-4.5277,-4.5317,-4.5339,-4.538,-4.54,-4.5419,-4.549,-4.5473,-4.5419,-4.5455,-4.5507,-4.5571,-4.5665,-4.5708,-4.5777,-4.5958,-4.6065,-4.6037,-4.6084,-4.6154,-4.6146,-4.6084,-4.6047,-4.6037,-4.6007,-4.5997,-4.6075,-4.6111,-4.6162,-4.6203,-4.6203,-4.6216,-4.4967,-4.4895,-4.4895,-4.4895,-4.4895,-4.4895,-4.4895,-4.4895,-4.4895,-4.4895,-4.4895,-4.4967,-4.4943,-4.4962,-4.4962,-4.4962,-4.4919,-4.4895,-4.4895,-4.4895,-4.4943,-4.4967,-4.4991,-4.4991,-4.4991,-4.4967,-4.4943,-4.4938,-4.4895,-4.4895,-4.4895,-4.4895,-4.4895,-4.4895,-4.4895,-4.4895,-4.4895,-4.4895,-4.4895,-4.4895,-4.4895,-4.4895,-4.4895,-4.4895,-4.4895,-4.4895,-4.4895,-4.4895,-4.4895,-4.4895,-4.4895,-4.4895,-4.4895,-4.4919,-4.4962,-4.501,-4.5057,-4.5103,-4.517,-4.5211,-4.5211,-4.5233,-4.5254,-4.5275,-4.5256,-4.5256,-4.5277,-4.5277,-4.5277,-4.5277,-4.5277,-4.5277,-4.5277,-4.5277,-4.5277,-4.5277,-4.5277,-4.5277,-4.5277,-4.5277,-4.5277,-4.5277,-4.5277,-4.5277,-4.5277,-4.5317,-4.5319,-4.5341,-4.54,-4.5473,-4.5507,-4.5438,-4.5507,-4.5587,-4.5665,-4.5736,-4.579,-4.5894,-4.6027,-4.6102,-4.6093,-4.6138,-4.6196,-4.6174,-4.613,-4.6119,-4.6111,-4.6093,-4.6084,-4.6138,-4.6181,-4.6189,-4.6203,-4.6203,-4.6209,-4.4943,-4.4895,-4.4895,-4.4895,-4.4895,-4.4895,-4.4895,-4.4895,-4.4895,-4.4895,-4.4895,-4.4919,-4.4943,-4.4986,-4.4962,-4.4962,-4.4943,-4.4938,-4.4895,-4.4895,-4.4919,-4.4943,-4.4919,-4.4919,-4.4919,-4.4919,-4.4895,-4.4895,-4.4895,-4.4895,-4.4895,-4.4895,-4.4895,-4.4895,-4.4895,-4.4895,-4.4895,-4.4895,-4.4895,-4.4895,-4.4895,-4.4895,-4.4895,-4.4895,-4.4895,-4.4895,-4.4895,-4.4895,-4.4895,-4.4895,-4.4895,-4.4895,-4.4895,-4.4943,-4.4967,-4.4991,-4.5057,-4.508,-4.5125,-4.5148,-4.5148,-4.5192,-4.5213,-4.5254,-4.5275,-4.5297,-4.5277,-4.5277,-4.5277,-4.5277,-4.5277,-4.5277,-4.5277,-4.5277,-4.5277,-4.5277,-4.5277,-4.5277,-4.5277,-4.5277,-4.5277,-4.5277,-4.5277,-4.5277,-4.5277,-4.5297,-4.5297,-4.5319,-4.5339,-4.54,-4.5603,-4.5607,-4.5634,-4.5708,-4.5764,-4.5822,-4.5871,-4.5936,-4.6047,-4.6093,-4.6138,-4.6181,-4.6196,-4.6196,-4.6189,-4.6169,-4.6162,-4.6181,-4.6189,-4.6196,-4.6196,-4.6196,-4.6203,-4.6209,-4.6196,-4.4962,-4.4895,-4.4895,-4.4895,-4.4895,-4.4895,-4.4895,-4.4895,-4.4895,-4.4895,-4.4895,-4.4919,-4.4962,-4.4967,-4.4943,-4.4919,-4.4943,-4.4938,-4.4895,-4.4895,-4.4895,-4.4895,-4.4895,-4.4895,-4.4895,-4.4895,-4.4895,-4.4895,-4.4895,-4.4895,-4.4895,-4.4895,-4.4895,-4.4895,-4.4895,-4.4895,-4.4895,-4.4895,-4.4895,-4.4895,-4.4895,-4.4895,-4.4895,-4.4895,-4.4895,-4.4895,-4.4895,-4.4895,-4.4895,-4.4895,-4.4895,-4.4919,-4.4943,-4.4967,-4.501,-4.501,-4.5033,-4.508,-4.5103,-4.5103,-4.5125,-4.517,-4.5235,-4.5275,-4.5235,-4.5256,-4.5277,-4.5277,-4.5277,-4.5277,-4.5277,-4.5277,-4.5277,-4.5277,-4.5277,-4.5277,-4.5277,-4.5277,-4.5277,-4.5277,-4.5277,-4.5277,-4.5277,-4.5277,-4.5277,-4.5277,-4.5277,-4.5277,-4.5317,-4.5339,-4.556,-4.5694,-4.5708,-4.579,-4.5902,-4.5925,-4.5956,-4.6017,-4.6075,-4.613,-4.6181,-4.6189,-4.6196,-4.6196,-4.6196,-4.6196,-4.6196,-4.6196,-4.6196,-4.6196,-4.6196,-4.6196,-4.6209,-4.6196,-4.6209,-4.4943,-4.4895,-4.4895,-4.4895,-4.4895,-4.4895,-4.4895,-4.4895,-4.4895,-4.4895,-4.4895,-4.4962,-4.4943,-4.4943,-4.4943,-4.4943,-4.4919,-4.4895,-4.4895,-4.4895,-4.4895,-4.4895,-4.4895,-4.4895,-4.4895,-4.4895,-4.4895,-4.4895,-4.4895,-4.4895,-4.4895,-4.4895,-4.4895,-4.4895,-4.4895,-4.4895,-4.4895,-4.4895,-4.4895,-4.4895,-4.4895,-4.4895,-4.4895,-4.4895,-4.4895,-4.4895,-4.4895,-4.4895,-4.4895,-4.4895,-4.4919,-4.4943,-4.4986,-4.5033,-4.5014,-4.5033,-4.5033,-4.508,-4.5103,-4.5103,-4.5148,-4.5192,-4.5256,-4.5275,-4.5254,-4.5235,-4.5277,-4.5277,-4.5277,-4.5277,-4.5277,-4.5277,-4.5277,-4.5277,-4.5277,-4.5277,-4.5277,-4.5277,-4.5277,-4.5277,-4.5277,-4.5277,-4.5277,-4.5277,-4.5277,-4.5277,-4.5277,-4.5277,-4.5298,-4.5341,-4.5475,-4.5587,-4.563,-4.5764,-4.5977,-4.6037,-4.6047,-4.6093,-4.6146,-4.6181,-4.6196,-4.6196,-4.6196,-4.6196,-4.6196,-4.6196,-4.6196,-4.6196,-4.6196,-4.6196,-4.6196,-4.6203,-4.6216,-4.6203,-4.6201,-4.4895,-4.4895,-4.4895,-4.4895,-4.4895,-4.4895,-4.4895,-4.4895,-4.4895,-4.4895,-4.4895,-4.4938,-4.4938,-4.4986,-4.4919,-4.4919,-4.4943,-4.4919,-4.4895,-4.4895,-4.4895,-4.4895,-4.4895,-4.4895,-4.4895,-4.4895,-4.4895,-4.4895,-4.4895,-4.4895,-4.4895,-4.4895,-4.4895,-4.4895,-4.4895,-4.4895,-4.4895,-4.4895,-4.4895,-4.4895,-4.4895,-4.4895,-4.4895,-4.4895,-4.4895,-4.4895,-4.4895,-4.4895,-4.4895,-4.4919,-4.4962,-4.4986,-4.5033,-4.5057,-4.508,-4.508,-4.508,-4.5103,-4.5125,-4.5125,-4.5148,-4.5192,-4.5254,-4.5275,-4.5254,-4.5256,-4.5277,-4.5277,-4.5277,-4.5277,-4.5277,-4.5277,-4.5277,-4.5277,-4.5277,-4.5277,-4.5277,-4.5277,-4.5277,-4.5277,-4.5277,-4.5277,-4.5277,-4.5277,-4.5277,-4.5277,-4.5277,-4.5297,-4.5297,-4.5341,-4.5419,-4.549,-4.5584,-4.584,-4.6083,-4.6138,-4.6146,-4.6189,-4.6196,-4.6196,-4.6196,-4.6196,-4.6196,-4.6196,-4.6196,-4.6196,-4.6196,-4.6196,-4.6196,-4.6196,-4.6196,-4.6203,-4.6196,-4.6215,-4.6231]}]]